<?xml version="1.0" encoding="UTF-8" standalone="no" ?>
<gpx xmlns="http://www.topografix.com/GPX/1/1" xmlns:xsi="http://www.w3.org/2001/XMLSchema-instance" xsi:schemaLocation="http://www.topografix.com/GPX/1/1 http://www.topografix.com/GPX/1/1/gpx.xsd" version="1.1" creator="VisuGPX - https://www.visugpx.com">
  <metadata>
    <name>Les Bréviaires Plaine</name>
    <desc><![CDATA[Un bon tour, bons terrains, un peu chaud en plaine. des chevaux un peu inquiets devant la piste d\'aéromodélisme.]]></desc>
  </metadata>
  <trk>
    <name><![CDATA[Les Bréviaires Plaine_1]]></name>
    <trkseg>
      <trkpt lat="48.70644" lon="1.7565">
        <ele>141.7</ele>
        <time>2014-07-27T14:04:15Z</time>
      </trkpt>
      <trkpt lat="48.70646" lon="1.75655">
        <ele>141.7</ele>
        <time>2014-07-27T14:04:20Z</time>
      </trkpt>
      <trkpt lat="48.70646" lon="1.75655">
        <ele>141.7</ele>
        <time>2014-07-27T14:04:25Z</time>
      </trkpt>
      <trkpt lat="48.70638" lon="1.7566">
        <ele>153.0761</ele>
        <time>2014-07-27T14:08:27Z</time>
      </trkpt>
      <trkpt lat="48.70638" lon="1.75664">
        <ele>153.0761</ele>
        <time>2014-07-27T14:08:32Z</time>
      </trkpt>
      <trkpt lat="48.70636" lon="1.7567">
        <ele>153.0761</ele>
        <time>2014-07-27T14:08:35Z</time>
      </trkpt>
      <trkpt lat="48.70633" lon="1.75674">
        <ele>153.71475</ele>
        <time>2014-07-27T14:08:43Z</time>
      </trkpt>
      <trkpt lat="48.70633" lon="1.75673">
        <ele>153.71475</ele>
        <time>2014-07-27T14:08:46Z</time>
      </trkpt>
      <trkpt lat="48.70629" lon="1.75685">
        <ele>154.57268</ele>
        <time>2014-07-27T14:08:56Z</time>
      </trkpt>
      <trkpt lat="48.70626" lon="1.75696">
        <ele>154.57268</ele>
        <time>2014-07-27T14:09:03Z</time>
      </trkpt>
      <trkpt lat="48.70625" lon="1.757">
        <ele>155.58168</ele>
        <time>2014-07-27T14:09:06Z</time>
      </trkpt>
      <trkpt lat="48.70623" lon="1.75705">
        <ele>155.58168</ele>
        <time>2014-07-27T14:09:13Z</time>
      </trkpt>
      <trkpt lat="48.70622" lon="1.75708">
        <ele>155.58168</ele>
        <time>2014-07-27T14:09:17Z</time>
      </trkpt>
      <trkpt lat="48.70617" lon="1.75721">
        <ele>156.68549</ele>
        <time>2014-07-27T14:09:22Z</time>
      </trkpt>
      <trkpt lat="48.70615" lon="1.75728">
        <ele>156.68549</ele>
        <time>2014-07-27T14:09:27Z</time>
      </trkpt>
      <trkpt lat="48.70613" lon="1.75735">
        <ele>157.7515</ele>
        <time>2014-07-27T14:09:32Z</time>
      </trkpt>
      <trkpt lat="48.70609" lon="1.75741">
        <ele>157.7515</ele>
        <time>2014-07-27T14:09:35Z</time>
      </trkpt>
      <trkpt lat="48.70605" lon="1.75749">
        <ele>158.97072</ele>
        <time>2014-07-27T14:09:43Z</time>
      </trkpt>
      <trkpt lat="48.70604" lon="1.75752">
        <ele>158.97072</ele>
        <time>2014-07-27T14:09:46Z</time>
      </trkpt>
      <trkpt lat="48.70598" lon="1.75761">
        <ele>160.19495</ele>
        <time>2014-07-27T14:09:53Z</time>
      </trkpt>
      <trkpt lat="48.70595" lon="1.75768">
        <ele>160.19495</ele>
        <time>2014-07-27T14:09:56Z</time>
      </trkpt>
      <trkpt lat="48.7059" lon="1.75776">
        <ele>161.36646</ele>
        <time>2014-07-27T14:10:03Z</time>
      </trkpt>
      <trkpt lat="48.70588" lon="1.75778">
        <ele>161.36646</ele>
        <time>2014-07-27T14:10:07Z</time>
      </trkpt>
      <trkpt lat="48.70581" lon="1.75787">
        <ele>162.53685</ele>
        <time>2014-07-27T14:10:12Z</time>
      </trkpt>
      <trkpt lat="48.70578" lon="1.75793">
        <ele>162.53685</ele>
        <time>2014-07-27T14:10:17Z</time>
      </trkpt>
      <trkpt lat="48.70576" lon="1.75799">
        <ele>162.53685</ele>
        <time>2014-07-27T14:10:21Z</time>
      </trkpt>
      <trkpt lat="48.70572" lon="1.75809">
        <ele>163.83719</ele>
        <time>2014-07-27T14:10:27Z</time>
      </trkpt>
      <trkpt lat="48.7057" lon="1.75815">
        <ele>163.83719</ele>
        <time>2014-07-27T14:10:32Z</time>
      </trkpt>
      <trkpt lat="48.70567" lon="1.75818">
        <ele>163.83719</ele>
        <time>2014-07-27T14:10:35Z</time>
      </trkpt>
      <trkpt lat="48.70564" lon="1.75831">
        <ele>165.25587</ele>
        <time>2014-07-27T14:10:43Z</time>
      </trkpt>
      <trkpt lat="48.70561" lon="1.75837">
        <ele>165.25587</ele>
        <time>2014-07-27T14:10:46Z</time>
      </trkpt>
      <trkpt lat="48.70555" lon="1.75844">
        <ele>166.69887</ele>
        <time>2014-07-27T14:10:53Z</time>
      </trkpt>
      <trkpt lat="48.70549" lon="1.75849">
        <ele>166.69887</ele>
        <time>2014-07-27T14:10:56Z</time>
      </trkpt>
      <trkpt lat="48.70542" lon="1.75858">
        <ele>168.24635</ele>
        <time>2014-07-27T14:11:03Z</time>
      </trkpt>
      <trkpt lat="48.70537" lon="1.75864">
        <ele>168.24635</ele>
        <time>2014-07-27T14:11:06Z</time>
      </trkpt>
      <trkpt lat="48.70534" lon="1.75871">
        <ele>169.80402</ele>
        <time>2014-07-27T14:11:13Z</time>
      </trkpt>
      <trkpt lat="48.70532" lon="1.75875">
        <ele>169.80402</ele>
        <time>2014-07-27T14:11:16Z</time>
      </trkpt>
      <trkpt lat="48.70527" lon="1.75881">
        <ele>171.38557</ele>
        <time>2014-07-27T14:11:23Z</time>
      </trkpt>
      <trkpt lat="48.70526" lon="1.75885">
        <ele>171.38557</ele>
        <time>2014-07-27T14:11:26Z</time>
      </trkpt>
      <trkpt lat="48.70522" lon="1.75895">
        <ele>173.01959</ele>
        <time>2014-07-27T14:11:32Z</time>
      </trkpt>
      <trkpt lat="48.7052" lon="1.759">
        <ele>173.01959</ele>
        <time>2014-07-27T14:11:35Z</time>
      </trkpt>
      <trkpt lat="48.70515" lon="1.75908">
        <ele>174.65038</ele>
        <time>2014-07-27T14:11:43Z</time>
      </trkpt>
      <trkpt lat="48.70513" lon="1.75914">
        <ele>174.65038</ele>
        <time>2014-07-27T14:11:46Z</time>
      </trkpt>
      <trkpt lat="48.7051" lon="1.75922">
        <ele>176.2929</ele>
        <time>2014-07-27T14:11:53Z</time>
      </trkpt>
      <trkpt lat="48.70511" lon="1.75927">
        <ele>176.2929</ele>
        <time>2014-07-27T14:11:56Z</time>
      </trkpt>
      <trkpt lat="48.70511" lon="1.75936">
        <ele>177.89766</ele>
        <time>2014-07-27T14:12:03Z</time>
      </trkpt>
      <trkpt lat="48.7051" lon="1.75945">
        <ele>177.89766</ele>
        <time>2014-07-27T14:12:06Z</time>
      </trkpt>
      <trkpt lat="48.70507" lon="1.75955">
        <ele>179.5147</ele>
        <time>2014-07-27T14:12:13Z</time>
      </trkpt>
      <trkpt lat="48.70505" lon="1.75957">
        <ele>179.5147</ele>
        <time>2014-07-27T14:12:15Z</time>
      </trkpt>
      <trkpt lat="48.70503" lon="1.75966">
        <ele>179.5147</ele>
        <time>2014-07-27T14:12:20Z</time>
      </trkpt>
      <trkpt lat="48.70501" lon="1.75972">
        <ele>181.24849</ele>
        <time>2014-07-27T14:12:26Z</time>
      </trkpt>
      <trkpt lat="48.70497" lon="1.75982">
        <ele>181.24849</ele>
        <time>2014-07-27T14:12:31Z</time>
      </trkpt>
      <trkpt lat="48.70495" lon="1.7599">
        <ele>182.9351</ele>
        <time>2014-07-27T14:12:36Z</time>
      </trkpt>
      <trkpt lat="48.70487" lon="1.76007">
        <ele>184.5053</ele>
        <time>2014-07-27T14:12:41Z</time>
      </trkpt>
      <trkpt lat="48.70485" lon="1.76016">
        <ele>184.5053</ele>
        <time>2014-07-27T14:12:48Z</time>
      </trkpt>
      <trkpt lat="48.70484" lon="1.76023">
        <ele>186.04419</ele>
        <time>2014-07-27T14:12:51Z</time>
      </trkpt>
      <trkpt lat="48.70481" lon="1.76034">
        <ele>186.04419</ele>
        <time>2014-07-27T14:12:58Z</time>
      </trkpt>
      <trkpt lat="48.70479" lon="1.7604">
        <ele>187.54024</ele>
        <time>2014-07-27T14:13:01Z</time>
      </trkpt>
      <trkpt lat="48.70475" lon="1.76052">
        <ele>188.9403</ele>
        <time>2014-07-27T14:13:08Z</time>
      </trkpt>
      <trkpt lat="48.70472" lon="1.7606">
        <ele>188.9403</ele>
        <time>2014-07-27T14:13:11Z</time>
      </trkpt>
      <trkpt lat="48.70471" lon="1.76069">
        <ele>190.29541</ele>
        <time>2014-07-27T14:13:17Z</time>
      </trkpt>
      <trkpt lat="48.70468" lon="1.76073">
        <ele>190.29541</ele>
        <time>2014-07-27T14:13:21Z</time>
      </trkpt>
      <trkpt lat="48.70465" lon="1.76081">
        <ele>191.56697</ele>
        <time>2014-07-27T14:13:27Z</time>
      </trkpt>
      <trkpt lat="48.70463" lon="1.76083">
        <ele>191.56697</ele>
        <time>2014-07-27T14:13:30Z</time>
      </trkpt>
      <trkpt lat="48.70458" lon="1.7609">
        <ele>191.56697</ele>
        <time>2014-07-27T14:13:35Z</time>
      </trkpt>
      <trkpt lat="48.70456" lon="1.76098">
        <ele>192.66391</ele>
        <time>2014-07-27T14:13:40Z</time>
      </trkpt>
      <trkpt lat="48.70449" lon="1.76117">
        <ele>193.64146</ele>
        <time>2014-07-27T14:13:48Z</time>
      </trkpt>
      <trkpt lat="48.70448" lon="1.76124">
        <ele>193.64146</ele>
        <time>2014-07-27T14:13:51Z</time>
      </trkpt>
      <trkpt lat="48.70446" lon="1.76138">
        <ele>194.59145</ele>
        <time>2014-07-27T14:13:58Z</time>
      </trkpt>
      <trkpt lat="48.70443" lon="1.76145">
        <ele>194.59145</ele>
        <time>2014-07-27T14:14:01Z</time>
      </trkpt>
      <trkpt lat="48.70445" lon="1.76156">
        <ele>195.36267</ele>
        <time>2014-07-27T14:14:08Z</time>
      </trkpt>
      <trkpt lat="48.70444" lon="1.76162">
        <ele>195.36267</ele>
        <time>2014-07-27T14:14:11Z</time>
      </trkpt>
      <trkpt lat="48.70444" lon="1.76174">
        <ele>196.13417</ele>
        <time>2014-07-27T14:14:18Z</time>
      </trkpt>
      <trkpt lat="48.70445" lon="1.7618">
        <ele>196.13417</ele>
        <time>2014-07-27T14:14:21Z</time>
      </trkpt>
      <trkpt lat="48.70447" lon="1.76191">
        <ele>196.86429</ele>
        <time>2014-07-27T14:14:28Z</time>
      </trkpt>
      <trkpt lat="48.70447" lon="1.76199">
        <ele>196.86429</ele>
        <time>2014-07-27T14:14:31Z</time>
      </trkpt>
      <trkpt lat="48.70449" lon="1.7621">
        <ele>197.62636</ele>
        <time>2014-07-27T14:14:38Z</time>
      </trkpt>
      <trkpt lat="48.70452" lon="1.76217">
        <ele>197.62636</ele>
        <time>2014-07-27T14:14:41Z</time>
      </trkpt>
      <trkpt lat="48.70454" lon="1.76229">
        <ele>198.44771</ele>
        <time>2014-07-27T14:14:47Z</time>
      </trkpt>
      <trkpt lat="48.70453" lon="1.76235">
        <ele>198.44771</ele>
        <time>2014-07-27T14:14:50Z</time>
      </trkpt>
      <trkpt lat="48.70465" lon="1.76251">
        <ele>199.32614</ele>
        <time>2014-07-27T14:14:58Z</time>
      </trkpt>
      <trkpt lat="48.70469" lon="1.76254">
        <ele>199.32614</ele>
        <time>2014-07-27T14:15:01Z</time>
      </trkpt>
      <trkpt lat="48.7047" lon="1.76261">
        <ele>200.17415</ele>
        <time>2014-07-27T14:15:06Z</time>
      </trkpt>
      <trkpt lat="48.70469" lon="1.76272">
        <ele>200.17415</ele>
        <time>2014-07-27T14:15:12Z</time>
      </trkpt>
      <trkpt lat="48.70466" lon="1.76285">
        <ele>201.06693</ele>
        <time>2014-07-27T14:15:17Z</time>
      </trkpt>
      <trkpt lat="48.70469" lon="1.76296">
        <ele>201.06693</ele>
        <time>2014-07-27T14:15:22Z</time>
      </trkpt>
      <trkpt lat="48.7047" lon="1.76302">
        <ele>201.96017</ele>
        <time>2014-07-27T14:15:27Z</time>
      </trkpt>
      <trkpt lat="48.70468" lon="1.76312">
        <ele>201.96017</ele>
        <time>2014-07-27T14:15:32Z</time>
      </trkpt>
      <trkpt lat="48.70465" lon="1.7632">
        <ele>202.88469</ele>
        <time>2014-07-27T14:15:37Z</time>
      </trkpt>
      <trkpt lat="48.7046" lon="1.76326">
        <ele>202.88469</ele>
        <time>2014-07-27T14:15:42Z</time>
      </trkpt>
      <trkpt lat="48.70458" lon="1.76333">
        <ele>203.81093</ele>
        <time>2014-07-27T14:15:47Z</time>
      </trkpt>
      <trkpt lat="48.70455" lon="1.76339">
        <ele>203.81093</ele>
        <time>2014-07-27T14:15:50Z</time>
      </trkpt>
      <trkpt lat="48.70457" lon="1.7635">
        <ele>204.7699</ele>
        <time>2014-07-27T14:15:57Z</time>
      </trkpt>
      <trkpt lat="48.70456" lon="1.7636">
        <ele>204.7699</ele>
        <time>2014-07-27T14:16:02Z</time>
      </trkpt>
      <trkpt lat="48.70457" lon="1.76367">
        <ele>205.672</ele>
        <time>2014-07-27T14:16:06Z</time>
      </trkpt>
      <trkpt lat="48.70457" lon="1.76378">
        <ele>205.672</ele>
        <time>2014-07-27T14:16:12Z</time>
      </trkpt>
      <trkpt lat="48.70456" lon="1.76383">
        <ele>206.55223</ele>
        <time>2014-07-27T14:16:17Z</time>
      </trkpt>
      <trkpt lat="48.70459" lon="1.76387">
        <ele>206.55223</ele>
        <time>2014-07-27T14:16:21Z</time>
      </trkpt>
      <trkpt lat="48.70459" lon="1.76398">
        <ele>207.48843</ele>
        <time>2014-07-27T14:16:26Z</time>
      </trkpt>
      <trkpt lat="48.70456" lon="1.76405">
        <ele>207.48843</ele>
        <time>2014-07-27T14:16:30Z</time>
      </trkpt>
      <trkpt lat="48.70453" lon="1.76413">
        <ele>208.40315</ele>
        <time>2014-07-27T14:16:36Z</time>
      </trkpt>
      <trkpt lat="48.70449" lon="1.76428">
        <ele>209.26906</ele>
        <time>2014-07-27T14:16:42Z</time>
      </trkpt>
      <trkpt lat="48.70446" lon="1.76439">
        <ele>209.26906</ele>
        <time>2014-07-27T14:16:47Z</time>
      </trkpt>
      <trkpt lat="48.70447" lon="1.76444">
        <ele>210.15137</ele>
        <time>2014-07-27T14:16:50Z</time>
      </trkpt>
      <trkpt lat="48.70441" lon="1.76465">
        <ele>211.01999</ele>
        <time>2014-07-27T14:16:58Z</time>
      </trkpt>
      <trkpt lat="48.70438" lon="1.7647">
        <ele>211.01999</ele>
        <time>2014-07-27T14:17:01Z</time>
      </trkpt>
      <trkpt lat="48.70431" lon="1.76482">
        <ele>211.43938</ele>
        <time>2014-07-27T14:17:08Z</time>
      </trkpt>
      <trkpt lat="48.70431" lon="1.76488">
        <ele>211.43938</ele>
        <time>2014-07-27T14:17:11Z</time>
      </trkpt>
      <trkpt lat="48.7043" lon="1.76497">
        <ele>211.67314</ele>
        <time>2014-07-27T14:17:18Z</time>
      </trkpt>
      <trkpt lat="48.7043" lon="1.76503">
        <ele>211.67314</ele>
        <time>2014-07-27T14:17:21Z</time>
      </trkpt>
      <trkpt lat="48.70427" lon="1.76515">
        <ele>211.54303</ele>
        <time>2014-07-27T14:17:28Z</time>
      </trkpt>
      <trkpt lat="48.70432" lon="1.76522">
        <ele>211.54303</ele>
        <time>2014-07-27T14:17:31Z</time>
      </trkpt>
      <trkpt lat="48.70432" lon="1.7653">
        <ele>211.17273</ele>
        <time>2014-07-27T14:17:38Z</time>
      </trkpt>
      <trkpt lat="48.70433" lon="1.76535">
        <ele>211.17273</ele>
        <time>2014-07-27T14:17:41Z</time>
      </trkpt>
      <trkpt lat="48.70434" lon="1.76544">
        <ele>210.64685</ele>
        <time>2014-07-27T14:17:47Z</time>
      </trkpt>
      <trkpt lat="48.70429" lon="1.76552">
        <ele>210.64685</ele>
        <time>2014-07-27T14:17:50Z</time>
      </trkpt>
      <trkpt lat="48.70428" lon="1.76561">
        <ele>209.65277</ele>
        <time>2014-07-27T14:17:58Z</time>
      </trkpt>
      <trkpt lat="48.70429" lon="1.7657">
        <ele>209.65277</ele>
        <time>2014-07-27T14:18:28Z</time>
      </trkpt>
      <trkpt lat="48.70429" lon="1.7657">
        <ele>209.65277</ele>
        <time>2014-07-27T14:18:31Z</time>
      </trkpt>
      <trkpt lat="48.70429" lon="1.76572">
        <ele>209.65277</ele>
        <time>2014-07-27T14:18:41Z</time>
      </trkpt>
      <trkpt lat="48.70424" lon="1.76576">
        <ele>207.21529</ele>
        <time>2014-07-27T14:18:47Z</time>
      </trkpt>
      <trkpt lat="48.70422" lon="1.76578">
        <ele>207.21529</ele>
        <time>2014-07-27T14:18:50Z</time>
      </trkpt>
      <trkpt lat="48.7042" lon="1.7658">
        <ele>207.21529</ele>
        <time>2014-07-27T14:18:57Z</time>
      </trkpt>
      <trkpt lat="48.70419" lon="1.76584">
        <ele>207.21529</ele>
        <time>2014-07-27T14:19:02Z</time>
      </trkpt>
      <trkpt lat="48.70416" lon="1.76584">
        <ele>205.01923</ele>
        <time>2014-07-27T14:19:07Z</time>
      </trkpt>
      <trkpt lat="48.70413" lon="1.76587">
        <ele>205.01923</ele>
        <time>2014-07-27T14:19:12Z</time>
      </trkpt>
      <trkpt lat="48.70412" lon="1.76588">
        <ele>205.01923</ele>
        <time>2014-07-27T14:19:17Z</time>
      </trkpt>
      <trkpt lat="48.70404" lon="1.76594">
        <ele>202.95003</ele>
        <time>2014-07-27T14:19:27Z</time>
      </trkpt>
      <trkpt lat="48.70399" lon="1.76598">
        <ele>202.95003</ele>
        <time>2014-07-27T14:19:32Z</time>
      </trkpt>
      <trkpt lat="48.70392" lon="1.76601">
        <ele>201.05083</ele>
        <time>2014-07-27T14:19:37Z</time>
      </trkpt>
      <trkpt lat="48.70388" lon="1.76604">
        <ele>201.05083</ele>
        <time>2014-07-27T14:19:42Z</time>
      </trkpt>
      <trkpt lat="48.70382" lon="1.76606">
        <ele>199.31566</ele>
        <time>2014-07-27T14:19:47Z</time>
      </trkpt>
      <trkpt lat="48.70379" lon="1.76607">
        <ele>199.31566</ele>
        <time>2014-07-27T14:19:50Z</time>
      </trkpt>
      <trkpt lat="48.70369" lon="1.76614">
        <ele>197.56044</ele>
        <time>2014-07-27T14:19:58Z</time>
      </trkpt>
      <trkpt lat="48.70362" lon="1.76618">
        <ele>197.56044</ele>
        <time>2014-07-27T14:20:01Z</time>
      </trkpt>
      <trkpt lat="48.70356" lon="1.7662">
        <ele>195.69026</ele>
        <time>2014-07-27T14:20:08Z</time>
      </trkpt>
      <trkpt lat="48.70355" lon="1.7662">
        <ele>195.69026</ele>
        <time>2014-07-27T14:20:11Z</time>
      </trkpt>
      <trkpt lat="48.70352" lon="1.7662">
        <ele>195.69026</ele>
        <time>2014-07-27T14:20:17Z</time>
      </trkpt>
      <trkpt lat="48.70353" lon="1.76617">
        <ele>195.69026</ele>
        <time>2014-07-27T14:20:28Z</time>
      </trkpt>
      <trkpt lat="48.70359" lon="1.76618">
        <ele>193.42654</ele>
        <time>2014-07-27T14:20:38Z</time>
      </trkpt>
      <trkpt lat="48.70359" lon="1.7662">
        <ele>193.42654</ele>
        <time>2014-07-27T14:20:41Z</time>
      </trkpt>
      <trkpt lat="48.70358" lon="1.76618">
        <ele>193.42654</ele>
        <time>2014-07-27T14:20:47Z</time>
      </trkpt>
      <trkpt lat="48.70359" lon="1.76619">
        <ele>193.42654</ele>
        <time>2014-07-27T14:20:50Z</time>
      </trkpt>
      <trkpt lat="48.7037" lon="1.76627">
        <ele>191.33861</ele>
        <time>2014-07-27T14:21:02Z</time>
      </trkpt>
      <trkpt lat="48.70374" lon="1.76627">
        <ele>191.33861</ele>
        <time>2014-07-27T14:21:12Z</time>
      </trkpt>
      <trkpt lat="48.70376" lon="1.76627">
        <ele>191.33861</ele>
        <time>2014-07-27T14:21:17Z</time>
      </trkpt>
      <trkpt lat="48.70383" lon="1.76631">
        <ele>189.47807</ele>
        <time>2014-07-27T14:21:31Z</time>
      </trkpt>
      <trkpt lat="48.7039" lon="1.76631">
        <ele>189.47807</ele>
        <time>2014-07-27T14:21:38Z</time>
      </trkpt>
      <trkpt lat="48.70379" lon="1.76621">
        <ele>187.90627</ele>
        <time>2014-07-27T14:22:20Z</time>
      </trkpt>
      <trkpt lat="48.70366" lon="1.76619">
        <ele>186.53247</ele>
        <time>2014-07-27T14:22:26Z</time>
      </trkpt>
      <trkpt lat="48.70367" lon="1.76618">
        <ele>186.53247</ele>
        <time>2014-07-27T14:22:33Z</time>
      </trkpt>
      <trkpt lat="48.70376" lon="1.76618">
        <ele>185.36034</ele>
        <time>2014-07-27T14:22:36Z</time>
      </trkpt>
      <trkpt lat="48.70363" lon="1.76633">
        <ele>184.24695</ele>
        <time>2014-07-27T14:22:43Z</time>
      </trkpt>
      <trkpt lat="48.70358" lon="1.76645">
        <ele>183.23514</ele>
        <time>2014-07-27T14:22:46Z</time>
      </trkpt>
      <trkpt lat="48.70353" lon="1.76649">
        <ele>183.23514</ele>
        <time>2014-07-27T14:22:50Z</time>
      </trkpt>
      <trkpt lat="48.7034" lon="1.76662">
        <ele>182.17514</ele>
        <time>2014-07-27T14:22:58Z</time>
      </trkpt>
      <trkpt lat="48.70335" lon="1.76668">
        <ele>182.17514</ele>
        <time>2014-07-27T14:23:01Z</time>
      </trkpt>
      <trkpt lat="48.70333" lon="1.76673">
        <ele>181.03047</ele>
        <time>2014-07-27T14:23:08Z</time>
      </trkpt>
      <trkpt lat="48.7033" lon="1.76676">
        <ele>181.03047</ele>
        <time>2014-07-27T14:23:11Z</time>
      </trkpt>
      <trkpt lat="48.70326" lon="1.76684">
        <ele>179.92693</ele>
        <time>2014-07-27T14:23:16Z</time>
      </trkpt>
      <trkpt lat="48.70331" lon="1.76691">
        <ele>179.92693</ele>
        <time>2014-07-27T14:23:20Z</time>
      </trkpt>
      <trkpt lat="48.7034" lon="1.76702">
        <ele>178.86443</ele>
        <time>2014-07-27T14:23:28Z</time>
      </trkpt>
      <trkpt lat="48.7034" lon="1.76706">
        <ele>178.86443</ele>
        <time>2014-07-27T14:23:31Z</time>
      </trkpt>
      <trkpt lat="48.70339" lon="1.76713">
        <ele>178.86443</ele>
        <time>2014-07-27T14:23:37Z</time>
      </trkpt>
      <trkpt lat="48.70337" lon="1.76723">
        <ele>177.74147</ele>
        <time>2014-07-27T14:23:42Z</time>
      </trkpt>
      <trkpt lat="48.70339" lon="1.76732">
        <ele>177.74147</ele>
        <time>2014-07-27T14:23:47Z</time>
      </trkpt>
      <trkpt lat="48.70341" lon="1.76739">
        <ele>176.73886</ele>
        <time>2014-07-27T14:23:50Z</time>
      </trkpt>
      <trkpt lat="48.70341" lon="1.76751">
        <ele>176.73886</ele>
        <time>2014-07-27T14:23:57Z</time>
      </trkpt>
      <trkpt lat="48.70337" lon="1.76766">
        <ele>175.69098</ele>
        <time>2014-07-27T14:24:02Z</time>
      </trkpt>
      <trkpt lat="48.70335" lon="1.76779">
        <ele>174.53134</ele>
        <time>2014-07-27T14:24:07Z</time>
      </trkpt>
      <trkpt lat="48.70335" lon="1.7679">
        <ele>174.53134</ele>
        <time>2014-07-27T14:24:11Z</time>
      </trkpt>
      <trkpt lat="48.70333" lon="1.76798">
        <ele>173.29959</ele>
        <time>2014-07-27T14:24:17Z</time>
      </trkpt>
      <trkpt lat="48.70335" lon="1.7681">
        <ele>173.29959</ele>
        <time>2014-07-27T14:24:21Z</time>
      </trkpt>
      <trkpt lat="48.70337" lon="1.7682">
        <ele>172.07568</ele>
        <time>2014-07-27T14:24:25Z</time>
      </trkpt>
      <trkpt lat="48.70339" lon="1.76827">
        <ele>172.07568</ele>
        <time>2014-07-27T14:24:30Z</time>
      </trkpt>
      <trkpt lat="48.70342" lon="1.76841">
        <ele>170.73152</ele>
        <time>2014-07-27T14:24:37Z</time>
      </trkpt>
      <trkpt lat="48.70342" lon="1.76844">
        <ele>170.73152</ele>
        <time>2014-07-27T14:24:40Z</time>
      </trkpt>
      <trkpt lat="48.70339" lon="1.76861">
        <ele>169.50917</ele>
        <time>2014-07-27T14:24:47Z</time>
      </trkpt>
      <trkpt lat="48.7034" lon="1.76869">
        <ele>169.50917</ele>
        <time>2014-07-27T14:24:50Z</time>
      </trkpt>
      <trkpt lat="48.70341" lon="1.76879">
        <ele>168.344</ele>
        <time>2014-07-27T14:24:56Z</time>
      </trkpt>
      <trkpt lat="48.70341" lon="1.7689">
        <ele>168.344</ele>
        <time>2014-07-27T14:25:03Z</time>
      </trkpt>
      <trkpt lat="48.70338" lon="1.76899">
        <ele>167.07483</ele>
        <time>2014-07-27T14:25:06Z</time>
      </trkpt>
      <trkpt lat="48.70339" lon="1.76913">
        <ele>165.84096</ele>
        <time>2014-07-27T14:25:12Z</time>
      </trkpt>
      <trkpt lat="48.7034" lon="1.76924">
        <ele>165.84096</ele>
        <time>2014-07-27T14:25:16Z</time>
      </trkpt>
      <trkpt lat="48.70342" lon="1.76933">
        <ele>164.67023</ele>
        <time>2014-07-27T14:25:21Z</time>
      </trkpt>
      <trkpt lat="48.70342" lon="1.7694">
        <ele>164.67023</ele>
        <time>2014-07-27T14:25:25Z</time>
      </trkpt>
      <trkpt lat="48.70347" lon="1.76948">
        <ele>163.67465</ele>
        <time>2014-07-27T14:25:30Z</time>
      </trkpt>
      <trkpt lat="48.70347" lon="1.76958">
        <ele>163.67465</ele>
        <time>2014-07-27T14:25:35Z</time>
      </trkpt>
      <trkpt lat="48.70349" lon="1.76966">
        <ele>162.91417</ele>
        <time>2014-07-27T14:25:40Z</time>
      </trkpt>
      <trkpt lat="48.70345" lon="1.76975">
        <ele>162.91417</ele>
        <time>2014-07-27T14:25:45Z</time>
      </trkpt>
      <trkpt lat="48.70343" lon="1.76984">
        <ele>162.1263</ele>
        <time>2014-07-27T14:25:50Z</time>
      </trkpt>
      <trkpt lat="48.7034" lon="1.76996">
        <ele>162.1263</ele>
        <time>2014-07-27T14:25:58Z</time>
      </trkpt>
      <trkpt lat="48.70339" lon="1.77002">
        <ele>161.31296</ele>
        <time>2014-07-27T14:26:01Z</time>
      </trkpt>
      <trkpt lat="48.7034" lon="1.77012">
        <ele>161.31296</ele>
        <time>2014-07-27T14:26:08Z</time>
      </trkpt>
      <trkpt lat="48.70341" lon="1.77019">
        <ele>160.6345</ele>
        <time>2014-07-27T14:26:11Z</time>
      </trkpt>
      <trkpt lat="48.70343" lon="1.77033">
        <ele>159.9939</ele>
        <time>2014-07-27T14:26:18Z</time>
      </trkpt>
      <trkpt lat="48.70346" lon="1.77042">
        <ele>159.9939</ele>
        <time>2014-07-27T14:26:21Z</time>
      </trkpt>
      <trkpt lat="48.70348" lon="1.77057">
        <ele>159.38757</ele>
        <time>2014-07-27T14:26:28Z</time>
      </trkpt>
      <trkpt lat="48.70348" lon="1.77063">
        <ele>159.38757</ele>
        <time>2014-07-27T14:26:31Z</time>
      </trkpt>
      <trkpt lat="48.70351" lon="1.7707">
        <ele>158.92743</ele>
        <time>2014-07-27T14:26:36Z</time>
      </trkpt>
      <trkpt lat="48.70351" lon="1.7708">
        <ele>158.92743</ele>
        <time>2014-07-27T14:26:41Z</time>
      </trkpt>
      <trkpt lat="48.70349" lon="1.77086">
        <ele>158.57243</ele>
        <time>2014-07-27T14:26:45Z</time>
      </trkpt>
      <trkpt lat="48.70348" lon="1.77096">
        <ele>158.57243</ele>
        <time>2014-07-27T14:26:50Z</time>
      </trkpt>
      <trkpt lat="48.70349" lon="1.77112">
        <ele>158.42848</ele>
        <time>2014-07-27T14:26:57Z</time>
      </trkpt>
      <trkpt lat="48.70352" lon="1.7712">
        <ele>158.42848</ele>
        <time>2014-07-27T14:27:02Z</time>
      </trkpt>
      <trkpt lat="48.70356" lon="1.77129">
        <ele>158.6363</ele>
        <time>2014-07-27T14:27:07Z</time>
      </trkpt>
      <trkpt lat="48.70357" lon="1.77136">
        <ele>158.6363</ele>
        <time>2014-07-27T14:27:10Z</time>
      </trkpt>
      <trkpt lat="48.70357" lon="1.77148">
        <ele>158.97906</ele>
        <time>2014-07-27T14:27:15Z</time>
      </trkpt>
      <trkpt lat="48.70357" lon="1.77161">
        <ele>158.97906</ele>
        <time>2014-07-27T14:27:20Z</time>
      </trkpt>
      <trkpt lat="48.70358" lon="1.7717">
        <ele>159.41417</ele>
        <time>2014-07-27T14:27:25Z</time>
      </trkpt>
      <trkpt lat="48.70362" lon="1.77184">
        <ele>159.91628</ele>
        <time>2014-07-27T14:27:30Z</time>
      </trkpt>
      <trkpt lat="48.70362" lon="1.77197">
        <ele>159.91628</ele>
        <time>2014-07-27T14:27:35Z</time>
      </trkpt>
      <trkpt lat="48.70368" lon="1.77209">
        <ele>160.46175</ele>
        <time>2014-07-27T14:27:44Z</time>
      </trkpt>
      <trkpt lat="48.70368" lon="1.77211">
        <ele>160.46175</ele>
        <time>2014-07-27T14:27:45Z</time>
      </trkpt>
      <trkpt lat="48.70368" lon="1.7722">
        <ele>160.46175</ele>
        <time>2014-07-27T14:27:51Z</time>
      </trkpt>
      <trkpt lat="48.70368" lon="1.77233">
        <ele>161.10071</ele>
        <time>2014-07-27T14:27:58Z</time>
      </trkpt>
      <trkpt lat="48.70371" lon="1.77238">
        <ele>161.10071</ele>
        <time>2014-07-27T14:28:00Z</time>
      </trkpt>
      <trkpt lat="48.70375" lon="1.77255">
        <ele>161.82166</ele>
        <time>2014-07-27T14:28:08Z</time>
      </trkpt>
      <trkpt lat="48.70379" lon="1.77263">
        <ele>161.82166</ele>
        <time>2014-07-27T14:28:11Z</time>
      </trkpt>
      <trkpt lat="48.70378" lon="1.77276">
        <ele>162.54166</ele>
        <time>2014-07-27T14:28:18Z</time>
      </trkpt>
      <trkpt lat="48.70377" lon="1.77283">
        <ele>162.54166</ele>
        <time>2014-07-27T14:28:21Z</time>
      </trkpt>
      <trkpt lat="48.70374" lon="1.77291">
        <ele>163.27045</ele>
        <time>2014-07-27T14:28:28Z</time>
      </trkpt>
      <trkpt lat="48.70379" lon="1.77293">
        <ele>163.27045</ele>
        <time>2014-07-27T14:28:31Z</time>
      </trkpt>
      <trkpt lat="48.70381" lon="1.77299">
        <ele>163.97388</ele>
        <time>2014-07-27T14:28:38Z</time>
      </trkpt>
      <trkpt lat="48.70378" lon="1.77306">
        <ele>163.97388</ele>
        <time>2014-07-27T14:28:41Z</time>
      </trkpt>
      <trkpt lat="48.70375" lon="1.77316">
        <ele>164.69249</ele>
        <time>2014-07-27T14:28:47Z</time>
      </trkpt>
      <trkpt lat="48.70374" lon="1.77319">
        <ele>164.69249</ele>
        <time>2014-07-27T14:28:50Z</time>
      </trkpt>
      <trkpt lat="48.7037" lon="1.77339">
        <ele>165.44952</ele>
        <time>2014-07-27T14:28:58Z</time>
      </trkpt>
      <trkpt lat="48.70371" lon="1.77347">
        <ele>165.44952</ele>
        <time>2014-07-27T14:29:01Z</time>
      </trkpt>
      <trkpt lat="48.70368" lon="1.77356">
        <ele>166.2088</ele>
        <time>2014-07-27T14:29:08Z</time>
      </trkpt>
      <trkpt lat="48.70361" lon="1.77365">
        <ele>166.2088</ele>
        <time>2014-07-27T14:29:11Z</time>
      </trkpt>
      <trkpt lat="48.70355" lon="1.7737">
        <ele>166.95128</ele>
        <time>2014-07-27T14:29:17Z</time>
      </trkpt>
      <trkpt lat="48.70352" lon="1.77381">
        <ele>166.95128</ele>
        <time>2014-07-27T14:29:22Z</time>
      </trkpt>
      <trkpt lat="48.70347" lon="1.7739">
        <ele>167.67393</ele>
        <time>2014-07-27T14:29:26Z</time>
      </trkpt>
      <trkpt lat="48.70344" lon="1.77403">
        <ele>167.67393</ele>
        <time>2014-07-27T14:29:33Z</time>
      </trkpt>
      <trkpt lat="48.70344" lon="1.77413">
        <ele>168.44617</ele>
        <time>2014-07-27T14:29:36Z</time>
      </trkpt>
      <trkpt lat="48.70347" lon="1.77419">
        <ele>168.44617</ele>
        <time>2014-07-27T14:29:41Z</time>
      </trkpt>
      <trkpt lat="48.70351" lon="1.77431">
        <ele>169.26021</ele>
        <time>2014-07-27T14:29:47Z</time>
      </trkpt>
      <trkpt lat="48.70351" lon="1.77437">
        <ele>169.26021</ele>
        <time>2014-07-27T14:29:50Z</time>
      </trkpt>
      <trkpt lat="48.70358" lon="1.77456">
        <ele>170.06557</ele>
        <time>2014-07-27T14:29:58Z</time>
      </trkpt>
      <trkpt lat="48.70358" lon="1.77461">
        <ele>170.06557</ele>
        <time>2014-07-27T14:30:01Z</time>
      </trkpt>
      <trkpt lat="48.70359" lon="1.77462">
        <ele>170.06557</ele>
        <time>2014-07-27T14:30:08Z</time>
      </trkpt>
      <trkpt lat="48.70359" lon="1.7749">
        <ele>170.87329</ele>
        <time>2014-07-27T14:30:18Z</time>
      </trkpt>
      <trkpt lat="48.70352" lon="1.77505">
        <ele>171.6505</ele>
        <time>2014-07-27T14:30:21Z</time>
      </trkpt>
      <trkpt lat="48.70348" lon="1.77528">
        <ele>172.39575</ele>
        <time>2014-07-27T14:30:26Z</time>
      </trkpt>
      <trkpt lat="48.70343" lon="1.77566">
        <ele>173.12233</ele>
        <time>2014-07-27T14:30:33Z</time>
      </trkpt>
      <trkpt lat="48.70341" lon="1.77582">
        <ele>173.81392</ele>
        <time>2014-07-27T14:30:36Z</time>
      </trkpt>
      <trkpt lat="48.7035" lon="1.77618">
        <ele>174.49884</ele>
        <time>2014-07-27T14:30:43Z</time>
      </trkpt>
      <trkpt lat="48.70379" lon="1.7764">
        <ele>175.16026</ele>
        <time>2014-07-27T14:30:46Z</time>
      </trkpt>
      <trkpt lat="48.70385" lon="1.77651">
        <ele>175.76834</ele>
        <time>2014-07-27T14:30:51Z</time>
      </trkpt>
      <trkpt lat="48.70441" lon="1.77974">
        <ele>176.54076</ele>
        <time>2014-07-27T14:31:50Z</time>
      </trkpt>
      <trkpt lat="48.70459" lon="1.7802">
        <ele>177.26083</ele>
        <time>2014-07-27T14:32:06Z</time>
      </trkpt>
      <trkpt lat="48.70494" lon="1.78252">
        <ele>178.07404</ele>
        <time>2014-07-27T14:33:12Z</time>
      </trkpt>
      <trkpt lat="48.70491" lon="1.7825">
        <ele>178.07404</ele>
        <time>2014-07-27T14:33:17Z</time>
      </trkpt>
      <trkpt lat="48.70478" lon="1.78259">
        <ele>178.81232</ele>
        <time>2014-07-27T14:33:22Z</time>
      </trkpt>
      <trkpt lat="48.70479" lon="1.78275">
        <ele>179.46443</ele>
        <time>2014-07-27T14:33:27Z</time>
      </trkpt>
      <trkpt lat="48.70477" lon="1.78295">
        <ele>180.03474</ele>
        <time>2014-07-27T14:33:32Z</time>
      </trkpt>
      <trkpt lat="48.70479" lon="1.78305">
        <ele>180.03474</ele>
        <time>2014-07-27T14:33:37Z</time>
      </trkpt>
      <trkpt lat="48.70482" lon="1.78315">
        <ele>180.54204</ele>
        <time>2014-07-27T14:33:42Z</time>
      </trkpt>
      <trkpt lat="48.70482" lon="1.78322">
        <ele>180.54204</ele>
        <time>2014-07-27T14:33:47Z</time>
      </trkpt>
      <trkpt lat="48.70487" lon="1.78321">
        <ele>180.98958</ele>
        <time>2014-07-27T14:33:50Z</time>
      </trkpt>
      <trkpt lat="48.70477" lon="1.78321">
        <ele>181.38068</ele>
        <time>2014-07-27T14:33:55Z</time>
      </trkpt>
      <trkpt lat="48.70487" lon="1.78337">
        <ele>181.71867</ele>
        <time>2014-07-27T14:34:02Z</time>
      </trkpt>
      <trkpt lat="48.70489" lon="1.78353">
        <ele>181.9925</ele>
        <time>2014-07-27T14:34:07Z</time>
      </trkpt>
      <trkpt lat="48.70492" lon="1.78364">
        <ele>181.9925</ele>
        <time>2014-07-27T14:34:12Z</time>
      </trkpt>
      <trkpt lat="48.70494" lon="1.78377">
        <ele>182.20653</ele>
        <time>2014-07-27T14:34:17Z</time>
      </trkpt>
      <trkpt lat="48.70502" lon="1.78388">
        <ele>182.36513</ele>
        <time>2014-07-27T14:34:22Z</time>
      </trkpt>
      <trkpt lat="48.70519" lon="1.78403">
        <ele>182.45813</ele>
        <time>2014-07-27T14:34:27Z</time>
      </trkpt>
      <trkpt lat="48.70547" lon="1.78411">
        <ele>182.5052</ele>
        <time>2014-07-27T14:34:32Z</time>
      </trkpt>
      <trkpt lat="48.70544" lon="1.78421">
        <ele>182.5052</ele>
        <time>2014-07-27T14:34:37Z</time>
      </trkpt>
      <trkpt lat="48.70532" lon="1.78425">
        <ele>182.48154</ele>
        <time>2014-07-27T14:34:42Z</time>
      </trkpt>
      <trkpt lat="48.70518" lon="1.78435">
        <ele>182.42204</ele>
        <time>2014-07-27T14:34:47Z</time>
      </trkpt>
      <trkpt lat="48.70514" lon="1.78446">
        <ele>182.42204</ele>
        <time>2014-07-27T14:34:50Z</time>
      </trkpt>
      <trkpt lat="48.70514" lon="1.78476">
        <ele>182.31596</ele>
        <time>2014-07-27T14:34:58Z</time>
      </trkpt>
      <trkpt lat="48.70511" lon="1.78488">
        <ele>182.31596</ele>
        <time>2014-07-27T14:35:01Z</time>
      </trkpt>
      <trkpt lat="48.70522" lon="1.78499">
        <ele>182.16795</ele>
        <time>2014-07-27T14:35:08Z</time>
      </trkpt>
      <trkpt lat="48.70526" lon="1.78511">
        <ele>182.16795</ele>
        <time>2014-07-27T14:35:11Z</time>
      </trkpt>
      <trkpt lat="48.70533" lon="1.78525">
        <ele>181.98245</ele>
        <time>2014-07-27T14:35:17Z</time>
      </trkpt>
      <trkpt lat="48.70531" lon="1.78531">
        <ele>181.98245</ele>
        <time>2014-07-27T14:35:22Z</time>
      </trkpt>
      <trkpt lat="48.70532" lon="1.78544">
        <ele>181.79254</ele>
        <time>2014-07-27T14:35:26Z</time>
      </trkpt>
      <trkpt lat="48.70529" lon="1.78565">
        <ele>181.57124</ele>
        <time>2014-07-27T14:35:32Z</time>
      </trkpt>
      <trkpt lat="48.70527" lon="1.78568">
        <ele>181.57124</ele>
        <time>2014-07-27T14:35:37Z</time>
      </trkpt>
      <trkpt lat="48.70517" lon="1.78577">
        <ele>181.33694</ele>
        <time>2014-07-27T14:35:41Z</time>
      </trkpt>
      <trkpt lat="48.70522" lon="1.78598">
        <ele>181.06346</ele>
        <time>2014-07-27T14:35:47Z</time>
      </trkpt>
      <trkpt lat="48.70526" lon="1.78596">
        <ele>181.06346</ele>
        <time>2014-07-27T14:35:50Z</time>
      </trkpt>
      <trkpt lat="48.70528" lon="1.78592">
        <ele>181.06346</ele>
        <time>2014-07-27T14:35:55Z</time>
      </trkpt>
      <trkpt lat="48.70514" lon="1.78587">
        <ele>180.72664</ele>
        <time>2014-07-27T14:36:02Z</time>
      </trkpt>
      <trkpt lat="48.70513" lon="1.78583">
        <ele>180.72664</ele>
        <time>2014-07-27T14:36:07Z</time>
      </trkpt>
      <trkpt lat="48.70512" lon="1.78581">
        <ele>180.72664</ele>
        <time>2014-07-27T14:36:12Z</time>
      </trkpt>
      <trkpt lat="48.70505" lon="1.7858">
        <ele>180.31871</ele>
        <time>2014-07-27T14:36:16Z</time>
      </trkpt>
      <trkpt lat="48.70504" lon="1.78582">
        <ele>180.31871</ele>
        <time>2014-07-27T14:36:20Z</time>
      </trkpt>
      <trkpt lat="48.70483" lon="1.78581">
        <ele>179.89032</ele>
        <time>2014-07-27T14:36:25Z</time>
      </trkpt>
      <trkpt lat="48.70473" lon="1.78567">
        <ele>179.45956</ele>
        <time>2014-07-27T14:36:32Z</time>
      </trkpt>
      <trkpt lat="48.70458" lon="1.78562">
        <ele>179.01445</ele>
        <time>2014-07-27T14:36:36Z</time>
      </trkpt>
      <trkpt lat="48.70447" lon="1.78562">
        <ele>178.54381</ele>
        <time>2014-07-27T14:36:42Z</time>
      </trkpt>
      <trkpt lat="48.7044" lon="1.78565">
        <ele>178.54381</ele>
        <time>2014-07-27T14:36:47Z</time>
      </trkpt>
      <trkpt lat="48.70436" lon="1.78571">
        <ele>178.05179</ele>
        <time>2014-07-27T14:36:50Z</time>
      </trkpt>
      <trkpt lat="48.70434" lon="1.78576">
        <ele>178.05179</ele>
        <time>2014-07-27T14:36:57Z</time>
      </trkpt>
      <trkpt lat="48.70423" lon="1.78579">
        <ele>177.55667</ele>
        <time>2014-07-27T14:37:02Z</time>
      </trkpt>
      <trkpt lat="48.70403" lon="1.78571">
        <ele>177.07535</ele>
        <time>2014-07-27T14:37:06Z</time>
      </trkpt>
      <trkpt lat="48.70391" lon="1.78562">
        <ele>176.60898</ele>
        <time>2014-07-27T14:37:12Z</time>
      </trkpt>
      <trkpt lat="48.70386" lon="1.78558">
        <ele>176.60898</ele>
        <time>2014-07-27T14:37:17Z</time>
      </trkpt>
      <trkpt lat="48.70376" lon="1.78559">
        <ele>176.15857</ele>
        <time>2014-07-27T14:37:20Z</time>
      </trkpt>
      <trkpt lat="48.70365" lon="1.78562">
        <ele>175.73936</ele>
        <time>2014-07-27T14:37:27Z</time>
      </trkpt>
      <trkpt lat="48.70358" lon="1.78567">
        <ele>175.73936</ele>
        <time>2014-07-27T14:37:32Z</time>
      </trkpt>
      <trkpt lat="48.70345" lon="1.78566">
        <ele>175.36533</ele>
        <time>2014-07-27T14:37:37Z</time>
      </trkpt>
      <trkpt lat="48.70337" lon="1.78564">
        <ele>175.36533</ele>
        <time>2014-07-27T14:37:41Z</time>
      </trkpt>
      <trkpt lat="48.70336" lon="1.78561">
        <ele>175.04924</ele>
        <time>2014-07-27T14:37:46Z</time>
      </trkpt>
      <trkpt lat="48.70335" lon="1.78557">
        <ele>175.04924</ele>
        <time>2014-07-27T14:37:50Z</time>
      </trkpt>
      <trkpt lat="48.70335" lon="1.78558">
        <ele>175.04924</ele>
        <time>2014-07-27T14:37:58Z</time>
      </trkpt>
      <trkpt lat="48.70339" lon="1.78561">
        <ele>175.04924</ele>
        <time>2014-07-27T14:38:01Z</time>
      </trkpt>
      <trkpt lat="48.70353" lon="1.78568">
        <ele>174.74509</ele>
        <time>2014-07-27T14:38:08Z</time>
      </trkpt>
      <trkpt lat="48.7036" lon="1.78573">
        <ele>174.74509</ele>
        <time>2014-07-27T14:38:11Z</time>
      </trkpt>
      <trkpt lat="48.7038" lon="1.78586">
        <ele>174.46777</ele>
        <time>2014-07-27T14:38:17Z</time>
      </trkpt>
      <trkpt lat="48.70389" lon="1.78598">
        <ele>174.231</ele>
        <time>2014-07-27T14:38:22Z</time>
      </trkpt>
      <trkpt lat="48.70402" lon="1.7861">
        <ele>174.01846</ele>
        <time>2014-07-27T14:38:27Z</time>
      </trkpt>
      <trkpt lat="48.70412" lon="1.78611">
        <ele>173.84375</ele>
        <time>2014-07-27T14:38:31Z</time>
      </trkpt>
      <trkpt lat="48.70488" lon="1.78535">
        <ele>173.74812</ele>
        <time>2014-07-27T14:38:58Z</time>
      </trkpt>
      <trkpt lat="48.70498" lon="1.78526">
        <ele>173.68307</ele>
        <time>2014-07-27T14:39:01Z</time>
      </trkpt>
      <trkpt lat="48.70501" lon="1.78487">
        <ele>173.67558</ele>
        <time>2014-07-27T14:39:07Z</time>
      </trkpt>
      <trkpt lat="48.70498" lon="1.78468">
        <ele>173.72163</ele>
        <time>2014-07-27T14:39:12Z</time>
      </trkpt>
      <trkpt lat="48.70498" lon="1.78443">
        <ele>173.83168</ele>
        <time>2014-07-27T14:39:17Z</time>
      </trkpt>
      <trkpt lat="48.70496" lon="1.78417">
        <ele>174.00081</ele>
        <time>2014-07-27T14:39:21Z</time>
      </trkpt>
      <trkpt lat="48.70487" lon="1.78383">
        <ele>174.20987</ele>
        <time>2014-07-27T14:39:27Z</time>
      </trkpt>
      <trkpt lat="48.70485" lon="1.78359">
        <ele>174.44095</ele>
        <time>2014-07-27T14:39:31Z</time>
      </trkpt>
      <trkpt lat="48.7048" lon="1.78328">
        <ele>174.735</ele>
        <time>2014-07-27T14:39:37Z</time>
      </trkpt>
      <trkpt lat="48.70472" lon="1.783">
        <ele>175.07216</ele>
        <time>2014-07-27T14:39:42Z</time>
      </trkpt>
      <trkpt lat="48.7047" lon="1.78279">
        <ele>175.43384</ele>
        <time>2014-07-27T14:39:47Z</time>
      </trkpt>
      <trkpt lat="48.70471" lon="1.78255">
        <ele>175.80276</ele>
        <time>2014-07-27T14:39:50Z</time>
      </trkpt>
      <trkpt lat="48.70468" lon="1.78223">
        <ele>176.2061</ele>
        <time>2014-07-27T14:39:56Z</time>
      </trkpt>
      <trkpt lat="48.70464" lon="1.78202">
        <ele>176.64015</ele>
        <time>2014-07-27T14:40:03Z</time>
      </trkpt>
      <trkpt lat="48.70462" lon="1.78198">
        <ele>176.64015</ele>
        <time>2014-07-27T14:40:06Z</time>
      </trkpt>
      <trkpt lat="48.70463" lon="1.78192">
        <ele>176.64015</ele>
        <time>2014-07-27T14:40:13Z</time>
      </trkpt>
      <trkpt lat="48.70465" lon="1.782">
        <ele>177.10132</ele>
        <time>2014-07-27T14:40:16Z</time>
      </trkpt>
      <trkpt lat="48.70469" lon="1.7821">
        <ele>177.10132</ele>
        <time>2014-07-27T14:40:22Z</time>
      </trkpt>
      <trkpt lat="48.70471" lon="1.78215">
        <ele>177.55746</ele>
        <time>2014-07-27T14:40:26Z</time>
      </trkpt>
      <trkpt lat="48.70483" lon="1.78235">
        <ele>177.67612</ele>
        <time>2014-07-27T14:40:33Z</time>
      </trkpt>
      <trkpt lat="48.70489" lon="1.78252">
        <ele>177.69786</ele>
        <time>2014-07-27T14:40:36Z</time>
      </trkpt>
      <trkpt lat="48.70491" lon="1.78276">
        <ele>177.75938</ele>
        <time>2014-07-27T14:40:42Z</time>
      </trkpt>
      <trkpt lat="48.70496" lon="1.78296">
        <ele>177.87198</ele>
        <time>2014-07-27T14:40:47Z</time>
      </trkpt>
      <trkpt lat="48.70503" lon="1.78323">
        <ele>177.97388</ele>
        <time>2014-07-27T14:40:50Z</time>
      </trkpt>
      <trkpt lat="48.70514" lon="1.78358">
        <ele>178.15204</ele>
        <time>2014-07-27T14:40:57Z</time>
      </trkpt>
      <trkpt lat="48.70518" lon="1.78378">
        <ele>178.34268</ele>
        <time>2014-07-27T14:41:02Z</time>
      </trkpt>
      <trkpt lat="48.70523" lon="1.7842">
        <ele>178.51556</ele>
        <time>2014-07-27T14:41:07Z</time>
      </trkpt>
      <trkpt lat="48.70526" lon="1.78445">
        <ele>178.5562</ele>
        <time>2014-07-27T14:41:11Z</time>
      </trkpt>
      <trkpt lat="48.70528" lon="1.78475">
        <ele>178.61833</ele>
        <time>2014-07-27T14:41:18Z</time>
      </trkpt>
      <trkpt lat="48.70529" lon="1.78498">
        <ele>178.70023</ele>
        <time>2014-07-27T14:41:21Z</time>
      </trkpt>
      <trkpt lat="48.70529" lon="1.78526">
        <ele>178.87231</ele>
        <time>2014-07-27T14:41:27Z</time>
      </trkpt>
      <trkpt lat="48.70524" lon="1.78534">
        <ele>178.87231</ele>
        <time>2014-07-27T14:41:32Z</time>
      </trkpt>
      <trkpt lat="48.70515" lon="1.78538">
        <ele>178.91138</ele>
        <time>2014-07-27T14:41:37Z</time>
      </trkpt>
      <trkpt lat="48.7051" lon="1.78542">
        <ele>178.91138</ele>
        <time>2014-07-27T14:41:41Z</time>
      </trkpt>
      <trkpt lat="48.70494" lon="1.78545">
        <ele>178.91359</ele>
        <time>2014-07-27T14:41:47Z</time>
      </trkpt>
      <trkpt lat="48.7048" lon="1.78549">
        <ele>178.86734</ele>
        <time>2014-07-27T14:41:50Z</time>
      </trkpt>
      <trkpt lat="48.70444" lon="1.78558">
        <ele>178.8052</ele>
        <time>2014-07-27T14:41:58Z</time>
      </trkpt>
      <trkpt lat="48.70427" lon="1.78563">
        <ele>178.74306</ele>
        <time>2014-07-27T14:42:01Z</time>
      </trkpt>
      <trkpt lat="48.70401" lon="1.78564">
        <ele>178.70996</ele>
        <time>2014-07-27T14:42:08Z</time>
      </trkpt>
      <trkpt lat="48.70382" lon="1.78568">
        <ele>178.71841</ele>
        <time>2014-07-27T14:42:11Z</time>
      </trkpt>
      <trkpt lat="48.70357" lon="1.78566">
        <ele>178.76544</ele>
        <time>2014-07-27T14:42:18Z</time>
      </trkpt>
      <trkpt lat="48.70345" lon="1.78564">
        <ele>178.83377</ele>
        <time>2014-07-27T14:42:21Z</time>
      </trkpt>
      <trkpt lat="48.70324" lon="1.78556">
        <ele>178.9218</ele>
        <time>2014-07-27T14:42:26Z</time>
      </trkpt>
      <trkpt lat="48.70293" lon="1.78549">
        <ele>179.07114</ele>
        <time>2014-07-27T14:42:32Z</time>
      </trkpt>
      <trkpt lat="48.70269" lon="1.78541">
        <ele>179.24821</ele>
        <time>2014-07-27T14:42:37Z</time>
      </trkpt>
      <trkpt lat="48.70246" lon="1.78549">
        <ele>179.465</ele>
        <time>2014-07-27T14:42:42Z</time>
      </trkpt>
      <trkpt lat="48.70234" lon="1.78567">
        <ele>179.71812</ele>
        <time>2014-07-27T14:42:46Z</time>
      </trkpt>
      <trkpt lat="48.70243" lon="1.78578">
        <ele>180.00435</ele>
        <time>2014-07-27T14:42:51Z</time>
      </trkpt>
      <trkpt lat="48.70252" lon="1.78594">
        <ele>180.32059</ele>
        <time>2014-07-27T14:42:56Z</time>
      </trkpt>
      <trkpt lat="48.70257" lon="1.78605">
        <ele>180.32059</ele>
        <time>2014-07-27T14:43:02Z</time>
      </trkpt>
      <trkpt lat="48.70259" lon="1.7862">
        <ele>180.70712</ele>
        <time>2014-07-27T14:43:07Z</time>
      </trkpt>
      <trkpt lat="48.70255" lon="1.78643">
        <ele>181.10025</ele>
        <time>2014-07-27T14:43:11Z</time>
      </trkpt>
      <trkpt lat="48.70255" lon="1.78669">
        <ele>181.52737</ele>
        <time>2014-07-27T14:43:17Z</time>
      </trkpt>
      <trkpt lat="48.70254" lon="1.78683">
        <ele>181.95619</ele>
        <time>2014-07-27T14:43:21Z</time>
      </trkpt>
      <trkpt lat="48.70239" lon="1.78719">
        <ele>182.4288</ele>
        <time>2014-07-27T14:43:28Z</time>
      </trkpt>
      <trkpt lat="48.70237" lon="1.78735">
        <ele>182.89766</ele>
        <time>2014-07-27T14:43:31Z</time>
      </trkpt>
      <trkpt lat="48.7024" lon="1.78759">
        <ele>183.40521</ele>
        <time>2014-07-27T14:43:38Z</time>
      </trkpt>
      <trkpt lat="48.70242" lon="1.78768">
        <ele>183.40521</ele>
        <time>2014-07-27T14:43:41Z</time>
      </trkpt>
      <trkpt lat="48.70238" lon="1.7878">
        <ele>183.99069</ele>
        <time>2014-07-27T14:43:48Z</time>
      </trkpt>
      <trkpt lat="48.70242" lon="1.78786">
        <ele>183.99069</ele>
        <time>2014-07-27T14:43:50Z</time>
      </trkpt>
      <trkpt lat="48.70251" lon="1.78807">
        <ele>184.64703</ele>
        <time>2014-07-27T14:43:57Z</time>
      </trkpt>
      <trkpt lat="48.70251" lon="1.78815">
        <ele>184.64703</ele>
        <time>2014-07-27T14:44:01Z</time>
      </trkpt>
      <trkpt lat="48.70245" lon="1.78825">
        <ele>185.3675</ele>
        <time>2014-07-27T14:44:08Z</time>
      </trkpt>
      <trkpt lat="48.70246" lon="1.78832">
        <ele>185.3675</ele>
        <time>2014-07-27T14:44:11Z</time>
      </trkpt>
      <trkpt lat="48.70253" lon="1.78847">
        <ele>186.14572</ele>
        <time>2014-07-27T14:44:18Z</time>
      </trkpt>
      <trkpt lat="48.70253" lon="1.78855">
        <ele>186.14572</ele>
        <time>2014-07-27T14:44:21Z</time>
      </trkpt>
      <trkpt lat="48.70254" lon="1.78874">
        <ele>186.99007</ele>
        <time>2014-07-27T14:44:27Z</time>
      </trkpt>
      <trkpt lat="48.70254" lon="1.78881">
        <ele>186.99007</ele>
        <time>2014-07-27T14:44:31Z</time>
      </trkpt>
      <trkpt lat="48.70252" lon="1.78889">
        <ele>187.90811</ele>
        <time>2014-07-27T14:44:36Z</time>
      </trkpt>
      <trkpt lat="48.70258" lon="1.78894">
        <ele>187.90811</ele>
        <time>2014-07-27T14:44:43Z</time>
      </trkpt>
      <trkpt lat="48.70262" lon="1.78896">
        <ele>188.87793</ele>
        <time>2014-07-27T14:44:46Z</time>
      </trkpt>
      <trkpt lat="48.70263" lon="1.78909">
        <ele>188.87793</ele>
        <time>2014-07-27T14:44:51Z</time>
      </trkpt>
      <trkpt lat="48.70266" lon="1.78926">
        <ele>189.93674</ele>
        <time>2014-07-27T14:44:57Z</time>
      </trkpt>
      <trkpt lat="48.70266" lon="1.78946">
        <ele>190.97466</ele>
        <time>2014-07-27T14:45:02Z</time>
      </trkpt>
      <trkpt lat="48.70271" lon="1.78956">
        <ele>190.97466</ele>
        <time>2014-07-27T14:45:07Z</time>
      </trkpt>
      <trkpt lat="48.70276" lon="1.78968">
        <ele>192.0774</ele>
        <time>2014-07-27T14:45:12Z</time>
      </trkpt>
      <trkpt lat="48.70277" lon="1.78982">
        <ele>193.108</ele>
        <time>2014-07-27T14:45:16Z</time>
      </trkpt>
      <trkpt lat="48.70273" lon="1.78996">
        <ele>194.12727</ele>
        <time>2014-07-27T14:45:22Z</time>
      </trkpt>
      <trkpt lat="48.70272" lon="1.79005">
        <ele>194.12727</ele>
        <time>2014-07-27T14:45:26Z</time>
      </trkpt>
      <trkpt lat="48.70269" lon="1.79021">
        <ele>195.19153</ele>
        <time>2014-07-27T14:45:32Z</time>
      </trkpt>
      <trkpt lat="48.70266" lon="1.79031">
        <ele>195.19153</ele>
        <time>2014-07-27T14:45:37Z</time>
      </trkpt>
      <trkpt lat="48.70261" lon="1.79041">
        <ele>196.30974</ele>
        <time>2014-07-27T14:45:41Z</time>
      </trkpt>
      <trkpt lat="48.7026" lon="1.79042">
        <ele>196.30974</ele>
        <time>2014-07-27T14:45:47Z</time>
      </trkpt>
      <trkpt lat="48.70263" lon="1.79044">
        <ele>196.30974</ele>
        <time>2014-07-27T14:45:50Z</time>
      </trkpt>
      <trkpt lat="48.70259" lon="1.7905">
        <ele>197.60536</ele>
        <time>2014-07-27T14:45:57Z</time>
      </trkpt>
      <trkpt lat="48.70268" lon="1.79054">
        <ele>198.81769</ele>
        <time>2014-07-27T14:46:01Z</time>
      </trkpt>
      <trkpt lat="48.70272" lon="1.79065">
        <ele>198.81769</ele>
        <time>2014-07-27T14:46:07Z</time>
      </trkpt>
      <trkpt lat="48.70271" lon="1.79078">
        <ele>200.20984</ele>
        <time>2014-07-27T14:46:12Z</time>
      </trkpt>
      <trkpt lat="48.70269" lon="1.79098">
        <ele>201.53519</ele>
        <time>2014-07-27T14:46:16Z</time>
      </trkpt>
      <trkpt lat="48.70269" lon="1.7911">
        <ele>201.53519</ele>
        <time>2014-07-27T14:46:22Z</time>
      </trkpt>
      <trkpt lat="48.70263" lon="1.79117">
        <ele>202.79608</ele>
        <time>2014-07-27T14:46:27Z</time>
      </trkpt>
      <trkpt lat="48.70263" lon="1.79123">
        <ele>202.79608</ele>
        <time>2014-07-27T14:46:31Z</time>
      </trkpt>
      <trkpt lat="48.70267" lon="1.79137">
        <ele>203.95172</ele>
        <time>2014-07-27T14:46:38Z</time>
      </trkpt>
      <trkpt lat="48.70267" lon="1.79145">
        <ele>203.95172</ele>
        <time>2014-07-27T14:46:41Z</time>
      </trkpt>
      <trkpt lat="48.70265" lon="1.79149">
        <ele>203.95172</ele>
        <time>2014-07-27T14:46:47Z</time>
      </trkpt>
      <trkpt lat="48.70266" lon="1.79152">
        <ele>204.99345</ele>
        <time>2014-07-27T14:46:50Z</time>
      </trkpt>
      <trkpt lat="48.70267" lon="1.79165">
        <ele>204.99345</ele>
        <time>2014-07-27T14:46:57Z</time>
      </trkpt>
      <trkpt lat="48.70272" lon="1.79175">
        <ele>205.92812</ele>
        <time>2014-07-27T14:47:01Z</time>
      </trkpt>
      <trkpt lat="48.70269" lon="1.79192">
        <ele>206.7624</ele>
        <time>2014-07-27T14:47:06Z</time>
      </trkpt>
      <trkpt lat="48.70267" lon="1.79205">
        <ele>206.7624</ele>
        <time>2014-07-27T14:47:12Z</time>
      </trkpt>
      <trkpt lat="48.70268" lon="1.79213">
        <ele>207.60373</ele>
        <time>2014-07-27T14:47:17Z</time>
      </trkpt>
      <trkpt lat="48.70273" lon="1.79229">
        <ele>208.37877</ele>
        <time>2014-07-27T14:47:22Z</time>
      </trkpt>
      <trkpt lat="48.70277" lon="1.79236">
        <ele>208.37877</ele>
        <time>2014-07-27T14:47:27Z</time>
      </trkpt>
      <trkpt lat="48.70275" lon="1.79244">
        <ele>208.96216</ele>
        <time>2014-07-27T14:47:32Z</time>
      </trkpt>
      <trkpt lat="48.70267" lon="1.79247">
        <ele>208.96216</ele>
        <time>2014-07-27T14:47:36Z</time>
      </trkpt>
      <trkpt lat="48.70256" lon="1.7926">
        <ele>209.296</ele>
        <time>2014-07-27T14:47:43Z</time>
      </trkpt>
      <trkpt lat="48.70253" lon="1.79271">
        <ele>209.296</ele>
        <time>2014-07-27T14:47:46Z</time>
      </trkpt>
      <trkpt lat="48.70249" lon="1.79281">
        <ele>209.63007</ele>
        <time>2014-07-27T14:47:50Z</time>
      </trkpt>
      <trkpt lat="48.7024" lon="1.79283">
        <ele>209.97961</ele>
        <time>2014-07-27T14:47:58Z</time>
      </trkpt>
      <trkpt lat="48.70234" lon="1.79289">
        <ele>209.97961</ele>
        <time>2014-07-27T14:48:01Z</time>
      </trkpt>
      <trkpt lat="48.70221" lon="1.79297">
        <ele>210.40204</ele>
        <time>2014-07-27T14:48:07Z</time>
      </trkpt>
      <trkpt lat="48.70213" lon="1.79302">
        <ele>210.80627</ele>
        <time>2014-07-27T14:48:12Z</time>
      </trkpt>
      <trkpt lat="48.70207" lon="1.79308">
        <ele>210.80627</ele>
        <time>2014-07-27T14:48:17Z</time>
      </trkpt>
      <trkpt lat="48.70198" lon="1.79318">
        <ele>211.2809</ele>
        <time>2014-07-27T14:48:22Z</time>
      </trkpt>
      <trkpt lat="48.70195" lon="1.79323">
        <ele>211.2809</ele>
        <time>2014-07-27T14:48:26Z</time>
      </trkpt>
      <trkpt lat="48.7019" lon="1.79325">
        <ele>211.73494</ele>
        <time>2014-07-27T14:48:32Z</time>
      </trkpt>
      <trkpt lat="48.70183" lon="1.7933">
        <ele>211.73494</ele>
        <time>2014-07-27T14:48:36Z</time>
      </trkpt>
      <trkpt lat="48.70175" lon="1.79334">
        <ele>212.15622</ele>
        <time>2014-07-27T14:48:42Z</time>
      </trkpt>
      <trkpt lat="48.7017" lon="1.79335">
        <ele>212.15622</ele>
        <time>2014-07-27T14:48:47Z</time>
      </trkpt>
      <trkpt lat="48.70164" lon="1.79339">
        <ele>212.6056</ele>
        <time>2014-07-27T14:48:50Z</time>
      </trkpt>
      <trkpt lat="48.70149" lon="1.79356">
        <ele>213.05301</ele>
        <time>2014-07-27T14:48:58Z</time>
      </trkpt>
      <trkpt lat="48.70149" lon="1.79357">
        <ele>213.05301</ele>
        <time>2014-07-27T14:49:01Z</time>
      </trkpt>
      <trkpt lat="48.70141" lon="1.79368">
        <ele>213.36966</ele>
        <time>2014-07-27T14:49:08Z</time>
      </trkpt>
      <trkpt lat="48.70137" lon="1.79368">
        <ele>213.36966</ele>
        <time>2014-07-27T14:49:11Z</time>
      </trkpt>
      <trkpt lat="48.70129" lon="1.7938">
        <ele>213.53749</ele>
        <time>2014-07-27T14:49:18Z</time>
      </trkpt>
      <trkpt lat="48.70124" lon="1.79383">
        <ele>213.53749</ele>
        <time>2014-07-27T14:49:21Z</time>
      </trkpt>
      <trkpt lat="48.7012" lon="1.79391">
        <ele>213.65552</ele>
        <time>2014-07-27T14:49:27Z</time>
      </trkpt>
      <trkpt lat="48.70113" lon="1.79397">
        <ele>213.65552</ele>
        <time>2014-07-27T14:49:31Z</time>
      </trkpt>
      <trkpt lat="48.70103" lon="1.79404">
        <ele>213.82999</ele>
        <time>2014-07-27T14:49:36Z</time>
      </trkpt>
      <trkpt lat="48.70101" lon="1.79407">
        <ele>213.82999</ele>
        <time>2014-07-27T14:49:42Z</time>
      </trkpt>
      <trkpt lat="48.70092" lon="1.79422">
        <ele>214.07272</ele>
        <time>2014-07-27T14:49:47Z</time>
      </trkpt>
      <trkpt lat="48.70088" lon="1.79427">
        <ele>214.07272</ele>
        <time>2014-07-27T14:49:50Z</time>
      </trkpt>
      <trkpt lat="48.70078" lon="1.79442">
        <ele>214.23598</ele>
        <time>2014-07-27T14:49:57Z</time>
      </trkpt>
      <trkpt lat="48.70072" lon="1.79443">
        <ele>214.23598</ele>
        <time>2014-07-27T14:50:01Z</time>
      </trkpt>
      <trkpt lat="48.70064" lon="1.79453">
        <ele>214.41362</ele>
        <time>2014-07-27T14:50:07Z</time>
      </trkpt>
      <trkpt lat="48.70057" lon="1.79459">
        <ele>214.41362</ele>
        <time>2014-07-27T14:50:12Z</time>
      </trkpt>
      <trkpt lat="48.7004" lon="1.79464">
        <ele>214.43317</ele>
        <time>2014-07-27T14:50:16Z</time>
      </trkpt>
      <trkpt lat="48.7001" lon="1.79482">
        <ele>214.49554</ele>
        <time>2014-07-27T14:50:22Z</time>
      </trkpt>
      <trkpt lat="48.6999" lon="1.79498">
        <ele>214.55615</ele>
        <time>2014-07-27T14:50:27Z</time>
      </trkpt>
      <trkpt lat="48.69959" lon="1.79529">
        <ele>214.6457</ele>
        <time>2014-07-27T14:50:32Z</time>
      </trkpt>
      <trkpt lat="48.69937" lon="1.7955">
        <ele>214.74934</ele>
        <time>2014-07-27T14:50:36Z</time>
      </trkpt>
      <trkpt lat="48.699" lon="1.79575">
        <ele>214.89642</ele>
        <time>2014-07-27T14:50:43Z</time>
      </trkpt>
      <trkpt lat="48.69881" lon="1.79589">
        <ele>215.04196</ele>
        <time>2014-07-27T14:50:45Z</time>
      </trkpt>
      <trkpt lat="48.69849" lon="1.79616">
        <ele>215.2307</ele>
        <time>2014-07-27T14:50:50Z</time>
      </trkpt>
      <trkpt lat="48.69814" lon="1.7965">
        <ele>215.50394</ele>
        <time>2014-07-27T14:50:57Z</time>
      </trkpt>
      <trkpt lat="48.69781" lon="1.7969">
        <ele>215.87082</ele>
        <time>2014-07-27T14:51:02Z</time>
      </trkpt>
      <trkpt lat="48.69757" lon="1.79715">
        <ele>216.29631</ele>
        <time>2014-07-27T14:51:07Z</time>
      </trkpt>
      <trkpt lat="48.69736" lon="1.79734">
        <ele>216.77658</ele>
        <time>2014-07-27T14:51:12Z</time>
      </trkpt>
      <trkpt lat="48.69712" lon="1.79746">
        <ele>217.30785</ele>
        <time>2014-07-27T14:51:17Z</time>
      </trkpt>
      <trkpt lat="48.69689" lon="1.79761">
        <ele>217.90088</ele>
        <time>2014-07-27T14:51:22Z</time>
      </trkpt>
      <trkpt lat="48.69671" lon="1.7977">
        <ele>218.50777</ele>
        <time>2014-07-27T14:51:26Z</time>
      </trkpt>
      <trkpt lat="48.69651" lon="1.79782">
        <ele>219.12733</ele>
        <time>2014-07-27T14:51:31Z</time>
      </trkpt>
      <trkpt lat="48.69628" lon="1.79794">
        <ele>219.83043</ele>
        <time>2014-07-27T14:51:38Z</time>
      </trkpt>
      <trkpt lat="48.69619" lon="1.79801">
        <ele>220.53836</ele>
        <time>2014-07-27T14:51:40Z</time>
      </trkpt>
      <trkpt lat="48.69609" lon="1.79809">
        <ele>221.33672</ele>
        <time>2014-07-27T14:51:47Z</time>
      </trkpt>
      <trkpt lat="48.69607" lon="1.7982">
        <ele>221.33672</ele>
        <time>2014-07-27T14:51:50Z</time>
      </trkpt>
      <trkpt lat="48.69591" lon="1.79828">
        <ele>222.29007</ele>
        <time>2014-07-27T14:51:58Z</time>
      </trkpt>
      <trkpt lat="48.69586" lon="1.7983">
        <ele>222.29007</ele>
        <time>2014-07-27T14:52:01Z</time>
      </trkpt>
      <trkpt lat="48.69575" lon="1.79832">
        <ele>223.37138</ele>
        <time>2014-07-27T14:52:08Z</time>
      </trkpt>
      <trkpt lat="48.69571" lon="1.79829">
        <ele>223.37138</ele>
        <time>2014-07-27T14:52:10Z</time>
      </trkpt>
      <trkpt lat="48.6956" lon="1.79829">
        <ele>224.59845</ele>
        <time>2014-07-27T14:52:18Z</time>
      </trkpt>
      <trkpt lat="48.69555" lon="1.7983">
        <ele>224.59845</ele>
        <time>2014-07-27T14:52:20Z</time>
      </trkpt>
      <trkpt lat="48.69547" lon="1.79828">
        <ele>225.9441</ele>
        <time>2014-07-27T14:52:27Z</time>
      </trkpt>
      <trkpt lat="48.69545" lon="1.79825">
        <ele>225.9441</ele>
        <time>2014-07-27T14:52:31Z</time>
      </trkpt>
      <trkpt lat="48.69559" lon="1.79823">
        <ele>227.35403</ele>
        <time>2014-07-27T14:52:37Z</time>
      </trkpt>
      <trkpt lat="48.6955" lon="1.79821">
        <ele>227.35403</ele>
        <time>2014-07-27T14:52:42Z</time>
      </trkpt>
      <trkpt lat="48.69539" lon="1.7982">
        <ele>228.72012</ele>
        <time>2014-07-27T14:52:46Z</time>
      </trkpt>
      <trkpt lat="48.69529" lon="1.79823">
        <ele>229.98552</ele>
        <time>2014-07-27T14:52:50Z</time>
      </trkpt>
      <trkpt lat="48.69513" lon="1.79829">
        <ele>231.19878</ele>
        <time>2014-07-27T14:52:58Z</time>
      </trkpt>
      <trkpt lat="48.69505" lon="1.79832">
        <ele>231.19878</ele>
        <time>2014-07-27T14:53:01Z</time>
      </trkpt>
      <trkpt lat="48.69503" lon="1.79833">
        <ele>232.39062</ele>
        <time>2014-07-27T14:53:08Z</time>
      </trkpt>
      <trkpt lat="48.69499" lon="1.79834">
        <ele>232.39062</ele>
        <time>2014-07-27T14:53:11Z</time>
      </trkpt>
      <trkpt lat="48.69489" lon="1.7984">
        <ele>233.54639</ele>
        <time>2014-07-27T14:53:17Z</time>
      </trkpt>
      <trkpt lat="48.69485" lon="1.7984">
        <ele>233.54639</ele>
        <time>2014-07-27T14:53:20Z</time>
      </trkpt>
      <trkpt lat="48.69473" lon="1.7984">
        <ele>234.71027</ele>
        <time>2014-07-27T14:53:27Z</time>
      </trkpt>
      <trkpt lat="48.69466" lon="1.79852">
        <ele>235.77911</ele>
        <time>2014-07-27T14:53:31Z</time>
      </trkpt>
      <trkpt lat="48.69457" lon="1.79865">
        <ele>236.78732</ele>
        <time>2014-07-27T14:53:37Z</time>
      </trkpt>
      <trkpt lat="48.69453" lon="1.79861">
        <ele>236.78732</ele>
        <time>2014-07-27T14:53:42Z</time>
      </trkpt>
      <trkpt lat="48.69446" lon="1.79861">
        <ele>237.76704</ele>
        <time>2014-07-27T14:53:47Z</time>
      </trkpt>
      <trkpt lat="48.69438" lon="1.79861">
        <ele>237.76704</ele>
        <time>2014-07-27T14:53:50Z</time>
      </trkpt>
      <trkpt lat="48.69432" lon="1.79864">
        <ele>238.7337</ele>
        <time>2014-07-27T14:53:58Z</time>
      </trkpt>
      <trkpt lat="48.69426" lon="1.79868">
        <ele>238.7337</ele>
        <time>2014-07-27T14:54:01Z</time>
      </trkpt>
      <trkpt lat="48.69423" lon="1.79879">
        <ele>239.6585</ele>
        <time>2014-07-27T14:54:07Z</time>
      </trkpt>
      <trkpt lat="48.69424" lon="1.79881">
        <ele>239.6585</ele>
        <time>2014-07-27T14:54:11Z</time>
      </trkpt>
      <trkpt lat="48.69421" lon="1.79875">
        <ele>239.6585</ele>
        <time>2014-07-27T14:54:17Z</time>
      </trkpt>
      <trkpt lat="48.69419" lon="1.79881">
        <ele>240.58691</ele>
        <time>2014-07-27T14:54:21Z</time>
      </trkpt>
      <trkpt lat="48.69415" lon="1.79889">
        <ele>240.58691</ele>
        <time>2014-07-27T14:54:28Z</time>
      </trkpt>
      <trkpt lat="48.6941" lon="1.79895">
        <ele>241.43143</ele>
        <time>2014-07-27T14:54:31Z</time>
      </trkpt>
      <trkpt lat="48.69401" lon="1.79897">
        <ele>242.21211</ele>
        <time>2014-07-27T14:54:37Z</time>
      </trkpt>
      <trkpt lat="48.69391" lon="1.79898">
        <ele>242.91898</ele>
        <time>2014-07-27T14:54:41Z</time>
      </trkpt>
      <trkpt lat="48.69365" lon="1.79915">
        <ele>243.54295</ele>
        <time>2014-07-27T14:54:47Z</time>
      </trkpt>
      <trkpt lat="48.69369" lon="1.79918">
        <ele>243.54295</ele>
        <time>2014-07-27T14:54:50Z</time>
      </trkpt>
      <trkpt lat="48.69366" lon="1.79922">
        <ele>243.54295</ele>
        <time>2014-07-27T14:54:56Z</time>
      </trkpt>
      <trkpt lat="48.69361" lon="1.79924">
        <ele>244.19125</ele>
        <time>2014-07-27T14:55:03Z</time>
      </trkpt>
      <trkpt lat="48.69357" lon="1.79926">
        <ele>244.19125</ele>
        <time>2014-07-27T14:55:06Z</time>
      </trkpt>
      <trkpt lat="48.69349" lon="1.79929">
        <ele>244.79019</ele>
        <time>2014-07-27T14:55:12Z</time>
      </trkpt>
      <trkpt lat="48.69337" lon="1.79931">
        <ele>245.32936</ele>
        <time>2014-07-27T14:55:17Z</time>
      </trkpt>
      <trkpt lat="48.69328" lon="1.79931">
        <ele>245.32936</ele>
        <time>2014-07-27T14:55:20Z</time>
      </trkpt>
      <trkpt lat="48.69316" lon="1.79941">
        <ele>245.82806</ele>
        <time>2014-07-27T14:55:27Z</time>
      </trkpt>
      <trkpt lat="48.69311" lon="1.79955">
        <ele>246.26112</ele>
        <time>2014-07-27T14:55:31Z</time>
      </trkpt>
      <trkpt lat="48.69303" lon="1.79956">
        <ele>246.26112</ele>
        <time>2014-07-27T14:55:37Z</time>
      </trkpt>
      <trkpt lat="48.69294" lon="1.79957">
        <ele>246.69191</ele>
        <time>2014-07-27T14:55:42Z</time>
      </trkpt>
      <trkpt lat="48.69288" lon="1.79959">
        <ele>246.69191</ele>
        <time>2014-07-27T14:55:47Z</time>
      </trkpt>
      <trkpt lat="48.69279" lon="1.79969">
        <ele>247.10704</ele>
        <time>2014-07-27T14:55:50Z</time>
      </trkpt>
      <trkpt lat="48.69267" lon="1.7998">
        <ele>247.4654</ele>
        <time>2014-07-27T14:55:58Z</time>
      </trkpt>
      <trkpt lat="48.69261" lon="1.79986">
        <ele>247.4654</ele>
        <time>2014-07-27T14:56:01Z</time>
      </trkpt>
      <trkpt lat="48.69249" lon="1.79989">
        <ele>247.8443</ele>
        <time>2014-07-27T14:56:08Z</time>
      </trkpt>
      <trkpt lat="48.6924" lon="1.79986">
        <ele>247.8443</ele>
        <time>2014-07-27T14:56:11Z</time>
      </trkpt>
      <trkpt lat="48.69231" lon="1.79985">
        <ele>248.128</ele>
        <time>2014-07-27T14:56:17Z</time>
      </trkpt>
      <trkpt lat="48.69225" lon="1.79996">
        <ele>248.36807</ele>
        <time>2014-07-27T14:56:22Z</time>
      </trkpt>
      <trkpt lat="48.69223" lon="1.79993">
        <ele>248.36807</ele>
        <time>2014-07-27T14:56:27Z</time>
      </trkpt>
      <trkpt lat="48.6922" lon="1.7999">
        <ele>248.36807</ele>
        <time>2014-07-27T14:56:32Z</time>
      </trkpt>
      <trkpt lat="48.6921" lon="1.79999">
        <ele>248.64119</ele>
        <time>2014-07-27T14:56:36Z</time>
      </trkpt>
      <trkpt lat="48.69203" lon="1.80002">
        <ele>248.64119</ele>
        <time>2014-07-27T14:56:43Z</time>
      </trkpt>
      <trkpt lat="48.69198" lon="1.79999">
        <ele>248.91743</ele>
        <time>2014-07-27T14:56:46Z</time>
      </trkpt>
      <trkpt lat="48.69191" lon="1.7999">
        <ele>249.16908</ele>
        <time>2014-07-27T14:56:51Z</time>
      </trkpt>
      <trkpt lat="48.69185" lon="1.79985">
        <ele>249.16908</ele>
        <time>2014-07-27T14:56:57Z</time>
      </trkpt>
      <trkpt lat="48.69178" lon="1.79988">
        <ele>249.44254</ele>
        <time>2014-07-27T14:57:02Z</time>
      </trkpt>
      <trkpt lat="48.69171" lon="1.79991">
        <ele>249.44254</ele>
        <time>2014-07-27T14:57:06Z</time>
      </trkpt>
      <trkpt lat="48.6916" lon="1.80005">
        <ele>249.70866</ele>
        <time>2014-07-27T14:57:13Z</time>
      </trkpt>
      <trkpt lat="48.69154" lon="1.80016">
        <ele>249.94044</ele>
        <time>2014-07-27T14:57:16Z</time>
      </trkpt>
      <trkpt lat="48.69147" lon="1.80019">
        <ele>249.94044</ele>
        <time>2014-07-27T14:57:22Z</time>
      </trkpt>
      <trkpt lat="48.69141" lon="1.80023">
        <ele>250.1562</ele>
        <time>2014-07-27T14:57:26Z</time>
      </trkpt>
      <trkpt lat="48.69133" lon="1.8003">
        <ele>250.1562</ele>
        <time>2014-07-27T14:57:32Z</time>
      </trkpt>
      <trkpt lat="48.69127" lon="1.80038">
        <ele>250.35849</ele>
        <time>2014-07-27T14:57:37Z</time>
      </trkpt>
      <trkpt lat="48.69118" lon="1.80048">
        <ele>250.52086</ele>
        <time>2014-07-27T14:57:42Z</time>
      </trkpt>
      <trkpt lat="48.69113" lon="1.8006">
        <ele>250.66212</ele>
        <time>2014-07-27T14:57:47Z</time>
      </trkpt>
      <trkpt lat="48.69108" lon="1.80066">
        <ele>250.66212</ele>
        <time>2014-07-27T14:57:50Z</time>
      </trkpt>
      <trkpt lat="48.69101" lon="1.8007">
        <ele>250.79974</ele>
        <time>2014-07-27T14:57:56Z</time>
      </trkpt>
      <trkpt lat="48.69089" lon="1.80071">
        <ele>250.92105</ele>
        <time>2014-07-27T14:58:02Z</time>
      </trkpt>
      <trkpt lat="48.69081" lon="1.80073">
        <ele>250.92105</ele>
        <time>2014-07-27T14:58:07Z</time>
      </trkpt>
      <trkpt lat="48.69079" lon="1.80073">
        <ele>251.02872</ele>
        <time>2014-07-27T14:58:12Z</time>
      </trkpt>
      <trkpt lat="48.69063" lon="1.80077">
        <ele>251.13966</ele>
        <time>2014-07-27T14:58:17Z</time>
      </trkpt>
      <trkpt lat="48.69055" lon="1.80075">
        <ele>251.13966</ele>
        <time>2014-07-27T14:58:22Z</time>
      </trkpt>
      <trkpt lat="48.69045" lon="1.80075">
        <ele>251.2839</ele>
        <time>2014-07-27T14:58:27Z</time>
      </trkpt>
      <trkpt lat="48.69039" lon="1.80074">
        <ele>251.2839</ele>
        <time>2014-07-27T14:58:32Z</time>
      </trkpt>
      <trkpt lat="48.69035" lon="1.80079">
        <ele>251.41705</ele>
        <time>2014-07-27T14:58:37Z</time>
      </trkpt>
      <trkpt lat="48.69029" lon="1.8007">
        <ele>251.41705</ele>
        <time>2014-07-27T14:58:41Z</time>
      </trkpt>
      <trkpt lat="48.69021" lon="1.80077">
        <ele>251.54121</ele>
        <time>2014-07-27T14:58:47Z</time>
      </trkpt>
      <trkpt lat="48.69016" lon="1.80074">
        <ele>251.54121</ele>
        <time>2014-07-27T14:58:50Z</time>
      </trkpt>
      <trkpt lat="48.69004" lon="1.80086">
        <ele>251.65834</ele>
        <time>2014-07-27T14:58:57Z</time>
      </trkpt>
      <trkpt lat="48.68995" lon="1.80094">
        <ele>251.75577</ele>
        <time>2014-07-27T14:59:02Z</time>
      </trkpt>
      <trkpt lat="48.68989" lon="1.80099">
        <ele>251.75577</ele>
        <time>2014-07-27T14:59:06Z</time>
      </trkpt>
      <trkpt lat="48.68979" lon="1.80115">
        <ele>251.85063</ele>
        <time>2014-07-27T14:59:12Z</time>
      </trkpt>
      <trkpt lat="48.68975" lon="1.80107">
        <ele>251.85063</ele>
        <time>2014-07-27T14:59:17Z</time>
      </trkpt>
      <trkpt lat="48.68969" lon="1.80113">
        <ele>251.8723</ele>
        <time>2014-07-27T14:59:22Z</time>
      </trkpt>
      <trkpt lat="48.68965" lon="1.80124">
        <ele>251.8723</ele>
        <time>2014-07-27T14:59:26Z</time>
      </trkpt>
      <trkpt lat="48.68963" lon="1.8013">
        <ele>251.68341</ele>
        <time>2014-07-27T14:59:33Z</time>
      </trkpt>
      <trkpt lat="48.68962" lon="1.80319">
        <ele>249.74496</ele>
        <time>2014-07-27T15:01:12Z</time>
      </trkpt>
      <trkpt lat="48.68937" lon="1.80426">
        <ele>247.5469</ele>
        <time>2014-07-27T15:02:22Z</time>
      </trkpt>
      <trkpt lat="48.68937" lon="1.80429">
        <ele>247.5469</ele>
        <time>2014-07-27T15:02:26Z</time>
      </trkpt>
      <trkpt lat="48.68925" lon="1.80587">
        <ele>245.36073</ele>
        <time>2014-07-27T15:03:22Z</time>
      </trkpt>
      <trkpt lat="48.69087" lon="1.82038">
        <ele>238.66783</ele>
        <time>2014-07-27T15:14:50Z</time>
      </trkpt>
      <trkpt lat="48.6913" lon="1.8204">
        <ele>236.10547</ele>
        <time>2014-07-27T15:14:58Z</time>
      </trkpt>
      <trkpt lat="48.69148" lon="1.82051">
        <ele>233.68912</ele>
        <time>2014-07-27T15:15:01Z</time>
      </trkpt>
      <trkpt lat="48.69136" lon="1.82048">
        <ele>231.38678</ele>
        <time>2014-07-27T15:15:06Z</time>
      </trkpt>
      <trkpt lat="48.69146" lon="1.82051">
        <ele>229.03867</ele>
        <time>2014-07-27T15:15:12Z</time>
      </trkpt>
      <trkpt lat="48.69145" lon="1.8205">
        <ele>229.03867</ele>
        <time>2014-07-27T15:15:16Z</time>
      </trkpt>
      <trkpt lat="48.69153" lon="1.82052">
        <ele>226.45335</ele>
        <time>2014-07-27T15:15:22Z</time>
      </trkpt>
      <trkpt lat="48.69157" lon="1.82052">
        <ele>226.45335</ele>
        <time>2014-07-27T15:15:26Z</time>
      </trkpt>
      <trkpt lat="48.69158" lon="1.82052">
        <ele>226.45335</ele>
        <time>2014-07-27T15:15:32Z</time>
      </trkpt>
      <trkpt lat="48.69117" lon="1.82236">
        <ele>224.57811</ele>
        <time>2014-07-27T15:16:37Z</time>
      </trkpt>
      <trkpt lat="48.69115" lon="1.82237">
        <ele>224.57811</ele>
        <time>2014-07-27T15:16:41Z</time>
      </trkpt>
      <trkpt lat="48.69109" lon="1.82203">
        <ele>223.35165</ele>
        <time>2014-07-27T15:16:48Z</time>
      </trkpt>
      <trkpt lat="48.69114" lon="1.82198">
        <ele>223.35165</ele>
        <time>2014-07-27T15:16:50Z</time>
      </trkpt>
      <trkpt lat="48.69118" lon="1.82221">
        <ele>219.77534</ele>
        <time>2014-07-27T15:16:57Z</time>
      </trkpt>
      <trkpt lat="48.69116" lon="1.82244">
        <ele>215.50142</ele>
        <time>2014-07-27T15:17:02Z</time>
      </trkpt>
      <trkpt lat="48.69116" lon="1.82254">
        <ele>215.50142</ele>
        <time>2014-07-27T15:17:06Z</time>
      </trkpt>
      <trkpt lat="48.69116" lon="1.8227">
        <ele>211.12573</ele>
        <time>2014-07-27T15:17:13Z</time>
      </trkpt>
      <trkpt lat="48.69115" lon="1.82281">
        <ele>211.12573</ele>
        <time>2014-07-27T15:17:16Z</time>
      </trkpt>
      <trkpt lat="48.69121" lon="1.8228">
        <ele>206.86902</ele>
        <time>2014-07-27T15:17:22Z</time>
      </trkpt>
      <trkpt lat="48.69119" lon="1.82283">
        <ele>206.86902</ele>
        <time>2014-07-27T15:17:26Z</time>
      </trkpt>
      <trkpt lat="48.69105" lon="1.823">
        <ele>203.05049</ele>
        <time>2014-07-27T15:17:30Z</time>
      </trkpt>
      <trkpt lat="48.69096" lon="1.82319">
        <ele>199.54648</ele>
        <time>2014-07-27T15:17:37Z</time>
      </trkpt>
      <trkpt lat="48.69098" lon="1.82324">
        <ele>199.54648</ele>
        <time>2014-07-27T15:17:42Z</time>
      </trkpt>
      <trkpt lat="48.69101" lon="1.8232">
        <ele>199.54648</ele>
        <time>2014-07-27T15:17:47Z</time>
      </trkpt>
      <trkpt lat="48.69107" lon="1.82299">
        <ele>195.10281</ele>
        <time>2014-07-27T15:17:50Z</time>
      </trkpt>
      <trkpt lat="48.69119" lon="1.82311">
        <ele>190.86557</ele>
        <time>2014-07-27T15:17:58Z</time>
      </trkpt>
      <trkpt lat="48.69122" lon="1.82317">
        <ele>190.86557</ele>
        <time>2014-07-27T15:18:00Z</time>
      </trkpt>
      <trkpt lat="48.69143" lon="1.82334">
        <ele>186.887</ele>
        <time>2014-07-27T15:18:07Z</time>
      </trkpt>
      <trkpt lat="48.69153" lon="1.82342">
        <ele>183.28656</ele>
        <time>2014-07-27T15:18:12Z</time>
      </trkpt>
      <trkpt lat="48.69152" lon="1.82347">
        <ele>183.28656</ele>
        <time>2014-07-27T15:18:17Z</time>
      </trkpt>
      <trkpt lat="48.69148" lon="1.82353">
        <ele>180.04387</ele>
        <time>2014-07-27T15:18:21Z</time>
      </trkpt>
      <trkpt lat="48.69142" lon="1.82359">
        <ele>180.04387</ele>
        <time>2014-07-27T15:18:27Z</time>
      </trkpt>
      <trkpt lat="48.69138" lon="1.82368">
        <ele>177.1676</ele>
        <time>2014-07-27T15:18:31Z</time>
      </trkpt>
      <trkpt lat="48.69141" lon="1.82373">
        <ele>177.1676</ele>
        <time>2014-07-27T15:18:37Z</time>
      </trkpt>
      <trkpt lat="48.69143" lon="1.82378">
        <ele>177.1676</ele>
        <time>2014-07-27T15:18:41Z</time>
      </trkpt>
      <trkpt lat="48.69144" lon="1.82384">
        <ele>174.59238</ele>
        <time>2014-07-27T15:18:47Z</time>
      </trkpt>
      <trkpt lat="48.69153" lon="1.82389">
        <ele>172.34299</ele>
        <time>2014-07-27T15:18:50Z</time>
      </trkpt>
      <trkpt lat="48.69162" lon="1.82395">
        <ele>170.36917</ele>
        <time>2014-07-27T15:18:56Z</time>
      </trkpt>
      <trkpt lat="48.69177" lon="1.82411">
        <ele>168.58006</ele>
        <time>2014-07-27T15:19:02Z</time>
      </trkpt>
      <trkpt lat="48.69185" lon="1.82414">
        <ele>168.58006</ele>
        <time>2014-07-27T15:19:07Z</time>
      </trkpt>
      <trkpt lat="48.69192" lon="1.82423">
        <ele>166.80424</ele>
        <time>2014-07-27T15:19:11Z</time>
      </trkpt>
      <trkpt lat="48.69195" lon="1.82438">
        <ele>165.18532</ele>
        <time>2014-07-27T15:19:17Z</time>
      </trkpt>
      <trkpt lat="48.69198" lon="1.82446">
        <ele>165.18532</ele>
        <time>2014-07-27T15:19:22Z</time>
      </trkpt>
      <trkpt lat="48.69202" lon="1.82451">
        <ele>163.74031</ele>
        <time>2014-07-27T15:19:26Z</time>
      </trkpt>
      <trkpt lat="48.69214" lon="1.82463">
        <ele>162.54202</ele>
        <time>2014-07-27T15:19:32Z</time>
      </trkpt>
      <trkpt lat="48.69219" lon="1.82472">
        <ele>162.54202</ele>
        <time>2014-07-27T15:19:37Z</time>
      </trkpt>
      <trkpt lat="48.69227" lon="1.82479">
        <ele>161.55615</ele>
        <time>2014-07-27T15:19:41Z</time>
      </trkpt>
      <trkpt lat="48.69227" lon="1.82479">
        <ele>161.55615</ele>
        <time>2014-07-27T15:19:47Z</time>
      </trkpt>
      <trkpt lat="48.69217" lon="1.82503">
        <ele>160.79337</ele>
        <time>2014-07-27T15:20:16Z</time>
      </trkpt>
      <trkpt lat="48.69193" lon="1.82521">
        <ele>160.29163</ele>
        <time>2014-07-27T15:20:22Z</time>
      </trkpt>
      <trkpt lat="48.69196" lon="1.82535">
        <ele>160.01323</ele>
        <time>2014-07-27T15:20:26Z</time>
      </trkpt>
      <trkpt lat="48.69191" lon="1.82551">
        <ele>159.92245</ele>
        <time>2014-07-27T15:20:32Z</time>
      </trkpt>
      <trkpt lat="48.69189" lon="1.82581">
        <ele>160.00008</ele>
        <time>2014-07-27T15:20:37Z</time>
      </trkpt>
      <trkpt lat="48.69207" lon="1.82591">
        <ele>160.24213</ele>
        <time>2014-07-27T15:20:42Z</time>
      </trkpt>
      <trkpt lat="48.6921" lon="1.82597">
        <ele>160.24213</ele>
        <time>2014-07-27T15:20:46Z</time>
      </trkpt>
      <trkpt lat="48.69218" lon="1.82606">
        <ele>160.60126</ele>
        <time>2014-07-27T15:20:51Z</time>
      </trkpt>
      <trkpt lat="48.69228" lon="1.82611">
        <ele>161.06201</ele>
        <time>2014-07-27T15:20:58Z</time>
      </trkpt>
      <trkpt lat="48.6924" lon="1.82615">
        <ele>161.59544</ele>
        <time>2014-07-27T15:21:01Z</time>
      </trkpt>
      <trkpt lat="48.69247" lon="1.82634">
        <ele>162.18895</ele>
        <time>2014-07-27T15:21:07Z</time>
      </trkpt>
      <trkpt lat="48.69259" lon="1.82636">
        <ele>162.85956</ele>
        <time>2014-07-27T15:21:12Z</time>
      </trkpt>
      <trkpt lat="48.69262" lon="1.8264">
        <ele>162.85956</ele>
        <time>2014-07-27T15:21:17Z</time>
      </trkpt>
      <trkpt lat="48.6926" lon="1.82639">
        <ele>162.85956</ele>
        <time>2014-07-27T15:21:22Z</time>
      </trkpt>
      <trkpt lat="48.69262" lon="1.82636">
        <ele>162.85956</ele>
        <time>2014-07-27T15:21:26Z</time>
      </trkpt>
      <trkpt lat="48.69254" lon="1.82669">
        <ele>163.37791</ele>
        <time>2014-07-27T15:21:37Z</time>
      </trkpt>
      <trkpt lat="48.69249" lon="1.82689">
        <ele>163.92114</ele>
        <time>2014-07-27T15:21:42Z</time>
      </trkpt>
      <trkpt lat="48.69258" lon="1.8269">
        <ele>163.92114</ele>
        <time>2014-07-27T15:21:47Z</time>
      </trkpt>
      <trkpt lat="48.69263" lon="1.8269">
        <ele>164.48042</ele>
        <time>2014-07-27T15:21:50Z</time>
      </trkpt>
      <trkpt lat="48.69259" lon="1.82687">
        <ele>164.48042</ele>
        <time>2014-07-27T15:21:55Z</time>
      </trkpt>
      <trkpt lat="48.69267" lon="1.82696">
        <ele>165.04767</ele>
        <time>2014-07-27T15:22:03Z</time>
      </trkpt>
      <trkpt lat="48.69269" lon="1.82706">
        <ele>165.04767</ele>
        <time>2014-07-27T15:22:06Z</time>
      </trkpt>
      <trkpt lat="48.69271" lon="1.82716">
        <ele>165.64433</ele>
        <time>2014-07-27T15:22:13Z</time>
      </trkpt>
      <trkpt lat="48.69272" lon="1.82722">
        <ele>165.64433</ele>
        <time>2014-07-27T15:22:16Z</time>
      </trkpt>
      <trkpt lat="48.69274" lon="1.82734">
        <ele>166.24709</ele>
        <time>2014-07-27T15:22:21Z</time>
      </trkpt>
      <trkpt lat="48.6928" lon="1.82747">
        <ele>166.8777</ele>
        <time>2014-07-27T15:22:28Z</time>
      </trkpt>
      <trkpt lat="48.69285" lon="1.82752">
        <ele>166.8777</ele>
        <time>2014-07-27T15:22:31Z</time>
      </trkpt>
      <trkpt lat="48.69296" lon="1.82764">
        <ele>167.52759</ele>
        <time>2014-07-27T15:22:37Z</time>
      </trkpt>
      <trkpt lat="48.69299" lon="1.82774">
        <ele>167.52759</ele>
        <time>2014-07-27T15:22:42Z</time>
      </trkpt>
      <trkpt lat="48.69301" lon="1.8278">
        <ele>168.17451</ele>
        <time>2014-07-27T15:22:47Z</time>
      </trkpt>
      <trkpt lat="48.6931" lon="1.82783">
        <ele>168.17451</ele>
        <time>2014-07-27T15:22:50Z</time>
      </trkpt>
      <trkpt lat="48.69319" lon="1.82793">
        <ele>168.81242</ele>
        <time>2014-07-27T15:22:57Z</time>
      </trkpt>
      <trkpt lat="48.69326" lon="1.82804">
        <ele>169.4504</ele>
        <time>2014-07-27T15:23:01Z</time>
      </trkpt>
      <trkpt lat="48.69321" lon="1.82805">
        <ele>169.4504</ele>
        <time>2014-07-27T15:23:08Z</time>
      </trkpt>
      <trkpt lat="48.69322" lon="1.82811">
        <ele>170.09692</ele>
        <time>2014-07-27T15:23:10Z</time>
      </trkpt>
      <trkpt lat="48.69311" lon="1.82826">
        <ele>170.73132</ele>
        <time>2014-07-27T15:23:18Z</time>
      </trkpt>
      <trkpt lat="48.69306" lon="1.82826">
        <ele>170.73132</ele>
        <time>2014-07-27T15:23:20Z</time>
      </trkpt>
      <trkpt lat="48.69299" lon="1.82826">
        <ele>171.33458</ele>
        <time>2014-07-27T15:23:26Z</time>
      </trkpt>
      <trkpt lat="48.69298" lon="1.82833">
        <ele>171.33458</ele>
        <time>2014-07-27T15:23:31Z</time>
      </trkpt>
      <trkpt lat="48.69297" lon="1.8284">
        <ele>171.90378</ele>
        <time>2014-07-27T15:23:37Z</time>
      </trkpt>
      <trkpt lat="48.69305" lon="1.82835">
        <ele>172.45094</ele>
        <time>2014-07-27T15:23:42Z</time>
      </trkpt>
      <trkpt lat="48.69313" lon="1.8283">
        <ele>172.45094</ele>
        <time>2014-07-27T15:23:47Z</time>
      </trkpt>
      <trkpt lat="48.69314" lon="1.82825">
        <ele>172.97304</ele>
        <time>2014-07-27T15:23:50Z</time>
      </trkpt>
      <trkpt lat="48.69309" lon="1.82821">
        <ele>172.97304</ele>
        <time>2014-07-27T15:23:55Z</time>
      </trkpt>
      <trkpt lat="48.69311" lon="1.82818">
        <ele>172.97304</ele>
        <time>2014-07-27T15:24:01Z</time>
      </trkpt>
      <trkpt lat="48.6931" lon="1.82824">
        <ele>173.4675</ele>
        <time>2014-07-27T15:24:08Z</time>
      </trkpt>
      <trkpt lat="48.69305" lon="1.82822">
        <ele>173.4675</ele>
        <time>2014-07-27T15:24:18Z</time>
      </trkpt>
      <trkpt lat="48.693" lon="1.82823">
        <ele>173.93224</ele>
        <time>2014-07-27T15:24:28Z</time>
      </trkpt>
      <trkpt lat="48.69306" lon="1.82829">
        <ele>173.93224</ele>
        <time>2014-07-27T15:24:31Z</time>
      </trkpt>
      <trkpt lat="48.69307" lon="1.82831">
        <ele>174.36562</ele>
        <time>2014-07-27T15:24:38Z</time>
      </trkpt>
      <trkpt lat="48.69308" lon="1.82831">
        <ele>174.36562</ele>
        <time>2014-07-27T15:24:40Z</time>
      </trkpt>
      <trkpt lat="48.6931" lon="1.8284">
        <ele>174.36562</ele>
        <time>2014-07-27T15:24:46Z</time>
      </trkpt>
      <trkpt lat="48.69311" lon="1.82842">
        <ele>174.76631</ele>
        <time>2014-07-27T15:24:51Z</time>
      </trkpt>
      <trkpt lat="48.69313" lon="1.8289">
        <ele>173.63472</ele>
        <time>2014-07-27T15:25:17Z</time>
      </trkpt>
      <trkpt lat="48.69321" lon="1.82894">
        <ele>173.63472</ele>
        <time>2014-07-27T15:25:22Z</time>
      </trkpt>
      <trkpt lat="48.69328" lon="1.829">
        <ele>171.8339</ele>
        <time>2014-07-27T15:25:27Z</time>
      </trkpt>
      <trkpt lat="48.69344" lon="1.82905">
        <ele>170.2953</ele>
        <time>2014-07-27T15:25:31Z</time>
      </trkpt>
      <trkpt lat="48.69362" lon="1.82915">
        <ele>168.61317</ele>
        <time>2014-07-27T15:25:37Z</time>
      </trkpt>
      <trkpt lat="48.69371" lon="1.82916">
        <ele>167.11821</ele>
        <time>2014-07-27T15:25:41Z</time>
      </trkpt>
      <trkpt lat="48.69375" lon="1.82918">
        <ele>167.11821</ele>
        <time>2014-07-27T15:25:47Z</time>
      </trkpt>
      <trkpt lat="48.69425" lon="1.83078">
        <ele>166.76495</ele>
        <time>2014-07-27T15:27:06Z</time>
      </trkpt>
      <trkpt lat="48.69423" lon="1.83087">
        <ele>166.76495</ele>
        <time>2014-07-27T15:27:11Z</time>
      </trkpt>
      <trkpt lat="48.69421" lon="1.83094">
        <ele>165.40831</ele>
        <time>2014-07-27T15:27:18Z</time>
      </trkpt>
      <trkpt lat="48.69426" lon="1.83098">
        <ele>165.40831</ele>
        <time>2014-07-27T15:27:21Z</time>
      </trkpt>
      <trkpt lat="48.69421" lon="1.83105">
        <ele>163.96033</ele>
        <time>2014-07-27T15:27:28Z</time>
      </trkpt>
      <trkpt lat="48.69408" lon="1.83104">
        <ele>162.17113</ele>
        <time>2014-07-27T15:27:31Z</time>
      </trkpt>
      <trkpt lat="48.69396" lon="1.83082">
        <ele>160.35782</ele>
        <time>2014-07-27T15:27:38Z</time>
      </trkpt>
      <trkpt lat="48.69403" lon="1.83072">
        <ele>158.75668</ele>
        <time>2014-07-27T15:27:41Z</time>
      </trkpt>
      <trkpt lat="48.69395" lon="1.83156">
        <ele>157.39871</ele>
        <time>2014-07-27T15:27:56Z</time>
      </trkpt>
      <trkpt lat="48.69388" lon="1.83178">
        <ele>156.18228</ele>
        <time>2014-07-27T15:28:03Z</time>
      </trkpt>
      <trkpt lat="48.69388" lon="1.83189">
        <ele>156.18228</ele>
        <time>2014-07-27T15:28:06Z</time>
      </trkpt>
      <trkpt lat="48.69397" lon="1.832">
        <ele>155.05603</ele>
        <time>2014-07-27T15:28:12Z</time>
      </trkpt>
      <trkpt lat="48.69415" lon="1.83207">
        <ele>154.0442</ele>
        <time>2014-07-27T15:28:17Z</time>
      </trkpt>
      <trkpt lat="48.69435" lon="1.83213">
        <ele>153.1257</ele>
        <time>2014-07-27T15:28:21Z</time>
      </trkpt>
      <trkpt lat="48.69445" lon="1.83223">
        <ele>152.30951</ele>
        <time>2014-07-27T15:28:27Z</time>
      </trkpt>
      <trkpt lat="48.69455" lon="1.83231">
        <ele>151.61804</ele>
        <time>2014-07-27T15:28:31Z</time>
      </trkpt>
      <trkpt lat="48.69469" lon="1.83241">
        <ele>151.04292</ele>
        <time>2014-07-27T15:28:37Z</time>
      </trkpt>
      <trkpt lat="48.69471" lon="1.83255">
        <ele>150.54716</ele>
        <time>2014-07-27T15:28:41Z</time>
      </trkpt>
      <trkpt lat="48.69482" lon="1.83266">
        <ele>150.15395</ele>
        <time>2014-07-27T15:28:48Z</time>
      </trkpt>
      <trkpt lat="48.69479" lon="1.8327">
        <ele>150.15395</ele>
        <time>2014-07-27T15:28:50Z</time>
      </trkpt>
      <trkpt lat="48.69478" lon="1.83282">
        <ele>149.87</ele>
        <time>2014-07-27T15:28:57Z</time>
      </trkpt>
      <trkpt lat="48.69485" lon="1.8329">
        <ele>149.87</ele>
        <time>2014-07-27T15:29:02Z</time>
      </trkpt>
      <trkpt lat="48.69484" lon="1.83294">
        <ele>149.67242</ele>
        <time>2014-07-27T15:29:07Z</time>
      </trkpt>
      <trkpt lat="48.69485" lon="1.83298">
        <ele>149.67242</ele>
        <time>2014-07-27T15:29:12Z</time>
      </trkpt>
      <trkpt lat="48.69482" lon="1.83318">
        <ele>149.56857</ele>
        <time>2014-07-27T15:29:17Z</time>
      </trkpt>
      <trkpt lat="48.69478" lon="1.83331">
        <ele>149.56857</ele>
        <time>2014-07-27T15:29:22Z</time>
      </trkpt>
      <trkpt lat="48.69474" lon="1.83339">
        <ele>149.52176</ele>
        <time>2014-07-27T15:29:27Z</time>
      </trkpt>
      <trkpt lat="48.69478" lon="1.83353">
        <ele>149.51219</ele>
        <time>2014-07-27T15:29:32Z</time>
      </trkpt>
      <trkpt lat="48.695" lon="1.83362">
        <ele>149.5503</ele>
        <time>2014-07-27T15:29:37Z</time>
      </trkpt>
      <trkpt lat="48.69519" lon="1.8337">
        <ele>149.61676</ele>
        <time>2014-07-27T15:29:41Z</time>
      </trkpt>
      <trkpt lat="48.69525" lon="1.83378">
        <ele>149.61676</ele>
        <time>2014-07-27T15:29:48Z</time>
      </trkpt>
      <trkpt lat="48.69517" lon="1.8338">
        <ele>149.67918</ele>
        <time>2014-07-27T15:29:50Z</time>
      </trkpt>
      <trkpt lat="48.69493" lon="1.83394">
        <ele>149.73643</ele>
        <time>2014-07-27T15:29:56Z</time>
      </trkpt>
      <trkpt lat="48.6949" lon="1.83402">
        <ele>149.73643</ele>
        <time>2014-07-27T15:30:01Z</time>
      </trkpt>
      <trkpt lat="48.6949" lon="1.83409">
        <ele>149.80185</ele>
        <time>2014-07-27T15:30:05Z</time>
      </trkpt>
      <trkpt lat="48.69493" lon="1.83423">
        <ele>149.87341</ele>
        <time>2014-07-27T15:30:11Z</time>
      </trkpt>
      <trkpt lat="48.69504" lon="1.8344">
        <ele>149.97804</ele>
        <time>2014-07-27T15:30:17Z</time>
      </trkpt>
      <trkpt lat="48.69512" lon="1.8345">
        <ele>150.0974</ele>
        <time>2014-07-27T15:30:21Z</time>
      </trkpt>
      <trkpt lat="48.69518" lon="1.83463">
        <ele>150.21448</ele>
        <time>2014-07-27T15:30:27Z</time>
      </trkpt>
      <trkpt lat="48.69525" lon="1.83479">
        <ele>150.34235</ele>
        <time>2014-07-27T15:30:32Z</time>
      </trkpt>
      <trkpt lat="48.69526" lon="1.83488">
        <ele>150.34235</ele>
        <time>2014-07-27T15:30:37Z</time>
      </trkpt>
      <trkpt lat="48.6953" lon="1.83494">
        <ele>150.47874</ele>
        <time>2014-07-27T15:30:42Z</time>
      </trkpt>
      <trkpt lat="48.6953" lon="1.83507">
        <ele>150.47874</ele>
        <time>2014-07-27T15:30:47Z</time>
      </trkpt>
      <trkpt lat="48.69528" lon="1.8352">
        <ele>150.62155</ele>
        <time>2014-07-27T15:30:50Z</time>
      </trkpt>
      <trkpt lat="48.69538" lon="1.83525">
        <ele>150.76883</ele>
        <time>2014-07-27T15:30:58Z</time>
      </trkpt>
      <trkpt lat="48.6956" lon="1.83544">
        <ele>150.91882</ele>
        <time>2014-07-27T15:31:08Z</time>
      </trkpt>
      <trkpt lat="48.69559" lon="1.8355">
        <ele>150.91882</ele>
        <time>2014-07-27T15:31:11Z</time>
      </trkpt>
      <trkpt lat="48.69571" lon="1.83563">
        <ele>151.0699</ele>
        <time>2014-07-27T15:31:17Z</time>
      </trkpt>
      <trkpt lat="48.69568" lon="1.83571">
        <ele>151.0699</ele>
        <time>2014-07-27T15:31:21Z</time>
      </trkpt>
      <trkpt lat="48.69568" lon="1.83589">
        <ele>151.27827</ele>
        <time>2014-07-27T15:31:28Z</time>
      </trkpt>
      <trkpt lat="48.69565" lon="1.83595">
        <ele>151.27827</ele>
        <time>2014-07-27T15:31:31Z</time>
      </trkpt>
      <trkpt lat="48.69569" lon="1.83612">
        <ele>151.5094</ele>
        <time>2014-07-27T15:31:37Z</time>
      </trkpt>
      <trkpt lat="48.69568" lon="1.83621">
        <ele>151.5094</ele>
        <time>2014-07-27T15:31:41Z</time>
      </trkpt>
      <trkpt lat="48.69572" lon="1.83631">
        <ele>151.7601</ele>
        <time>2014-07-27T15:31:47Z</time>
      </trkpt>
      <trkpt lat="48.69574" lon="1.83637">
        <ele>151.7601</ele>
        <time>2014-07-27T15:31:50Z</time>
      </trkpt>
      <trkpt lat="48.6958" lon="1.8365">
        <ele>152.01299</ele>
        <time>2014-07-27T15:31:58Z</time>
      </trkpt>
      <trkpt lat="48.6958" lon="1.83655">
        <ele>152.01299</ele>
        <time>2014-07-27T15:32:01Z</time>
      </trkpt>
      <trkpt lat="48.69583" lon="1.83661">
        <ele>152.01299</ele>
        <time>2014-07-27T15:32:06Z</time>
      </trkpt>
      <trkpt lat="48.69583" lon="1.8367">
        <ele>152.252</ele>
        <time>2014-07-27T15:32:12Z</time>
      </trkpt>
      <trkpt lat="48.69581" lon="1.83676">
        <ele>152.252</ele>
        <time>2014-07-27T15:32:17Z</time>
      </trkpt>
      <trkpt lat="48.69576" lon="1.83681">
        <ele>152.47676</ele>
        <time>2014-07-27T15:32:21Z</time>
      </trkpt>
      <trkpt lat="48.69574" lon="1.83687">
        <ele>152.47676</ele>
        <time>2014-07-27T15:32:28Z</time>
      </trkpt>
      <trkpt lat="48.69576" lon="1.83691">
        <ele>152.47676</ele>
        <time>2014-07-27T15:32:31Z</time>
      </trkpt>
      <trkpt lat="48.69584" lon="1.83689">
        <ele>152.67256</ele>
        <time>2014-07-27T15:32:37Z</time>
      </trkpt>
      <trkpt lat="48.69584" lon="1.83698">
        <ele>152.67256</ele>
        <time>2014-07-27T15:32:41Z</time>
      </trkpt>
      <trkpt lat="48.69587" lon="1.8371">
        <ele>152.84036</ele>
        <time>2014-07-27T15:32:47Z</time>
      </trkpt>
      <trkpt lat="48.69582" lon="1.83716">
        <ele>152.84036</ele>
        <time>2014-07-27T15:32:50Z</time>
      </trkpt>
      <trkpt lat="48.69571" lon="1.8373">
        <ele>152.98112</ele>
        <time>2014-07-27T15:32:57Z</time>
      </trkpt>
      <trkpt lat="48.69579" lon="1.83739">
        <ele>153.0959</ele>
        <time>2014-07-27T15:33:02Z</time>
      </trkpt>
      <trkpt lat="48.69586" lon="1.83756">
        <ele>153.2002</ele>
        <time>2014-07-27T15:33:07Z</time>
      </trkpt>
      <trkpt lat="48.6959" lon="1.83771">
        <ele>153.2796</ele>
        <time>2014-07-27T15:33:12Z</time>
      </trkpt>
      <trkpt lat="48.69589" lon="1.83782">
        <ele>153.2796</ele>
        <time>2014-07-27T15:33:16Z</time>
      </trkpt>
      <trkpt lat="48.6959" lon="1.83799">
        <ele>153.33531</ele>
        <time>2014-07-27T15:33:22Z</time>
      </trkpt>
      <trkpt lat="48.69594" lon="1.83807">
        <ele>153.33531</ele>
        <time>2014-07-27T15:33:26Z</time>
      </trkpt>
      <trkpt lat="48.69599" lon="1.83817">
        <ele>153.36852</ele>
        <time>2014-07-27T15:33:32Z</time>
      </trkpt>
      <trkpt lat="48.69645" lon="1.83861">
        <ele>153.39488</ele>
        <time>2014-07-27T15:34:06Z</time>
      </trkpt>
      <trkpt lat="48.6965" lon="1.83868">
        <ele>153.39488</ele>
        <time>2014-07-27T15:34:11Z</time>
      </trkpt>
      <trkpt lat="48.69658" lon="1.83875">
        <ele>153.41452</ele>
        <time>2014-07-27T15:34:17Z</time>
      </trkpt>
      <trkpt lat="48.6966" lon="1.83882">
        <ele>153.41452</ele>
        <time>2014-07-27T15:34:21Z</time>
      </trkpt>
      <trkpt lat="48.69664" lon="1.83898">
        <ele>153.42761</ele>
        <time>2014-07-27T15:34:27Z</time>
      </trkpt>
      <trkpt lat="48.69664" lon="1.83904">
        <ele>153.42761</ele>
        <time>2014-07-27T15:34:32Z</time>
      </trkpt>
      <trkpt lat="48.69662" lon="1.83911">
        <ele>153.42761</ele>
        <time>2014-07-27T15:34:37Z</time>
      </trkpt>
      <trkpt lat="48.69673" lon="1.83913">
        <ele>153.40556</ele>
        <time>2014-07-27T15:34:42Z</time>
      </trkpt>
      <trkpt lat="48.69679" lon="1.83927">
        <ele>153.36523</ele>
        <time>2014-07-27T15:34:46Z</time>
      </trkpt>
      <trkpt lat="48.69676" lon="1.83932">
        <ele>153.36523</ele>
        <time>2014-07-27T15:34:51Z</time>
      </trkpt>
      <trkpt lat="48.69681" lon="1.83942">
        <ele>153.30792</ele>
        <time>2014-07-27T15:34:55Z</time>
      </trkpt>
      <trkpt lat="48.69684" lon="1.83952">
        <ele>153.30792</ele>
        <time>2014-07-27T15:35:02Z</time>
      </trkpt>
      <trkpt lat="48.69696" lon="1.83959">
        <ele>153.24931</ele>
        <time>2014-07-27T15:35:06Z</time>
      </trkpt>
      <trkpt lat="48.69712" lon="1.83966">
        <ele>153.17514</ele>
        <time>2014-07-27T15:35:13Z</time>
      </trkpt>
      <trkpt lat="48.69712" lon="1.83974">
        <ele>153.17514</ele>
        <time>2014-07-27T15:35:16Z</time>
      </trkpt>
      <trkpt lat="48.69725" lon="1.83986">
        <ele>153.10112</ele>
        <time>2014-07-27T15:35:22Z</time>
      </trkpt>
      <trkpt lat="48.69704" lon="1.83997">
        <ele>152.99854</ele>
        <time>2014-07-27T15:35:26Z</time>
      </trkpt>
      <trkpt lat="48.69694" lon="1.84006">
        <ele>152.8265</ele>
        <time>2014-07-27T15:35:32Z</time>
      </trkpt>
      <trkpt lat="48.69698" lon="1.84015">
        <ele>152.8265</ele>
        <time>2014-07-27T15:35:36Z</time>
      </trkpt>
      <trkpt lat="48.6971" lon="1.84023">
        <ele>152.61943</ele>
        <time>2014-07-27T15:35:42Z</time>
      </trkpt>
      <trkpt lat="48.69716" lon="1.84028">
        <ele>152.61943</ele>
        <time>2014-07-27T15:35:46Z</time>
      </trkpt>
      <trkpt lat="48.69718" lon="1.84036">
        <ele>152.40927</ele>
        <time>2014-07-27T15:35:51Z</time>
      </trkpt>
      <trkpt lat="48.69715" lon="1.84048">
        <ele>152.40927</ele>
        <time>2014-07-27T15:35:57Z</time>
      </trkpt>
      <trkpt lat="48.69715" lon="1.84054">
        <ele>152.22568</ele>
        <time>2014-07-27T15:36:02Z</time>
      </trkpt>
      <trkpt lat="48.69714" lon="1.84063">
        <ele>152.22568</ele>
        <time>2014-07-27T15:36:07Z</time>
      </trkpt>
      <trkpt lat="48.69716" lon="1.84076">
        <ele>152.08163</ele>
        <time>2014-07-27T15:36:12Z</time>
      </trkpt>
      <trkpt lat="48.69719" lon="1.84087">
        <ele>152.08163</ele>
        <time>2014-07-27T15:36:16Z</time>
      </trkpt>
      <trkpt lat="48.69726" lon="1.84104">
        <ele>151.8882</ele>
        <time>2014-07-27T15:36:22Z</time>
      </trkpt>
      <trkpt lat="48.69728" lon="1.84112">
        <ele>151.8882</ele>
        <time>2014-07-27T15:36:26Z</time>
      </trkpt>
      <trkpt lat="48.69726" lon="1.84122">
        <ele>151.6928</ele>
        <time>2014-07-27T15:36:32Z</time>
      </trkpt>
      <trkpt lat="48.69725" lon="1.84127">
        <ele>151.6928</ele>
        <time>2014-07-27T15:36:37Z</time>
      </trkpt>
      <trkpt lat="48.69721" lon="1.84139">
        <ele>151.49617</ele>
        <time>2014-07-27T15:36:42Z</time>
      </trkpt>
      <trkpt lat="48.69719" lon="1.84149">
        <ele>151.49617</ele>
        <time>2014-07-27T15:36:47Z</time>
      </trkpt>
      <trkpt lat="48.69716" lon="1.84157">
        <ele>151.28456</ele>
        <time>2014-07-27T15:36:50Z</time>
      </trkpt>
      <trkpt lat="48.69721" lon="1.84168">
        <ele>151.07413</ele>
        <time>2014-07-27T15:36:56Z</time>
      </trkpt>
      <trkpt lat="48.69731" lon="1.84181">
        <ele>150.86539</ele>
        <time>2014-07-27T15:37:01Z</time>
      </trkpt>
      <trkpt lat="48.69738" lon="1.84193">
        <ele>150.67323</ele>
        <time>2014-07-27T15:37:07Z</time>
      </trkpt>
      <trkpt lat="48.69738" lon="1.84202">
        <ele>150.67323</ele>
        <time>2014-07-27T15:37:11Z</time>
      </trkpt>
      <trkpt lat="48.69739" lon="1.8421">
        <ele>150.4682</ele>
        <time>2014-07-27T15:37:17Z</time>
      </trkpt>
      <trkpt lat="48.69741" lon="1.84215">
        <ele>150.4682</ele>
        <time>2014-07-27T15:37:20Z</time>
      </trkpt>
      <trkpt lat="48.69744" lon="1.84229">
        <ele>150.2518</ele>
        <time>2014-07-27T15:37:28Z</time>
      </trkpt>
      <trkpt lat="48.69746" lon="1.84232">
        <ele>150.2518</ele>
        <time>2014-07-27T15:37:31Z</time>
      </trkpt>
      <trkpt lat="48.6975" lon="1.84242">
        <ele>150.06874</ele>
        <time>2014-07-27T15:37:37Z</time>
      </trkpt>
      <trkpt lat="48.6975" lon="1.84251">
        <ele>150.06874</ele>
        <time>2014-07-27T15:37:41Z</time>
      </trkpt>
      <trkpt lat="48.69759" lon="1.84259">
        <ele>149.94588</ele>
        <time>2014-07-27T15:37:46Z</time>
      </trkpt>
      <trkpt lat="48.69764" lon="1.84267">
        <ele>149.94588</ele>
        <time>2014-07-27T15:37:50Z</time>
      </trkpt>
      <trkpt lat="48.69767" lon="1.8428">
        <ele>149.87912</ele>
        <time>2014-07-27T15:37:55Z</time>
      </trkpt>
      <trkpt lat="48.69772" lon="1.84292">
        <ele>149.89336</ele>
        <time>2014-07-27T15:38:03Z</time>
      </trkpt>
      <trkpt lat="48.69775" lon="1.84297">
        <ele>149.89336</ele>
        <time>2014-07-27T15:38:06Z</time>
      </trkpt>
      <trkpt lat="48.69773" lon="1.84307">
        <ele>149.96812</ele>
        <time>2014-07-27T15:38:13Z</time>
      </trkpt>
      <trkpt lat="48.69774" lon="1.84316">
        <ele>149.96812</ele>
        <time>2014-07-27T15:38:16Z</time>
      </trkpt>
      <trkpt lat="48.69773" lon="1.84332">
        <ele>150.09872</ele>
        <time>2014-07-27T15:38:22Z</time>
      </trkpt>
      <trkpt lat="48.69773" lon="1.84339">
        <ele>150.09872</ele>
        <time>2014-07-27T15:38:26Z</time>
      </trkpt>
      <trkpt lat="48.69775" lon="1.84356">
        <ele>150.30948</ele>
        <time>2014-07-27T15:38:32Z</time>
      </trkpt>
      <trkpt lat="48.6978" lon="1.84366">
        <ele>150.30948</ele>
        <time>2014-07-27T15:38:36Z</time>
      </trkpt>
      <trkpt lat="48.69784" lon="1.84383">
        <ele>150.55061</ele>
        <time>2014-07-27T15:38:42Z</time>
      </trkpt>
      <trkpt lat="48.69786" lon="1.84392">
        <ele>150.55061</ele>
        <time>2014-07-27T15:38:47Z</time>
      </trkpt>
      <trkpt lat="48.69788" lon="1.84401">
        <ele>150.83356</ele>
        <time>2014-07-27T15:38:50Z</time>
      </trkpt>
      <trkpt lat="48.69787" lon="1.84414">
        <ele>150.83356</ele>
        <time>2014-07-27T15:38:57Z</time>
      </trkpt>
      <trkpt lat="48.69787" lon="1.84423">
        <ele>151.13998</ele>
        <time>2014-07-27T15:39:01Z</time>
      </trkpt>
      <trkpt lat="48.69787" lon="1.84434">
        <ele>151.13998</ele>
        <time>2014-07-27T15:39:07Z</time>
      </trkpt>
      <trkpt lat="48.69787" lon="1.84441">
        <ele>151.43843</ele>
        <time>2014-07-27T15:39:11Z</time>
      </trkpt>
      <trkpt lat="48.69789" lon="1.8445">
        <ele>151.43843</ele>
        <time>2014-07-27T15:39:17Z</time>
      </trkpt>
      <trkpt lat="48.6979" lon="1.84463">
        <ele>151.71417</ele>
        <time>2014-07-27T15:39:22Z</time>
      </trkpt>
      <trkpt lat="48.69794" lon="1.84472">
        <ele>151.71417</ele>
        <time>2014-07-27T15:39:27Z</time>
      </trkpt>
      <trkpt lat="48.69798" lon="1.84485">
        <ele>151.95364</ele>
        <time>2014-07-27T15:39:32Z</time>
      </trkpt>
      <trkpt lat="48.698" lon="1.84502">
        <ele>152.1588</ele>
        <time>2014-07-27T15:39:37Z</time>
      </trkpt>
      <trkpt lat="48.69802" lon="1.84512">
        <ele>152.1588</ele>
        <time>2014-07-27T15:39:42Z</time>
      </trkpt>
      <trkpt lat="48.69803" lon="1.84518">
        <ele>152.31715</ele>
        <time>2014-07-27T15:39:47Z</time>
      </trkpt>
      <trkpt lat="48.69803" lon="1.84524">
        <ele>152.31715</ele>
        <time>2014-07-27T15:39:50Z</time>
      </trkpt>
      <trkpt lat="48.69803" lon="1.8454">
        <ele>152.43167</ele>
        <time>2014-07-27T15:39:57Z</time>
      </trkpt>
      <trkpt lat="48.69802" lon="1.8455">
        <ele>152.43167</ele>
        <time>2014-07-27T15:40:01Z</time>
      </trkpt>
      <trkpt lat="48.69802" lon="1.84563">
        <ele>152.53406</ele>
        <time>2014-07-27T15:40:07Z</time>
      </trkpt>
      <trkpt lat="48.69804" lon="1.84569">
        <ele>152.53406</ele>
        <time>2014-07-27T15:40:12Z</time>
      </trkpt>
      <trkpt lat="48.69805" lon="1.84582">
        <ele>152.59612</ele>
        <time>2014-07-27T15:40:17Z</time>
      </trkpt>
      <trkpt lat="48.69803" lon="1.84588">
        <ele>152.59612</ele>
        <time>2014-07-27T15:40:22Z</time>
      </trkpt>
      <trkpt lat="48.69816" lon="1.84595">
        <ele>152.64946</ele>
        <time>2014-07-27T15:40:27Z</time>
      </trkpt>
      <trkpt lat="48.69823" lon="1.84598">
        <ele>152.64946</ele>
        <time>2014-07-27T15:40:31Z</time>
      </trkpt>
      <trkpt lat="48.69836" lon="1.84603">
        <ele>152.69461</ele>
        <time>2014-07-27T15:40:37Z</time>
      </trkpt>
      <trkpt lat="48.69843" lon="1.84605">
        <ele>152.69461</ele>
        <time>2014-07-27T15:40:41Z</time>
      </trkpt>
      <trkpt lat="48.6985" lon="1.84609">
        <ele>152.73207</ele>
        <time>2014-07-27T15:40:46Z</time>
      </trkpt>
      <trkpt lat="48.69846" lon="1.84615">
        <ele>152.73207</ele>
        <time>2014-07-27T15:40:51Z</time>
      </trkpt>
      <trkpt lat="48.69847" lon="1.84624">
        <ele>152.8056</ele>
        <time>2014-07-27T15:40:56Z</time>
      </trkpt>
      <trkpt lat="48.69859" lon="1.84628">
        <ele>152.86916</ele>
        <time>2014-07-27T15:41:02Z</time>
      </trkpt>
      <trkpt lat="48.69862" lon="1.84632">
        <ele>152.86916</ele>
        <time>2014-07-27T15:41:07Z</time>
      </trkpt>
      <trkpt lat="48.69869" lon="1.84638">
        <ele>152.92336</ele>
        <time>2014-07-27T15:41:11Z</time>
      </trkpt>
      <trkpt lat="48.69872" lon="1.84647">
        <ele>152.92336</ele>
        <time>2014-07-27T15:41:16Z</time>
      </trkpt>
      <trkpt lat="48.69883" lon="1.84649">
        <ele>152.9544</ele>
        <time>2014-07-27T15:41:21Z</time>
      </trkpt>
      <trkpt lat="48.69891" lon="1.84653">
        <ele>152.9544</ele>
        <time>2014-07-27T15:41:26Z</time>
      </trkpt>
      <trkpt lat="48.69896" lon="1.84654">
        <ele>152.97842</ele>
        <time>2014-07-27T15:41:33Z</time>
      </trkpt>
      <trkpt lat="48.69899" lon="1.84655">
        <ele>152.97842</ele>
        <time>2014-07-27T15:41:36Z</time>
      </trkpt>
      <trkpt lat="48.6991" lon="1.84658">
        <ele>152.98152</ele>
        <time>2014-07-27T15:41:42Z</time>
      </trkpt>
      <trkpt lat="48.69913" lon="1.8466">
        <ele>152.98152</ele>
        <time>2014-07-27T15:41:47Z</time>
      </trkpt>
      <trkpt lat="48.69918" lon="1.84662">
        <ele>152.96533</ele>
        <time>2014-07-27T15:41:50Z</time>
      </trkpt>
      <trkpt lat="48.69931" lon="1.84665">
        <ele>152.94585</ele>
        <time>2014-07-27T15:41:57Z</time>
      </trkpt>
      <trkpt lat="48.69937" lon="1.8467">
        <ele>152.94585</ele>
        <time>2014-07-27T15:42:01Z</time>
      </trkpt>
      <trkpt lat="48.69944" lon="1.84677">
        <ele>152.88023</ele>
        <time>2014-07-27T15:42:07Z</time>
      </trkpt>
      <trkpt lat="48.6995" lon="1.84679">
        <ele>152.88023</ele>
        <time>2014-07-27T15:42:11Z</time>
      </trkpt>
      <trkpt lat="48.69963" lon="1.84691">
        <ele>152.77217</ele>
        <time>2014-07-27T15:42:17Z</time>
      </trkpt>
      <trkpt lat="48.69968" lon="1.84696">
        <ele>152.77217</ele>
        <time>2014-07-27T15:42:22Z</time>
      </trkpt>
      <trkpt lat="48.69976" lon="1.84704">
        <ele>152.6252</ele>
        <time>2014-07-27T15:42:27Z</time>
      </trkpt>
      <trkpt lat="48.69977" lon="1.84707">
        <ele>152.6252</ele>
        <time>2014-07-27T15:42:32Z</time>
      </trkpt>
      <trkpt lat="48.6998" lon="1.84714">
        <ele>152.6252</ele>
        <time>2014-07-27T15:42:36Z</time>
      </trkpt>
      <trkpt lat="48.69985" lon="1.84725">
        <ele>152.44273</ele>
        <time>2014-07-27T15:42:42Z</time>
      </trkpt>
      <trkpt lat="48.69989" lon="1.84736">
        <ele>152.44273</ele>
        <time>2014-07-27T15:42:46Z</time>
      </trkpt>
      <trkpt lat="48.69994" lon="1.84745">
        <ele>152.27122</ele>
        <time>2014-07-27T15:42:51Z</time>
      </trkpt>
      <trkpt lat="48.69998" lon="1.84753">
        <ele>152.27122</ele>
        <time>2014-07-27T15:42:56Z</time>
      </trkpt>
      <trkpt lat="48.7001" lon="1.84762">
        <ele>152.11046</ele>
        <time>2014-07-27T15:43:02Z</time>
      </trkpt>
      <trkpt lat="48.70017" lon="1.84765">
        <ele>152.11046</ele>
        <time>2014-07-27T15:43:07Z</time>
      </trkpt>
      <trkpt lat="48.70025" lon="1.84769">
        <ele>151.96024</ele>
        <time>2014-07-27T15:43:12Z</time>
      </trkpt>
      <trkpt lat="48.70033" lon="1.84773">
        <ele>151.96024</ele>
        <time>2014-07-27T15:43:17Z</time>
      </trkpt>
      <trkpt lat="48.7004" lon="1.8478">
        <ele>151.8059</ele>
        <time>2014-07-27T15:43:21Z</time>
      </trkpt>
      <trkpt lat="48.70049" lon="1.84782">
        <ele>151.66269</ele>
        <time>2014-07-27T15:43:26Z</time>
      </trkpt>
      <trkpt lat="48.70072" lon="1.84779">
        <ele>151.5591</ele>
        <time>2014-07-27T15:43:32Z</time>
      </trkpt>
      <trkpt lat="48.7008" lon="1.84776">
        <ele>151.5591</ele>
        <time>2014-07-27T15:43:36Z</time>
      </trkpt>
      <trkpt lat="48.70089" lon="1.84774">
        <ele>151.52144</ele>
        <time>2014-07-27T15:43:41Z</time>
      </trkpt>
      <trkpt lat="48.70101" lon="1.84763">
        <ele>151.53064</ele>
        <time>2014-07-27T15:43:47Z</time>
      </trkpt>
      <trkpt lat="48.70106" lon="1.84758">
        <ele>151.53064</ele>
        <time>2014-07-27T15:43:50Z</time>
      </trkpt>
      <trkpt lat="48.70112" lon="1.84747">
        <ele>151.52565</ele>
        <time>2014-07-27T15:43:56Z</time>
      </trkpt>
      <trkpt lat="48.70125" lon="1.84741">
        <ele>151.47878</ele>
        <time>2014-07-27T15:44:02Z</time>
      </trkpt>
      <trkpt lat="48.70133" lon="1.84738">
        <ele>151.47878</ele>
        <time>2014-07-27T15:44:06Z</time>
      </trkpt>
      <trkpt lat="48.70139" lon="1.84735">
        <ele>151.47975</ele>
        <time>2014-07-27T15:44:12Z</time>
      </trkpt>
      <trkpt lat="48.70144" lon="1.8473">
        <ele>151.47975</ele>
        <time>2014-07-27T15:44:16Z</time>
      </trkpt>
      <trkpt lat="48.70151" lon="1.84725">
        <ele>151.51068</ele>
        <time>2014-07-27T15:44:22Z</time>
      </trkpt>
      <trkpt lat="48.70157" lon="1.84722">
        <ele>151.51068</ele>
        <time>2014-07-27T15:44:26Z</time>
      </trkpt>
      <trkpt lat="48.70168" lon="1.84718">
        <ele>151.5261</ele>
        <time>2014-07-27T15:44:33Z</time>
      </trkpt>
      <trkpt lat="48.70177" lon="1.84721">
        <ele>151.55594</ele>
        <time>2014-07-27T15:44:36Z</time>
      </trkpt>
      <trkpt lat="48.7019" lon="1.84721">
        <ele>151.59912</ele>
        <time>2014-07-27T15:44:42Z</time>
      </trkpt>
      <trkpt lat="48.70197" lon="1.84717">
        <ele>151.59912</ele>
        <time>2014-07-27T15:44:46Z</time>
      </trkpt>
      <trkpt lat="48.70202" lon="1.84714">
        <ele>151.65453</ele>
        <time>2014-07-27T15:44:51Z</time>
      </trkpt>
      <trkpt lat="48.70209" lon="1.84713">
        <ele>151.65453</ele>
        <time>2014-07-27T15:44:56Z</time>
      </trkpt>
      <trkpt lat="48.70218" lon="1.84715">
        <ele>151.66351</ele>
        <time>2014-07-27T15:45:02Z</time>
      </trkpt>
      <trkpt lat="48.70218" lon="1.84698">
        <ele>151.77356</ele>
        <time>2014-07-27T15:45:07Z</time>
      </trkpt>
      <trkpt lat="48.70219" lon="1.8467">
        <ele>151.96255</ele>
        <time>2014-07-27T15:45:11Z</time>
      </trkpt>
      <trkpt lat="48.70226" lon="1.84657">
        <ele>152.25299</ele>
        <time>2014-07-27T15:45:17Z</time>
      </trkpt>
      <trkpt lat="48.70228" lon="1.84647">
        <ele>152.25299</ele>
        <time>2014-07-27T15:45:21Z</time>
      </trkpt>
      <trkpt lat="48.70237" lon="1.84644">
        <ele>152.6222</ele>
        <time>2014-07-27T15:45:27Z</time>
      </trkpt>
      <trkpt lat="48.70241" lon="1.84639">
        <ele>152.6222</ele>
        <time>2014-07-27T15:45:31Z</time>
      </trkpt>
      <trkpt lat="48.70246" lon="1.84627">
        <ele>153.03455</ele>
        <time>2014-07-27T15:45:37Z</time>
      </trkpt>
      <trkpt lat="48.70249" lon="1.8462">
        <ele>153.03455</ele>
        <time>2014-07-27T15:45:41Z</time>
      </trkpt>
      <trkpt lat="48.70252" lon="1.84606">
        <ele>153.50014</ele>
        <time>2014-07-27T15:45:47Z</time>
      </trkpt>
      <trkpt lat="48.70252" lon="1.84603">
        <ele>153.50014</ele>
        <time>2014-07-27T15:45:50Z</time>
      </trkpt>
      <trkpt lat="48.70264" lon="1.84587">
        <ele>153.97054</ele>
        <time>2014-07-27T15:45:57Z</time>
      </trkpt>
      <trkpt lat="48.70268" lon="1.8458">
        <ele>153.97054</ele>
        <time>2014-07-27T15:46:02Z</time>
      </trkpt>
      <trkpt lat="48.70271" lon="1.84573">
        <ele>154.50177</ele>
        <time>2014-07-27T15:46:07Z</time>
      </trkpt>
      <trkpt lat="48.70278" lon="1.84568">
        <ele>154.50177</ele>
        <time>2014-07-27T15:46:12Z</time>
      </trkpt>
      <trkpt lat="48.70285" lon="1.84563">
        <ele>155.10233</ele>
        <time>2014-07-27T15:46:16Z</time>
      </trkpt>
      <trkpt lat="48.70293" lon="1.84555">
        <ele>155.69344</ele>
        <time>2014-07-27T15:46:22Z</time>
      </trkpt>
      <trkpt lat="48.70296" lon="1.84545">
        <ele>155.69344</ele>
        <time>2014-07-27T15:46:26Z</time>
      </trkpt>
      <trkpt lat="48.70304" lon="1.84537">
        <ele>156.25983</ele>
        <time>2014-07-27T15:46:32Z</time>
      </trkpt>
      <trkpt lat="48.7031" lon="1.84531">
        <ele>156.25983</ele>
        <time>2014-07-27T15:46:37Z</time>
      </trkpt>
      <trkpt lat="48.70316" lon="1.84526">
        <ele>156.72978</ele>
        <time>2014-07-27T15:46:42Z</time>
      </trkpt>
      <trkpt lat="48.7032" lon="1.84513">
        <ele>157.15242</ele>
        <time>2014-07-27T15:46:46Z</time>
      </trkpt>
      <trkpt lat="48.7032" lon="1.84492">
        <ele>157.57344</ele>
        <time>2014-07-27T15:46:51Z</time>
      </trkpt>
      <trkpt lat="48.70323" lon="1.84487">
        <ele>157.57344</ele>
        <time>2014-07-27T15:46:56Z</time>
      </trkpt>
      <trkpt lat="48.70328" lon="1.84474">
        <ele>158.0352</ele>
        <time>2014-07-27T15:47:00Z</time>
      </trkpt>
      <trkpt lat="48.70333" lon="1.84455">
        <ele>158.54808</ele>
        <time>2014-07-27T15:47:08Z</time>
      </trkpt>
      <trkpt lat="48.70336" lon="1.84445">
        <ele>158.54808</ele>
        <time>2014-07-27T15:47:11Z</time>
      </trkpt>
      <trkpt lat="48.70341" lon="1.84425">
        <ele>159.0927</ele>
        <time>2014-07-27T15:47:17Z</time>
      </trkpt>
      <trkpt lat="48.70343" lon="1.84415">
        <ele>159.0927</ele>
        <time>2014-07-27T15:47:21Z</time>
      </trkpt>
      <trkpt lat="48.70347" lon="1.84403">
        <ele>159.5502</ele>
        <time>2014-07-27T15:47:26Z</time>
      </trkpt>
      <trkpt lat="48.70352" lon="1.84389">
        <ele>159.94044</ele>
        <time>2014-07-27T15:47:32Z</time>
      </trkpt>
      <trkpt lat="48.70356" lon="1.84382">
        <ele>159.94044</ele>
        <time>2014-07-27T15:47:36Z</time>
      </trkpt>
      <trkpt lat="48.70362" lon="1.8437">
        <ele>160.32529</ele>
        <time>2014-07-27T15:47:42Z</time>
      </trkpt>
      <trkpt lat="48.70365" lon="1.8436">
        <ele>160.32529</ele>
        <time>2014-07-27T15:47:46Z</time>
      </trkpt>
      <trkpt lat="48.70369" lon="1.84351">
        <ele>160.66116</ele>
        <time>2014-07-27T15:47:51Z</time>
      </trkpt>
      <trkpt lat="48.70378" lon="1.84345">
        <ele>160.93677</ele>
        <time>2014-07-27T15:47:56Z</time>
      </trkpt>
      <trkpt lat="48.70386" lon="1.84336">
        <ele>161.1418</ele>
        <time>2014-07-27T15:48:02Z</time>
      </trkpt>
      <trkpt lat="48.70389" lon="1.84324">
        <ele>161.1418</ele>
        <time>2014-07-27T15:48:07Z</time>
      </trkpt>
      <trkpt lat="48.70394" lon="1.84319">
        <ele>161.48308</ele>
        <time>2014-07-27T15:48:12Z</time>
      </trkpt>
      <trkpt lat="48.70396" lon="1.84307">
        <ele>161.48308</ele>
        <time>2014-07-27T15:48:17Z</time>
      </trkpt>
      <trkpt lat="48.70401" lon="1.84294">
        <ele>161.80606</ele>
        <time>2014-07-27T15:48:21Z</time>
      </trkpt>
      <trkpt lat="48.70406" lon="1.84284">
        <ele>161.80606</ele>
        <time>2014-07-27T15:48:26Z</time>
      </trkpt>
      <trkpt lat="48.70412" lon="1.84273">
        <ele>162.12613</ele>
        <time>2014-07-27T15:48:32Z</time>
      </trkpt>
      <trkpt lat="48.7042" lon="1.84264">
        <ele>162.42876</ele>
        <time>2014-07-27T15:48:36Z</time>
      </trkpt>
      <trkpt lat="48.70426" lon="1.84255">
        <ele>162.42876</ele>
        <time>2014-07-27T15:48:42Z</time>
      </trkpt>
      <trkpt lat="48.70432" lon="1.84252">
        <ele>162.67174</ele>
        <time>2014-07-27T15:48:47Z</time>
      </trkpt>
      <trkpt lat="48.70436" lon="1.84247">
        <ele>162.67174</ele>
        <time>2014-07-27T15:48:51Z</time>
      </trkpt>
      <trkpt lat="48.7044" lon="1.84234">
        <ele>162.83057</ele>
        <time>2014-07-27T15:48:56Z</time>
      </trkpt>
      <trkpt lat="48.70442" lon="1.84221">
        <ele>162.83057</ele>
        <time>2014-07-27T15:49:02Z</time>
      </trkpt>
      <trkpt lat="48.70446" lon="1.84219">
        <ele>162.9116</ele>
        <time>2014-07-27T15:49:07Z</time>
      </trkpt>
      <trkpt lat="48.70456" lon="1.84226">
        <ele>162.921</ele>
        <time>2014-07-27T15:49:12Z</time>
      </trkpt>
      <trkpt lat="48.70458" lon="1.84227">
        <ele>162.921</ele>
        <time>2014-07-27T15:49:16Z</time>
      </trkpt>
      <trkpt lat="48.70455" lon="1.84199">
        <ele>162.72057</ele>
        <time>2014-07-27T15:49:22Z</time>
      </trkpt>
      <trkpt lat="48.70456" lon="1.84181">
        <ele>162.47107</ele>
        <time>2014-07-27T15:49:27Z</time>
      </trkpt>
      <trkpt lat="48.70462" lon="1.84166">
        <ele>162.19193</ele>
        <time>2014-07-27T15:49:32Z</time>
      </trkpt>
      <trkpt lat="48.70466" lon="1.84158">
        <ele>162.19193</ele>
        <time>2014-07-27T15:49:37Z</time>
      </trkpt>
      <trkpt lat="48.70475" lon="1.84154">
        <ele>161.90121</ele>
        <time>2014-07-27T15:49:42Z</time>
      </trkpt>
      <trkpt lat="48.70479" lon="1.84146">
        <ele>161.90121</ele>
        <time>2014-07-27T15:49:46Z</time>
      </trkpt>
      <trkpt lat="48.70481" lon="1.84134">
        <ele>161.61569</ele>
        <time>2014-07-27T15:49:51Z</time>
      </trkpt>
      <trkpt lat="48.70485" lon="1.84123">
        <ele>161.61569</ele>
        <time>2014-07-27T15:49:55Z</time>
      </trkpt>
      <trkpt lat="48.70489" lon="1.84106">
        <ele>161.39415</ele>
        <time>2014-07-27T15:50:01Z</time>
      </trkpt>
      <trkpt lat="48.70494" lon="1.84098">
        <ele>161.39415</ele>
        <time>2014-07-27T15:50:06Z</time>
      </trkpt>
      <trkpt lat="48.70501" lon="1.84088">
        <ele>161.34846</ele>
        <time>2014-07-27T15:50:11Z</time>
      </trkpt>
      <trkpt lat="48.7051" lon="1.84088">
        <ele>161.32243</ele>
        <time>2014-07-27T15:50:17Z</time>
      </trkpt>
      <trkpt lat="48.7052" lon="1.84087">
        <ele>161.32974</ele>
        <time>2014-07-27T15:50:22Z</time>
      </trkpt>
      <trkpt lat="48.70529" lon="1.84076">
        <ele>161.383</ele>
        <time>2014-07-27T15:50:27Z</time>
      </trkpt>
      <trkpt lat="48.70537" lon="1.84074">
        <ele>161.383</ele>
        <time>2014-07-27T15:50:31Z</time>
      </trkpt>
      <trkpt lat="48.70544" lon="1.84071">
        <ele>161.4937</ele>
        <time>2014-07-27T15:50:37Z</time>
      </trkpt>
      <trkpt lat="48.70553" lon="1.84078">
        <ele>161.58589</ele>
        <time>2014-07-27T15:50:41Z</time>
      </trkpt>
      <trkpt lat="48.70555" lon="1.84064">
        <ele>161.70453</ele>
        <time>2014-07-27T15:50:46Z</time>
      </trkpt>
      <trkpt lat="48.70556" lon="1.84056">
        <ele>161.70453</ele>
        <time>2014-07-27T15:50:50Z</time>
      </trkpt>
      <trkpt lat="48.70561" lon="1.84051">
        <ele>161.83348</ele>
        <time>2014-07-27T15:50:55Z</time>
      </trkpt>
      <trkpt lat="48.70571" lon="1.84038">
        <ele>162.01546</ele>
        <time>2014-07-27T15:51:03Z</time>
      </trkpt>
      <trkpt lat="48.70576" lon="1.84035">
        <ele>162.01546</ele>
        <time>2014-07-27T15:51:06Z</time>
      </trkpt>
      <trkpt lat="48.70587" lon="1.84029">
        <ele>162.33307</ele>
        <time>2014-07-27T15:51:12Z</time>
      </trkpt>
      <trkpt lat="48.70592" lon="1.84019">
        <ele>162.33307</ele>
        <time>2014-07-27T15:51:16Z</time>
      </trkpt>
      <trkpt lat="48.70603" lon="1.84008">
        <ele>162.6319</ele>
        <time>2014-07-27T15:51:22Z</time>
      </trkpt>
      <trkpt lat="48.7061" lon="1.84003">
        <ele>162.6319</ele>
        <time>2014-07-27T15:51:26Z</time>
      </trkpt>
      <trkpt lat="48.70613" lon="1.84">
        <ele>162.97066</ele>
        <time>2014-07-27T15:51:31Z</time>
      </trkpt>
      <trkpt lat="48.70624" lon="1.83997">
        <ele>163.36041</ele>
        <time>2014-07-27T15:51:37Z</time>
      </trkpt>
      <trkpt lat="48.70629" lon="1.83994">
        <ele>163.36041</ele>
        <time>2014-07-27T15:51:42Z</time>
      </trkpt>
      <trkpt lat="48.70636" lon="1.83985">
        <ele>163.79681</ele>
        <time>2014-07-27T15:51:47Z</time>
      </trkpt>
      <trkpt lat="48.70642" lon="1.83979">
        <ele>163.79681</ele>
        <time>2014-07-27T15:51:50Z</time>
      </trkpt>
      <trkpt lat="48.70642" lon="1.8397">
        <ele>164.30458</ele>
        <time>2014-07-27T15:51:56Z</time>
      </trkpt>
      <trkpt lat="48.70648" lon="1.83959">
        <ele>164.80547</ele>
        <time>2014-07-27T15:52:01Z</time>
      </trkpt>
      <trkpt lat="48.70652" lon="1.83947">
        <ele>164.80547</ele>
        <time>2014-07-27T15:52:07Z</time>
      </trkpt>
      <trkpt lat="48.70655" lon="1.83945">
        <ele>165.2991</ele>
        <time>2014-07-27T15:52:12Z</time>
      </trkpt>
      <trkpt lat="48.70659" lon="1.83937">
        <ele>165.2991</ele>
        <time>2014-07-27T15:52:17Z</time>
      </trkpt>
      <trkpt lat="48.70663" lon="1.8393">
        <ele>165.75632</ele>
        <time>2014-07-27T15:52:20Z</time>
      </trkpt>
      <trkpt lat="48.70672" lon="1.83926">
        <ele>166.1646</ele>
        <time>2014-07-27T15:52:28Z</time>
      </trkpt>
      <trkpt lat="48.70678" lon="1.83922">
        <ele>166.1646</ele>
        <time>2014-07-27T15:52:31Z</time>
      </trkpt>
      <trkpt lat="48.70682" lon="1.83916">
        <ele>166.51253</ele>
        <time>2014-07-27T15:52:36Z</time>
      </trkpt>
      <trkpt lat="48.70688" lon="1.83903">
        <ele>166.84732</ele>
        <time>2014-07-27T15:52:42Z</time>
      </trkpt>
      <trkpt lat="48.70693" lon="1.83889">
        <ele>167.15512</ele>
        <time>2014-07-27T15:52:47Z</time>
      </trkpt>
      <trkpt lat="48.70695" lon="1.83879">
        <ele>167.15512</ele>
        <time>2014-07-27T15:52:50Z</time>
      </trkpt>
      <trkpt lat="48.70702" lon="1.83857">
        <ele>167.45201</ele>
        <time>2014-07-27T15:52:57Z</time>
      </trkpt>
      <trkpt lat="48.70705" lon="1.83849">
        <ele>167.45201</ele>
        <time>2014-07-27T15:53:02Z</time>
      </trkpt>
      <trkpt lat="48.70712" lon="1.83839">
        <ele>167.70972</ele>
        <time>2014-07-27T15:53:07Z</time>
      </trkpt>
      <trkpt lat="48.70716" lon="1.83838">
        <ele>167.70972</ele>
        <time>2014-07-27T15:53:12Z</time>
      </trkpt>
      <trkpt lat="48.70721" lon="1.83835">
        <ele>168.00299</ele>
        <time>2014-07-27T15:53:17Z</time>
      </trkpt>
      <trkpt lat="48.70727" lon="1.83833">
        <ele>168.00299</ele>
        <time>2014-07-27T15:53:20Z</time>
      </trkpt>
      <trkpt lat="48.70743" lon="1.83842">
        <ele>168.27136</ele>
        <time>2014-07-27T15:53:26Z</time>
      </trkpt>
      <trkpt lat="48.70749" lon="1.83827">
        <ele>168.48764</ele>
        <time>2014-07-27T15:53:32Z</time>
      </trkpt>
      <trkpt lat="48.70754" lon="1.83817">
        <ele>168.48764</ele>
        <time>2014-07-27T15:53:36Z</time>
      </trkpt>
      <trkpt lat="48.70762" lon="1.83807">
        <ele>168.67007</ele>
        <time>2014-07-27T15:53:42Z</time>
      </trkpt>
      <trkpt lat="48.70766" lon="1.83799">
        <ele>168.67007</ele>
        <time>2014-07-27T15:53:46Z</time>
      </trkpt>
      <trkpt lat="48.70772" lon="1.83792">
        <ele>168.92212</ele>
        <time>2014-07-27T15:53:51Z</time>
      </trkpt>
      <trkpt lat="48.70776" lon="1.83781">
        <ele>168.92212</ele>
        <time>2014-07-27T15:53:56Z</time>
      </trkpt>
      <trkpt lat="48.70786" lon="1.83778">
        <ele>169.18092</ele>
        <time>2014-07-27T15:54:02Z</time>
      </trkpt>
      <trkpt lat="48.70792" lon="1.83775">
        <ele>169.18092</ele>
        <time>2014-07-27T15:54:07Z</time>
      </trkpt>
      <trkpt lat="48.70804" lon="1.83774">
        <ele>169.47472</ele>
        <time>2014-07-27T15:54:11Z</time>
      </trkpt>
      <trkpt lat="48.70815" lon="1.83769">
        <ele>169.81514</ele>
        <time>2014-07-27T15:54:17Z</time>
      </trkpt>
      <trkpt lat="48.70818" lon="1.83757">
        <ele>169.81514</ele>
        <time>2014-07-27T15:54:22Z</time>
      </trkpt>
      <trkpt lat="48.70817" lon="1.83739">
        <ele>170.06874</ele>
        <time>2014-07-27T15:54:27Z</time>
      </trkpt>
      <trkpt lat="48.70818" lon="1.83719">
        <ele>170.27066</ele>
        <time>2014-07-27T15:54:32Z</time>
      </trkpt>
      <trkpt lat="48.70822" lon="1.83712">
        <ele>170.27066</ele>
        <time>2014-07-27T15:54:37Z</time>
      </trkpt>
      <trkpt lat="48.70828" lon="1.83709">
        <ele>170.4536</ele>
        <time>2014-07-27T15:54:41Z</time>
      </trkpt>
      <trkpt lat="48.70836" lon="1.83708">
        <ele>170.4536</ele>
        <time>2014-07-27T15:54:46Z</time>
      </trkpt>
      <trkpt lat="48.7084" lon="1.83704">
        <ele>170.56146</ele>
        <time>2014-07-27T15:54:51Z</time>
      </trkpt>
      <trkpt lat="48.70849" lon="1.837">
        <ele>170.60011</ele>
        <time>2014-07-27T15:54:56Z</time>
      </trkpt>
      <trkpt lat="48.70857" lon="1.83693">
        <ele>170.60011</ele>
        <time>2014-07-27T15:55:02Z</time>
      </trkpt>
      <trkpt lat="48.70865" lon="1.83689">
        <ele>170.63283</ele>
        <time>2014-07-27T15:55:06Z</time>
      </trkpt>
      <trkpt lat="48.70872" lon="1.83681">
        <ele>170.5886</ele>
        <time>2014-07-27T15:55:12Z</time>
      </trkpt>
      <trkpt lat="48.70877" lon="1.83674">
        <ele>170.5886</ele>
        <time>2014-07-27T15:55:17Z</time>
      </trkpt>
      <trkpt lat="48.70882" lon="1.83664">
        <ele>170.48825</ele>
        <time>2014-07-27T15:55:22Z</time>
      </trkpt>
      <trkpt lat="48.7089" lon="1.8366">
        <ele>170.48825</ele>
        <time>2014-07-27T15:55:26Z</time>
      </trkpt>
      <trkpt lat="48.70897" lon="1.83649">
        <ele>170.3945</ele>
        <time>2014-07-27T15:55:31Z</time>
      </trkpt>
      <trkpt lat="48.70903" lon="1.83642">
        <ele>170.3945</ele>
        <time>2014-07-27T15:55:37Z</time>
      </trkpt>
      <trkpt lat="48.70907" lon="1.83633">
        <ele>170.27898</ele>
        <time>2014-07-27T15:55:41Z</time>
      </trkpt>
      <trkpt lat="48.70915" lon="1.83632">
        <ele>170.27898</ele>
        <time>2014-07-27T15:55:47Z</time>
      </trkpt>
      <trkpt lat="48.70917" lon="1.83628">
        <ele>170.14424</ele>
        <time>2014-07-27T15:55:50Z</time>
      </trkpt>
      <trkpt lat="48.70924" lon="1.83618">
        <ele>170.00716</ele>
        <time>2014-07-27T15:55:57Z</time>
      </trkpt>
      <trkpt lat="48.70931" lon="1.83614">
        <ele>170.00716</ele>
        <time>2014-07-27T15:56:02Z</time>
      </trkpt>
      <trkpt lat="48.70939" lon="1.83613">
        <ele>169.91212</ele>
        <time>2014-07-27T15:56:07Z</time>
      </trkpt>
      <trkpt lat="48.70947" lon="1.83614">
        <ele>169.91212</ele>
        <time>2014-07-27T15:56:12Z</time>
      </trkpt>
      <trkpt lat="48.70957" lon="1.83612">
        <ele>169.87137</ele>
        <time>2014-07-27T15:56:16Z</time>
      </trkpt>
      <trkpt lat="48.70966" lon="1.83604">
        <ele>169.78073</ele>
        <time>2014-07-27T15:56:22Z</time>
      </trkpt>
      <trkpt lat="48.70971" lon="1.83603">
        <ele>169.78073</ele>
        <time>2014-07-27T15:56:26Z</time>
      </trkpt>
      <trkpt lat="48.70981" lon="1.83597">
        <ele>169.70236</ele>
        <time>2014-07-27T15:56:32Z</time>
      </trkpt>
      <trkpt lat="48.70986" lon="1.83596">
        <ele>169.70236</ele>
        <time>2014-07-27T15:56:37Z</time>
      </trkpt>
      <trkpt lat="48.70995" lon="1.83587">
        <ele>169.73701</ele>
        <time>2014-07-27T15:56:42Z</time>
      </trkpt>
      <trkpt lat="48.71" lon="1.83582">
        <ele>169.73701</ele>
        <time>2014-07-27T15:56:47Z</time>
      </trkpt>
      <trkpt lat="48.71004" lon="1.83578">
        <ele>169.79039</ele>
        <time>2014-07-27T15:56:50Z</time>
      </trkpt>
      <trkpt lat="48.7101" lon="1.83575">
        <ele>169.79039</ele>
        <time>2014-07-27T15:56:56Z</time>
      </trkpt>
      <trkpt lat="48.7102" lon="1.83561">
        <ele>169.93355</ele>
        <time>2014-07-27T15:57:02Z</time>
      </trkpt>
      <trkpt lat="48.71023" lon="1.83553">
        <ele>169.93355</ele>
        <time>2014-07-27T15:57:06Z</time>
      </trkpt>
      <trkpt lat="48.71029" lon="1.83541">
        <ele>170.07352</ele>
        <time>2014-07-27T15:57:11Z</time>
      </trkpt>
      <trkpt lat="48.71036" lon="1.83532">
        <ele>170.19624</ele>
        <time>2014-07-27T15:57:18Z</time>
      </trkpt>
      <trkpt lat="48.71042" lon="1.83535">
        <ele>170.19624</ele>
        <time>2014-07-27T15:57:21Z</time>
      </trkpt>
      <trkpt lat="48.7105" lon="1.83536">
        <ele>170.34636</ele>
        <time>2014-07-27T15:57:27Z</time>
      </trkpt>
      <trkpt lat="48.71055" lon="1.83533">
        <ele>170.34636</ele>
        <time>2014-07-27T15:57:31Z</time>
      </trkpt>
      <trkpt lat="48.71064" lon="1.8353">
        <ele>170.49304</ele>
        <time>2014-07-27T15:57:37Z</time>
      </trkpt>
      <trkpt lat="48.71069" lon="1.83524">
        <ele>170.49304</ele>
        <time>2014-07-27T15:57:41Z</time>
      </trkpt>
      <trkpt lat="48.71076" lon="1.83522">
        <ele>170.63663</ele>
        <time>2014-07-27T15:57:47Z</time>
      </trkpt>
      <trkpt lat="48.71078" lon="1.8352">
        <ele>170.63663</ele>
        <time>2014-07-27T15:57:51Z</time>
      </trkpt>
      <trkpt lat="48.71084" lon="1.83516">
        <ele>170.63663</ele>
        <time>2014-07-27T15:57:56Z</time>
      </trkpt>
      <trkpt lat="48.71094" lon="1.83512">
        <ele>170.77733</ele>
        <time>2014-07-27T15:58:03Z</time>
      </trkpt>
      <trkpt lat="48.711" lon="1.83508">
        <ele>170.77733</ele>
        <time>2014-07-27T15:58:06Z</time>
      </trkpt>
      <trkpt lat="48.71106" lon="1.83501">
        <ele>170.901</ele>
        <time>2014-07-27T15:58:12Z</time>
      </trkpt>
      <trkpt lat="48.71112" lon="1.83497">
        <ele>170.901</ele>
        <time>2014-07-27T15:58:16Z</time>
      </trkpt>
      <trkpt lat="48.71118" lon="1.83494">
        <ele>171.02336</ele>
        <time>2014-07-27T15:58:21Z</time>
      </trkpt>
      <trkpt lat="48.71124" lon="1.83491">
        <ele>171.02336</ele>
        <time>2014-07-27T15:58:27Z</time>
      </trkpt>
      <trkpt lat="48.7113" lon="1.83486">
        <ele>171.13016</ele>
        <time>2014-07-27T15:58:31Z</time>
      </trkpt>
      <trkpt lat="48.71137" lon="1.83486">
        <ele>171.13016</ele>
        <time>2014-07-27T15:58:37Z</time>
      </trkpt>
      <trkpt lat="48.71143" lon="1.83481">
        <ele>171.2226</ele>
        <time>2014-07-27T15:58:41Z</time>
      </trkpt>
      <trkpt lat="48.71148" lon="1.83475">
        <ele>171.2226</ele>
        <time>2014-07-27T15:58:47Z</time>
      </trkpt>
      <trkpt lat="48.71154" lon="1.83472">
        <ele>171.30188</ele>
        <time>2014-07-27T15:58:51Z</time>
      </trkpt>
      <trkpt lat="48.71161" lon="1.83463">
        <ele>171.36911</ele>
        <time>2014-07-27T15:58:56Z</time>
      </trkpt>
      <trkpt lat="48.71172" lon="1.83456">
        <ele>171.42532</ele>
        <time>2014-07-27T15:59:01Z</time>
      </trkpt>
      <trkpt lat="48.71182" lon="1.83451">
        <ele>171.45714</ele>
        <time>2014-07-27T15:59:06Z</time>
      </trkpt>
      <trkpt lat="48.71191" lon="1.83445">
        <ele>171.481</ele>
        <time>2014-07-27T15:59:12Z</time>
      </trkpt>
      <trkpt lat="48.71201" lon="1.8345">
        <ele>171.48334</ele>
        <time>2014-07-27T15:59:16Z</time>
      </trkpt>
      <trkpt lat="48.71209" lon="1.8344">
        <ele>171.48047</ele>
        <time>2014-07-27T15:59:22Z</time>
      </trkpt>
      <trkpt lat="48.71215" lon="1.83436">
        <ele>171.48047</ele>
        <time>2014-07-27T15:59:27Z</time>
      </trkpt>
      <trkpt lat="48.71222" lon="1.83434">
        <ele>171.4875</ele>
        <time>2014-07-27T15:59:32Z</time>
      </trkpt>
      <trkpt lat="48.71231" lon="1.83432">
        <ele>171.4875</ele>
        <time>2014-07-27T15:59:36Z</time>
      </trkpt>
      <trkpt lat="48.71239" lon="1.83423">
        <ele>171.46077</ele>
        <time>2014-07-27T15:59:41Z</time>
      </trkpt>
      <trkpt lat="48.71247" lon="1.83415">
        <ele>171.44633</ele>
        <time>2014-07-27T15:59:47Z</time>
      </trkpt>
      <trkpt lat="48.7125" lon="1.83403">
        <ele>171.44633</ele>
        <time>2014-07-27T15:59:51Z</time>
      </trkpt>
      <trkpt lat="48.71258" lon="1.83398">
        <ele>171.41481</ele>
        <time>2014-07-27T15:59:56Z</time>
      </trkpt>
      <trkpt lat="48.71266" lon="1.83389">
        <ele>171.38223</ele>
        <time>2014-07-27T16:00:01Z</time>
      </trkpt>
      <trkpt lat="48.71274" lon="1.83387">
        <ele>171.38223</ele>
        <time>2014-07-27T16:00:07Z</time>
      </trkpt>
      <trkpt lat="48.71281" lon="1.83383">
        <ele>171.34901</ele>
        <time>2014-07-27T16:00:11Z</time>
      </trkpt>
      <trkpt lat="48.7129" lon="1.83378">
        <ele>171.31555</ele>
        <time>2014-07-27T16:00:18Z</time>
      </trkpt>
      <trkpt lat="48.71297" lon="1.83374">
        <ele>171.31555</ele>
        <time>2014-07-27T16:00:21Z</time>
      </trkpt>
      <trkpt lat="48.71304" lon="1.83372">
        <ele>171.26779</ele>
        <time>2014-07-27T16:00:28Z</time>
      </trkpt>
      <trkpt lat="48.71306" lon="1.83368">
        <ele>171.26779</ele>
        <time>2014-07-27T16:00:31Z</time>
      </trkpt>
      <trkpt lat="48.71312" lon="1.83361">
        <ele>171.20715</ele>
        <time>2014-07-27T16:00:38Z</time>
      </trkpt>
      <trkpt lat="48.71317" lon="1.83358">
        <ele>171.20715</ele>
        <time>2014-07-27T16:00:41Z</time>
      </trkpt>
      <trkpt lat="48.71327" lon="1.83356">
        <ele>171.13495</ele>
        <time>2014-07-27T16:00:47Z</time>
      </trkpt>
      <trkpt lat="48.71337" lon="1.83358">
        <ele>171.06686</ele>
        <time>2014-07-27T16:00:51Z</time>
      </trkpt>
      <trkpt lat="48.71346" lon="1.83343">
        <ele>170.98857</ele>
        <time>2014-07-27T16:00:56Z</time>
      </trkpt>
      <trkpt lat="48.71352" lon="1.83326">
        <ele>170.91562</ele>
        <time>2014-07-27T16:01:02Z</time>
      </trkpt>
      <trkpt lat="48.71357" lon="1.83322">
        <ele>170.91562</ele>
        <time>2014-07-27T16:01:06Z</time>
      </trkpt>
      <trkpt lat="48.71368" lon="1.83318">
        <ele>170.8336</ele>
        <time>2014-07-27T16:01:13Z</time>
      </trkpt>
      <trkpt lat="48.71371" lon="1.83317">
        <ele>170.8336</ele>
        <time>2014-07-27T16:01:16Z</time>
      </trkpt>
      <trkpt lat="48.71381" lon="1.83308">
        <ele>170.75795</ele>
        <time>2014-07-27T16:01:23Z</time>
      </trkpt>
      <trkpt lat="48.71387" lon="1.83308">
        <ele>170.75795</ele>
        <time>2014-07-27T16:01:26Z</time>
      </trkpt>
      <trkpt lat="48.71398" lon="1.83308">
        <ele>170.67416</ele>
        <time>2014-07-27T16:01:32Z</time>
      </trkpt>
      <trkpt lat="48.71404" lon="1.83306">
        <ele>170.67416</ele>
        <time>2014-07-27T16:01:36Z</time>
      </trkpt>
      <trkpt lat="48.71414" lon="1.83299">
        <ele>170.56879</ele>
        <time>2014-07-27T16:01:42Z</time>
      </trkpt>
      <trkpt lat="48.71419" lon="1.83296">
        <ele>170.56879</ele>
        <time>2014-07-27T16:01:46Z</time>
      </trkpt>
      <trkpt lat="48.71422" lon="1.83291">
        <ele>170.45822</ele>
        <time>2014-07-27T16:01:51Z</time>
      </trkpt>
      <trkpt lat="48.71427" lon="1.83294">
        <ele>170.45822</ele>
        <time>2014-07-27T16:01:56Z</time>
      </trkpt>
      <trkpt lat="48.71433" lon="1.8329">
        <ele>170.32886</ele>
        <time>2014-07-27T16:02:01Z</time>
      </trkpt>
      <trkpt lat="48.71441" lon="1.83294">
        <ele>170.32886</ele>
        <time>2014-07-27T16:02:07Z</time>
      </trkpt>
      <trkpt lat="48.71448" lon="1.83288">
        <ele>170.16812</ele>
        <time>2014-07-27T16:02:12Z</time>
      </trkpt>
      <trkpt lat="48.71453" lon="1.83277">
        <ele>170.16812</ele>
        <time>2014-07-27T16:02:17Z</time>
      </trkpt>
      <trkpt lat="48.71459" lon="1.83262">
        <ele>169.97884</ele>
        <time>2014-07-27T16:02:22Z</time>
      </trkpt>
      <trkpt lat="48.71464" lon="1.83246">
        <ele>169.79253</ele>
        <time>2014-07-27T16:02:27Z</time>
      </trkpt>
      <trkpt lat="48.7147" lon="1.83238">
        <ele>169.79253</ele>
        <time>2014-07-27T16:02:31Z</time>
      </trkpt>
      <trkpt lat="48.71481" lon="1.83236">
        <ele>169.56628</ele>
        <time>2014-07-27T16:02:38Z</time>
      </trkpt>
      <trkpt lat="48.71488" lon="1.83237">
        <ele>169.56628</ele>
        <time>2014-07-27T16:02:41Z</time>
      </trkpt>
      <trkpt lat="48.71495" lon="1.8323">
        <ele>169.30373</ele>
        <time>2014-07-27T16:02:48Z</time>
      </trkpt>
      <trkpt lat="48.71498" lon="1.83225">
        <ele>169.30373</ele>
        <time>2014-07-27T16:02:50Z</time>
      </trkpt>
      <trkpt lat="48.71505" lon="1.83214">
        <ele>169.00826</ele>
        <time>2014-07-27T16:02:56Z</time>
      </trkpt>
      <trkpt lat="48.71513" lon="1.83197">
        <ele>168.71194</ele>
        <time>2014-07-27T16:03:02Z</time>
      </trkpt>
      <trkpt lat="48.71517" lon="1.8319">
        <ele>168.71194</ele>
        <time>2014-07-27T16:03:06Z</time>
      </trkpt>
      <trkpt lat="48.71521" lon="1.83183">
        <ele>168.40126</ele>
        <time>2014-07-27T16:03:12Z</time>
      </trkpt>
      <trkpt lat="48.71529" lon="1.83182">
        <ele>168.40126</ele>
        <time>2014-07-27T16:03:16Z</time>
      </trkpt>
      <trkpt lat="48.71533" lon="1.8318">
        <ele>168.07806</ele>
        <time>2014-07-27T16:03:22Z</time>
      </trkpt>
      <trkpt lat="48.71538" lon="1.83168">
        <ele>167.75854</ele>
        <time>2014-07-27T16:03:27Z</time>
      </trkpt>
      <trkpt lat="48.71547" lon="1.83159">
        <ele>167.44325</ele>
        <time>2014-07-27T16:03:32Z</time>
      </trkpt>
      <trkpt lat="48.71549" lon="1.83151">
        <ele>167.44325</ele>
        <time>2014-07-27T16:03:37Z</time>
      </trkpt>
      <trkpt lat="48.71554" lon="1.83145">
        <ele>167.10379</ele>
        <time>2014-07-27T16:03:42Z</time>
      </trkpt>
      <trkpt lat="48.71555" lon="1.83136">
        <ele>167.10379</ele>
        <time>2014-07-27T16:03:47Z</time>
      </trkpt>
      <trkpt lat="48.71565" lon="1.83125">
        <ele>166.75722</ele>
        <time>2014-07-27T16:03:51Z</time>
      </trkpt>
      <trkpt lat="48.71574" lon="1.83113">
        <ele>166.41924</ele>
        <time>2014-07-27T16:03:56Z</time>
      </trkpt>
      <trkpt lat="48.71578" lon="1.83101">
        <ele>166.09001</ele>
        <time>2014-07-27T16:04:03Z</time>
      </trkpt>
      <trkpt lat="48.71582" lon="1.83091">
        <ele>166.09001</ele>
        <time>2014-07-27T16:04:06Z</time>
      </trkpt>
      <trkpt lat="48.71584" lon="1.8308">
        <ele>165.7408</ele>
        <time>2014-07-27T16:04:12Z</time>
      </trkpt>
      <trkpt lat="48.71587" lon="1.83071">
        <ele>165.7408</ele>
        <time>2014-07-27T16:04:17Z</time>
      </trkpt>
      <trkpt lat="48.71593" lon="1.83059">
        <ele>165.38821</ele>
        <time>2014-07-27T16:04:22Z</time>
      </trkpt>
      <trkpt lat="48.71595" lon="1.8304">
        <ele>165.04765</ele>
        <time>2014-07-27T16:04:26Z</time>
      </trkpt>
      <trkpt lat="48.71599" lon="1.83039">
        <ele>165.04765</ele>
        <time>2014-07-27T16:04:32Z</time>
      </trkpt>
      <trkpt lat="48.71603" lon="1.83038">
        <ele>165.04765</ele>
        <time>2014-07-27T16:04:36Z</time>
      </trkpt>
      <trkpt lat="48.71609" lon="1.83024">
        <ele>164.64687</ele>
        <time>2014-07-27T16:04:42Z</time>
      </trkpt>
      <trkpt lat="48.71614" lon="1.83016">
        <ele>164.64687</ele>
        <time>2014-07-27T16:04:46Z</time>
      </trkpt>
      <trkpt lat="48.71623" lon="1.83004">
        <ele>164.24872</ele>
        <time>2014-07-27T16:04:51Z</time>
      </trkpt>
      <trkpt lat="48.71627" lon="1.82998">
        <ele>164.24872</ele>
        <time>2014-07-27T16:04:56Z</time>
      </trkpt>
      <trkpt lat="48.71633" lon="1.82988">
        <ele>163.82498</ele>
        <time>2014-07-27T16:05:01Z</time>
      </trkpt>
      <trkpt lat="48.71636" lon="1.82976">
        <ele>163.82498</ele>
        <time>2014-07-27T16:05:07Z</time>
      </trkpt>
      <trkpt lat="48.71636" lon="1.82964">
        <ele>163.37836</ele>
        <time>2014-07-27T16:05:12Z</time>
      </trkpt>
      <trkpt lat="48.71642" lon="1.82952">
        <ele>162.95465</ele>
        <time>2014-07-27T16:05:17Z</time>
      </trkpt>
      <trkpt lat="48.71642" lon="1.82937">
        <ele>162.53851</ele>
        <time>2014-07-27T16:05:22Z</time>
      </trkpt>
      <trkpt lat="48.71646" lon="1.82921">
        <ele>162.13013</ele>
        <time>2014-07-27T16:05:27Z</time>
      </trkpt>
      <trkpt lat="48.7165" lon="1.82914">
        <ele>162.13013</ele>
        <time>2014-07-27T16:05:32Z</time>
      </trkpt>
      <trkpt lat="48.71653" lon="1.82901">
        <ele>161.71518</ele>
        <time>2014-07-27T16:05:36Z</time>
      </trkpt>
      <trkpt lat="48.71659" lon="1.82891">
        <ele>161.71518</ele>
        <time>2014-07-27T16:05:42Z</time>
      </trkpt>
      <trkpt lat="48.71662" lon="1.82879">
        <ele>161.29482</ele>
        <time>2014-07-27T16:05:47Z</time>
      </trkpt>
      <trkpt lat="48.71664" lon="1.82872">
        <ele>161.29482</ele>
        <time>2014-07-27T16:05:50Z</time>
      </trkpt>
      <trkpt lat="48.71665" lon="1.8286">
        <ele>160.82686</ele>
        <time>2014-07-27T16:05:55Z</time>
      </trkpt>
      <trkpt lat="48.71669" lon="1.8284">
        <ele>160.32997</ele>
        <time>2014-07-27T16:06:03Z</time>
      </trkpt>
      <trkpt lat="48.71668" lon="1.82831">
        <ele>160.32997</ele>
        <time>2014-07-27T16:06:06Z</time>
      </trkpt>
      <trkpt lat="48.71672" lon="1.82822">
        <ele>159.8215</ele>
        <time>2014-07-27T16:06:12Z</time>
      </trkpt>
      <trkpt lat="48.71677" lon="1.82814">
        <ele>159.8215</ele>
        <time>2014-07-27T16:06:17Z</time>
      </trkpt>
      <trkpt lat="48.7168" lon="1.82811">
        <ele>159.33192</ele>
        <time>2014-07-27T16:06:22Z</time>
      </trkpt>
      <trkpt lat="48.71685" lon="1.828">
        <ele>159.33192</ele>
        <time>2014-07-27T16:06:27Z</time>
      </trkpt>
      <trkpt lat="48.7169" lon="1.8279">
        <ele>158.84619</ele>
        <time>2014-07-27T16:06:32Z</time>
      </trkpt>
      <trkpt lat="48.71697" lon="1.8278">
        <ele>158.39354</ele>
        <time>2014-07-27T16:06:36Z</time>
      </trkpt>
      <trkpt lat="48.71701" lon="1.82767">
        <ele>157.97209</ele>
        <time>2014-07-27T16:06:42Z</time>
      </trkpt>
      <trkpt lat="48.71703" lon="1.82758">
        <ele>157.97209</ele>
        <time>2014-07-27T16:06:45Z</time>
      </trkpt>
      <trkpt lat="48.71705" lon="1.82741">
        <ele>157.59445</ele>
        <time>2014-07-27T16:06:52Z</time>
      </trkpt>
      <trkpt lat="48.71708" lon="1.82729">
        <ele>157.59445</ele>
        <time>2014-07-27T16:06:56Z</time>
      </trkpt>
      <trkpt lat="48.71713" lon="1.82716">
        <ele>157.22887</ele>
        <time>2014-07-27T16:07:02Z</time>
      </trkpt>
      <trkpt lat="48.71718" lon="1.82705">
        <ele>157.22887</ele>
        <time>2014-07-27T16:07:06Z</time>
      </trkpt>
      <trkpt lat="48.71727" lon="1.82699">
        <ele>156.86029</ele>
        <time>2014-07-27T16:07:12Z</time>
      </trkpt>
      <trkpt lat="48.71731" lon="1.82688">
        <ele>156.86029</ele>
        <time>2014-07-27T16:07:17Z</time>
      </trkpt>
      <trkpt lat="48.71733" lon="1.82678">
        <ele>156.48918</ele>
        <time>2014-07-27T16:07:20Z</time>
      </trkpt>
      <trkpt lat="48.71736" lon="1.82666">
        <ele>156.48918</ele>
        <time>2014-07-27T16:07:27Z</time>
      </trkpt>
      <trkpt lat="48.71737" lon="1.82656">
        <ele>156.13034</ele>
        <time>2014-07-27T16:07:32Z</time>
      </trkpt>
      <trkpt lat="48.71747" lon="1.82652">
        <ele>155.79745</ele>
        <time>2014-07-27T16:07:37Z</time>
      </trkpt>
      <trkpt lat="48.71752" lon="1.82644">
        <ele>155.79745</ele>
        <time>2014-07-27T16:07:42Z</time>
      </trkpt>
      <trkpt lat="48.71757" lon="1.82636">
        <ele>155.45985</ele>
        <time>2014-07-27T16:07:47Z</time>
      </trkpt>
      <trkpt lat="48.71762" lon="1.82631">
        <ele>155.45985</ele>
        <time>2014-07-27T16:07:51Z</time>
      </trkpt>
      <trkpt lat="48.71773" lon="1.82624">
        <ele>155.14674</ele>
        <time>2014-07-27T16:07:56Z</time>
      </trkpt>
      <trkpt lat="48.71778" lon="1.82609">
        <ele>154.87074</ele>
        <time>2014-07-27T16:08:02Z</time>
      </trkpt>
      <trkpt lat="48.71777" lon="1.82591">
        <ele>154.62894</ele>
        <time>2014-07-27T16:08:06Z</time>
      </trkpt>
      <trkpt lat="48.71776" lon="1.82565">
        <ele>154.4186</ele>
        <time>2014-07-27T16:08:12Z</time>
      </trkpt>
      <trkpt lat="48.71774" lon="1.82548">
        <ele>154.237</ele>
        <time>2014-07-27T16:08:16Z</time>
      </trkpt>
      <trkpt lat="48.71782" lon="1.8254">
        <ele>154.09602</ele>
        <time>2014-07-27T16:08:23Z</time>
      </trkpt>
      <trkpt lat="48.71783" lon="1.82527">
        <ele>154.09602</ele>
        <time>2014-07-27T16:08:26Z</time>
      </trkpt>
      <trkpt lat="48.71785" lon="1.82512">
        <ele>153.97769</ele>
        <time>2014-07-27T16:08:32Z</time>
      </trkpt>
      <trkpt lat="48.71785" lon="1.825">
        <ele>153.97769</ele>
        <time>2014-07-27T16:08:37Z</time>
      </trkpt>
      <trkpt lat="48.71797" lon="1.82504">
        <ele>153.87968</ele>
        <time>2014-07-27T16:08:41Z</time>
      </trkpt>
      <trkpt lat="48.71811" lon="1.82505">
        <ele>153.7998</ele>
        <time>2014-07-27T16:08:48Z</time>
      </trkpt>
      <trkpt lat="48.71813" lon="1.82499">
        <ele>153.7998</ele>
        <time>2014-07-27T16:08:50Z</time>
      </trkpt>
      <trkpt lat="48.71816" lon="1.82491">
        <ele>153.73596</ele>
        <time>2014-07-27T16:08:57Z</time>
      </trkpt>
      <trkpt lat="48.71816" lon="1.82476">
        <ele>153.70058</ele>
        <time>2014-07-27T16:09:02Z</time>
      </trkpt>
      <trkpt lat="48.71814" lon="1.82459">
        <ele>153.6907</ele>
        <time>2014-07-27T16:09:07Z</time>
      </trkpt>
      <trkpt lat="48.71818" lon="1.82445">
        <ele>153.68907</ele>
        <time>2014-07-27T16:09:11Z</time>
      </trkpt>
      <trkpt lat="48.7182" lon="1.82426">
        <ele>153.70856</ele>
        <time>2014-07-27T16:09:17Z</time>
      </trkpt>
      <trkpt lat="48.71824" lon="1.82416">
        <ele>153.70856</ele>
        <time>2014-07-27T16:09:21Z</time>
      </trkpt>
      <trkpt lat="48.71833" lon="1.82407">
        <ele>153.73216</ele>
        <time>2014-07-27T16:09:27Z</time>
      </trkpt>
      <trkpt lat="48.71838" lon="1.82401">
        <ele>153.73216</ele>
        <time>2014-07-27T16:09:31Z</time>
      </trkpt>
      <trkpt lat="48.71839" lon="1.82383">
        <ele>153.78743</ele>
        <time>2014-07-27T16:09:37Z</time>
      </trkpt>
      <trkpt lat="48.71839" lon="1.8237">
        <ele>153.78743</ele>
        <time>2014-07-27T16:09:42Z</time>
      </trkpt>
      <trkpt lat="48.71843" lon="1.82359">
        <ele>153.87091</ele>
        <time>2014-07-27T16:09:47Z</time>
      </trkpt>
      <trkpt lat="48.7185" lon="1.82355">
        <ele>153.87091</ele>
        <time>2014-07-27T16:09:51Z</time>
      </trkpt>
      <trkpt lat="48.71854" lon="1.82342">
        <ele>153.965</ele>
        <time>2014-07-27T16:09:56Z</time>
      </trkpt>
      <trkpt lat="48.7186" lon="1.82339">
        <ele>153.965</ele>
        <time>2014-07-27T16:10:02Z</time>
      </trkpt>
      <trkpt lat="48.71869" lon="1.82336">
        <ele>154.08215</ele>
        <time>2014-07-27T16:10:06Z</time>
      </trkpt>
      <trkpt lat="48.71876" lon="1.82329">
        <ele>154.08215</ele>
        <time>2014-07-27T16:10:12Z</time>
      </trkpt>
      <trkpt lat="48.71884" lon="1.8232">
        <ele>154.19067</ele>
        <time>2014-07-27T16:10:17Z</time>
      </trkpt>
      <trkpt lat="48.71889" lon="1.82313">
        <ele>154.19067</ele>
        <time>2014-07-27T16:10:22Z</time>
      </trkpt>
      <trkpt lat="48.71892" lon="1.82292">
        <ele>154.29002</ele>
        <time>2014-07-27T16:10:27Z</time>
      </trkpt>
      <trkpt lat="48.71899" lon="1.82283">
        <ele>154.29002</ele>
        <time>2014-07-27T16:10:32Z</time>
      </trkpt>
      <trkpt lat="48.71901" lon="1.8227">
        <ele>154.37979</ele>
        <time>2014-07-27T16:10:37Z</time>
      </trkpt>
      <trkpt lat="48.71904" lon="1.82254">
        <ele>154.47403</ele>
        <time>2014-07-27T16:10:42Z</time>
      </trkpt>
      <trkpt lat="48.71907" lon="1.82242">
        <ele>154.47403</ele>
        <time>2014-07-27T16:10:47Z</time>
      </trkpt>
      <trkpt lat="48.71909" lon="1.82228">
        <ele>154.5858</ele>
        <time>2014-07-27T16:10:51Z</time>
      </trkpt>
      <trkpt lat="48.71913" lon="1.82218">
        <ele>154.5858</ele>
        <time>2014-07-27T16:10:55Z</time>
      </trkpt>
      <trkpt lat="48.71917" lon="1.82209">
        <ele>154.69833</ele>
        <time>2014-07-27T16:11:01Z</time>
      </trkpt>
      <trkpt lat="48.71919" lon="1.82198">
        <ele>154.69833</ele>
        <time>2014-07-27T16:11:07Z</time>
      </trkpt>
      <trkpt lat="48.71924" lon="1.82191">
        <ele>154.81055</ele>
        <time>2014-07-27T16:11:12Z</time>
      </trkpt>
      <trkpt lat="48.71926" lon="1.82178">
        <ele>154.81055</ele>
        <time>2014-07-27T16:11:17Z</time>
      </trkpt>
      <trkpt lat="48.71931" lon="1.82169">
        <ele>154.92146</ele>
        <time>2014-07-27T16:11:21Z</time>
      </trkpt>
      <trkpt lat="48.71934" lon="1.82162">
        <ele>154.92146</ele>
        <time>2014-07-27T16:11:28Z</time>
      </trkpt>
      <trkpt lat="48.71938" lon="1.82148">
        <ele>155.03023</ele>
        <time>2014-07-27T16:11:30Z</time>
      </trkpt>
      <trkpt lat="48.71944" lon="1.82123">
        <ele>155.15048</ele>
        <time>2014-07-27T16:11:38Z</time>
      </trkpt>
      <trkpt lat="48.71945" lon="1.82124">
        <ele>155.15048</ele>
        <time>2014-07-27T16:11:41Z</time>
      </trkpt>
      <trkpt lat="48.71947" lon="1.82115">
        <ele>155.15048</ele>
        <time>2014-07-27T16:11:47Z</time>
      </trkpt>
      <trkpt lat="48.71952" lon="1.82111">
        <ele>155.26604</ele>
        <time>2014-07-27T16:11:51Z</time>
      </trkpt>
      <trkpt lat="48.71959" lon="1.82106">
        <ele>155.26604</ele>
        <time>2014-07-27T16:11:55Z</time>
      </trkpt>
      <trkpt lat="48.71959" lon="1.82106">
        <ele>155.26604</ele>
        <time>2014-07-27T16:12:03Z</time>
      </trkpt>
      <trkpt lat="48.7196" lon="1.821">
        <ele>155.39078</ele>
        <time>2014-07-27T16:12:06Z</time>
      </trkpt>
      <trkpt lat="48.71965" lon="1.82089">
        <ele>155.39078</ele>
        <time>2014-07-27T16:12:12Z</time>
      </trkpt>
      <trkpt lat="48.71969" lon="1.82077">
        <ele>155.52315</ele>
        <time>2014-07-27T16:12:17Z</time>
      </trkpt>
      <trkpt lat="48.71973" lon="1.82071">
        <ele>155.52315</ele>
        <time>2014-07-27T16:12:21Z</time>
      </trkpt>
      <trkpt lat="48.71983" lon="1.82066">
        <ele>155.66173</ele>
        <time>2014-07-27T16:12:27Z</time>
      </trkpt>
      <trkpt lat="48.71986" lon="1.82063">
        <ele>155.66173</ele>
        <time>2014-07-27T16:12:31Z</time>
      </trkpt>
      <trkpt lat="48.71988" lon="1.82045">
        <ele>155.7764</ele>
        <time>2014-07-27T16:12:37Z</time>
      </trkpt>
      <trkpt lat="48.71982" lon="1.82036">
        <ele>155.7764</ele>
        <time>2014-07-27T16:12:48Z</time>
      </trkpt>
      <trkpt lat="48.71983" lon="1.82034">
        <ele>155.88258</ele>
        <time>2014-07-27T16:13:01Z</time>
      </trkpt>
      <trkpt lat="48.71984" lon="1.82028">
        <ele>155.88258</ele>
        <time>2014-07-27T16:13:07Z</time>
      </trkpt>
      <trkpt lat="48.71987" lon="1.82019">
        <ele>155.99461</ele>
        <time>2014-07-27T16:13:11Z</time>
      </trkpt>
      <trkpt lat="48.71989" lon="1.82011">
        <ele>155.99461</ele>
        <time>2014-07-27T16:13:17Z</time>
      </trkpt>
      <trkpt lat="48.71991" lon="1.82011">
        <ele>155.99461</ele>
        <time>2014-07-27T16:13:21Z</time>
      </trkpt>
      <trkpt lat="48.71995" lon="1.8201">
        <ele>156.08258</ele>
        <time>2014-07-27T16:13:28Z</time>
      </trkpt>
      <trkpt lat="48.71997" lon="1.81997">
        <ele>156.08258</ele>
        <time>2014-07-27T16:13:31Z</time>
      </trkpt>
      <trkpt lat="48.71997" lon="1.81973">
        <ele>156.16206</ele>
        <time>2014-07-27T16:13:38Z</time>
      </trkpt>
      <trkpt lat="48.71997" lon="1.81966">
        <ele>156.16206</ele>
        <time>2014-07-27T16:13:41Z</time>
      </trkpt>
      <trkpt lat="48.71996" lon="1.81958">
        <ele>156.2476</ele>
        <time>2014-07-27T16:13:47Z</time>
      </trkpt>
      <trkpt lat="48.7201" lon="1.81934">
        <ele>156.33824</ele>
        <time>2014-07-27T16:13:56Z</time>
      </trkpt>
      <trkpt lat="48.72017" lon="1.8192">
        <ele>156.41869</ele>
        <time>2014-07-27T16:14:02Z</time>
      </trkpt>
      <trkpt lat="48.72018" lon="1.81903">
        <ele>156.50366</ele>
        <time>2014-07-27T16:14:06Z</time>
      </trkpt>
      <trkpt lat="48.72015" lon="1.8189">
        <ele>156.50366</ele>
        <time>2014-07-27T16:14:12Z</time>
      </trkpt>
      <trkpt lat="48.72017" lon="1.81887">
        <ele>156.57803</ele>
        <time>2014-07-27T16:14:16Z</time>
      </trkpt>
      <trkpt lat="48.72019" lon="1.81873">
        <ele>156.6422</ele>
        <time>2014-07-27T16:14:22Z</time>
      </trkpt>
      <trkpt lat="48.72024" lon="1.8187">
        <ele>156.6422</ele>
        <time>2014-07-27T16:14:26Z</time>
      </trkpt>
      <trkpt lat="48.72034" lon="1.81877">
        <ele>156.6966</ele>
        <time>2014-07-27T16:14:32Z</time>
      </trkpt>
      <trkpt lat="48.72051" lon="1.81887">
        <ele>156.7561</ele>
        <time>2014-07-27T16:14:37Z</time>
      </trkpt>
      <trkpt lat="48.7206" lon="1.81876">
        <ele>156.80568</ele>
        <time>2014-07-27T16:14:42Z</time>
      </trkpt>
      <trkpt lat="48.72068" lon="1.81863">
        <ele>156.86029</ele>
        <time>2014-07-27T16:14:46Z</time>
      </trkpt>
      <trkpt lat="48.72072" lon="1.81853">
        <ele>156.86029</ele>
        <time>2014-07-27T16:14:51Z</time>
      </trkpt>
      <trkpt lat="48.72074" lon="1.81846">
        <ele>156.90495</ele>
        <time>2014-07-27T16:14:55Z</time>
      </trkpt>
      <trkpt lat="48.72077" lon="1.81843">
        <ele>156.90495</ele>
        <time>2014-07-27T16:15:03Z</time>
      </trkpt>
      <trkpt lat="48.72076" lon="1.81845">
        <ele>156.90495</ele>
        <time>2014-07-27T16:15:05Z</time>
      </trkpt>
      <trkpt lat="48.72087" lon="1.81798">
        <ele>156.96909</ele>
        <time>2014-07-27T16:15:22Z</time>
      </trkpt>
      <trkpt lat="48.72092" lon="1.81801">
        <ele>156.96909</ele>
        <time>2014-07-27T16:15:27Z</time>
      </trkpt>
      <trkpt lat="48.72092" lon="1.81783">
        <ele>157.02225</ele>
        <time>2014-07-27T16:15:31Z</time>
      </trkpt>
      <trkpt lat="48.72096" lon="1.81752">
        <ele>157.07956</ele>
        <time>2014-07-27T16:15:37Z</time>
      </trkpt>
      <trkpt lat="48.72099" lon="1.81727">
        <ele>157.12616</ele>
        <time>2014-07-27T16:15:42Z</time>
      </trkpt>
      <trkpt lat="48.721" lon="1.81711">
        <ele>157.17719</ele>
        <time>2014-07-27T16:15:47Z</time>
      </trkpt>
      <trkpt lat="48.72106" lon="1.817">
        <ele>157.21783</ele>
        <time>2014-07-27T16:15:51Z</time>
      </trkpt>
      <trkpt lat="48.7211" lon="1.81678">
        <ele>157.26324</ele>
        <time>2014-07-27T16:15:55Z</time>
      </trkpt>
      <trkpt lat="48.72116" lon="1.8167">
        <ele>157.26324</ele>
        <time>2014-07-27T16:16:01Z</time>
      </trkpt>
      <trkpt lat="48.72119" lon="1.81662">
        <ele>157.32745</ele>
        <time>2014-07-27T16:16:07Z</time>
      </trkpt>
      <trkpt lat="48.72124" lon="1.81659">
        <ele>157.32745</ele>
        <time>2014-07-27T16:16:12Z</time>
      </trkpt>
      <trkpt lat="48.72131" lon="1.81657">
        <ele>157.40903</ele>
        <time>2014-07-27T16:16:17Z</time>
      </trkpt>
      <trkpt lat="48.72133" lon="1.81653">
        <ele>157.40903</ele>
        <time>2014-07-27T16:16:22Z</time>
      </trkpt>
      <trkpt lat="48.72141" lon="1.81652">
        <ele>157.52098</ele>
        <time>2014-07-27T16:16:27Z</time>
      </trkpt>
      <trkpt lat="48.72147" lon="1.81647">
        <ele>157.52098</ele>
        <time>2014-07-27T16:16:32Z</time>
      </trkpt>
      <trkpt lat="48.72156" lon="1.81645">
        <ele>157.6609</ele>
        <time>2014-07-27T16:16:37Z</time>
      </trkpt>
      <trkpt lat="48.72162" lon="1.8163">
        <ele>157.79768</ele>
        <time>2014-07-27T16:16:42Z</time>
      </trkpt>
      <trkpt lat="48.72175" lon="1.81598">
        <ele>157.94574</ele>
        <time>2014-07-27T16:16:47Z</time>
      </trkpt>
      <trkpt lat="48.72176" lon="1.81583">
        <ele>158.07518</ele>
        <time>2014-07-27T16:16:50Z</time>
      </trkpt>
      <trkpt lat="48.72178" lon="1.81563">
        <ele>158.20158</ele>
        <time>2014-07-27T16:16:56Z</time>
      </trkpt>
      <trkpt lat="48.72179" lon="1.81548">
        <ele>158.32503</ele>
        <time>2014-07-27T16:17:02Z</time>
      </trkpt>
      <trkpt lat="48.72187" lon="1.81544">
        <ele>158.32503</ele>
        <time>2014-07-27T16:17:07Z</time>
      </trkpt>
      <trkpt lat="48.72188" lon="1.81535">
        <ele>158.4744</ele>
        <time>2014-07-27T16:17:12Z</time>
      </trkpt>
      <trkpt lat="48.72189" lon="1.81514">
        <ele>158.63316</ele>
        <time>2014-07-27T16:17:17Z</time>
      </trkpt>
      <trkpt lat="48.72188" lon="1.81497">
        <ele>158.78601</ele>
        <time>2014-07-27T16:17:22Z</time>
      </trkpt>
      <trkpt lat="48.72191" lon="1.81487">
        <ele>158.78601</ele>
        <time>2014-07-27T16:17:27Z</time>
      </trkpt>
      <trkpt lat="48.72195" lon="1.81473">
        <ele>158.96198</ele>
        <time>2014-07-27T16:17:32Z</time>
      </trkpt>
      <trkpt lat="48.72197" lon="1.81463">
        <ele>158.96198</ele>
        <time>2014-07-27T16:17:36Z</time>
      </trkpt>
      <trkpt lat="48.72201" lon="1.81449">
        <ele>159.14471</ele>
        <time>2014-07-27T16:17:42Z</time>
      </trkpt>
      <trkpt lat="48.72202" lon="1.81446">
        <ele>159.14471</ele>
        <time>2014-07-27T16:17:47Z</time>
      </trkpt>
      <trkpt lat="48.72222" lon="1.81439">
        <ele>159.34787</ele>
        <time>2014-07-27T16:17:56Z</time>
      </trkpt>
      <trkpt lat="48.72227" lon="1.81426">
        <ele>159.56964</ele>
        <time>2014-07-27T16:18:02Z</time>
      </trkpt>
      <trkpt lat="48.72236" lon="1.81421">
        <ele>159.56964</ele>
        <time>2014-07-27T16:18:07Z</time>
      </trkpt>
      <trkpt lat="48.72243" lon="1.81416">
        <ele>159.80829</ele>
        <time>2014-07-27T16:18:12Z</time>
      </trkpt>
      <trkpt lat="48.72249" lon="1.81406">
        <ele>159.80829</ele>
        <time>2014-07-27T16:18:17Z</time>
      </trkpt>
      <trkpt lat="48.72254" lon="1.81394">
        <ele>160.0766</ele>
        <time>2014-07-27T16:18:22Z</time>
      </trkpt>
      <trkpt lat="48.72258" lon="1.81387">
        <ele>160.0766</ele>
        <time>2014-07-27T16:18:26Z</time>
      </trkpt>
      <trkpt lat="48.72261" lon="1.81385">
        <ele>160.37192</ele>
        <time>2014-07-27T16:18:31Z</time>
      </trkpt>
      <trkpt lat="48.72259" lon="1.81363">
        <ele>160.67735</ele>
        <time>2014-07-27T16:18:37Z</time>
      </trkpt>
      <trkpt lat="48.72262" lon="1.81348">
        <ele>160.96275</ele>
        <time>2014-07-27T16:18:41Z</time>
      </trkpt>
      <trkpt lat="48.7226" lon="1.81324">
        <ele>161.24356</ele>
        <time>2014-07-27T16:18:47Z</time>
      </trkpt>
      <trkpt lat="48.72263" lon="1.81307">
        <ele>161.50523</ele>
        <time>2014-07-27T16:18:51Z</time>
      </trkpt>
      <trkpt lat="48.72266" lon="1.81291">
        <ele>161.77762</ele>
        <time>2014-07-27T16:18:56Z</time>
      </trkpt>
      <trkpt lat="48.72269" lon="1.81264">
        <ele>162.05954</ele>
        <time>2014-07-27T16:19:03Z</time>
      </trkpt>
      <trkpt lat="48.72271" lon="1.81258">
        <ele>162.05954</ele>
        <time>2014-07-27T16:19:06Z</time>
      </trkpt>
      <trkpt lat="48.72273" lon="1.81245">
        <ele>162.37868</ele>
        <time>2014-07-27T16:19:12Z</time>
      </trkpt>
      <trkpt lat="48.72278" lon="1.81238">
        <ele>162.37868</ele>
        <time>2014-07-27T16:19:16Z</time>
      </trkpt>
      <trkpt lat="48.72281" lon="1.81231">
        <ele>162.74623</ele>
        <time>2014-07-27T16:19:22Z</time>
      </trkpt>
      <trkpt lat="48.72286" lon="1.81216">
        <ele>163.1292</ele>
        <time>2014-07-27T16:19:27Z</time>
      </trkpt>
      <trkpt lat="48.7229" lon="1.81205">
        <ele>163.1292</ele>
        <time>2014-07-27T16:19:31Z</time>
      </trkpt>
      <trkpt lat="48.72291" lon="1.81198">
        <ele>163.52577</ele>
        <time>2014-07-27T16:19:36Z</time>
      </trkpt>
      <trkpt lat="48.72299" lon="1.81188">
        <ele>163.9343</ele>
        <time>2014-07-27T16:19:42Z</time>
      </trkpt>
      <trkpt lat="48.72304" lon="1.81181">
        <ele>163.9343</ele>
        <time>2014-07-27T16:19:47Z</time>
      </trkpt>
      <trkpt lat="48.72308" lon="1.81178">
        <ele>164.35321</ele>
        <time>2014-07-27T16:19:51Z</time>
      </trkpt>
      <trkpt lat="48.72305" lon="1.81148">
        <ele>164.78102</ele>
        <time>2014-07-27T16:19:57Z</time>
      </trkpt>
      <trkpt lat="48.72299" lon="1.81128">
        <ele>165.18756</ele>
        <time>2014-07-27T16:20:01Z</time>
      </trkpt>
      <trkpt lat="48.72301" lon="1.8111">
        <ele>165.57378</ele>
        <time>2014-07-27T16:20:07Z</time>
      </trkpt>
      <trkpt lat="48.72304" lon="1.81106">
        <ele>165.57378</ele>
        <time>2014-07-27T16:20:10Z</time>
      </trkpt>
      <trkpt lat="48.72314" lon="1.81097">
        <ele>165.99821</ele>
        <time>2014-07-27T16:20:16Z</time>
      </trkpt>
      <trkpt lat="48.72321" lon="1.81081">
        <ele>166.47186</ele>
        <time>2014-07-27T16:20:23Z</time>
      </trkpt>
      <trkpt lat="48.72324" lon="1.81068">
        <ele>167.00476</ele>
        <time>2014-07-27T16:20:26Z</time>
      </trkpt>
      <trkpt lat="48.72328" lon="1.81054">
        <ele>167.54842</ele>
        <time>2014-07-27T16:20:32Z</time>
      </trkpt>
      <trkpt lat="48.72329" lon="1.81044">
        <ele>167.54842</ele>
        <time>2014-07-27T16:20:36Z</time>
      </trkpt>
      <trkpt lat="48.72332" lon="1.81037">
        <ele>168.12993</ele>
        <time>2014-07-27T16:20:42Z</time>
      </trkpt>
      <trkpt lat="48.72333" lon="1.8103">
        <ele>168.12993</ele>
        <time>2014-07-27T16:20:46Z</time>
      </trkpt>
      <trkpt lat="48.72333" lon="1.81023">
        <ele>168.73114</ele>
        <time>2014-07-27T16:20:51Z</time>
      </trkpt>
      <trkpt lat="48.72337" lon="1.81019">
        <ele>168.73114</ele>
        <time>2014-07-27T16:20:55Z</time>
      </trkpt>
      <trkpt lat="48.72343" lon="1.81011">
        <ele>169.34956</ele>
        <time>2014-07-27T16:21:03Z</time>
      </trkpt>
      <trkpt lat="48.72346" lon="1.80991">
        <ele>169.92525</ele>
        <time>2014-07-27T16:21:06Z</time>
      </trkpt>
      <trkpt lat="48.72352" lon="1.80976">
        <ele>170.47484</ele>
        <time>2014-07-27T16:21:12Z</time>
      </trkpt>
      <trkpt lat="48.72356" lon="1.80968">
        <ele>170.47484</ele>
        <time>2014-07-27T16:21:17Z</time>
      </trkpt>
      <trkpt lat="48.72364" lon="1.8095">
        <ele>171.01385</ele>
        <time>2014-07-27T16:21:21Z</time>
      </trkpt>
      <trkpt lat="48.72378" lon="1.8094">
        <ele>171.51352</ele>
        <time>2014-07-27T16:21:27Z</time>
      </trkpt>
      <trkpt lat="48.72387" lon="1.80941">
        <ele>171.96172</ele>
        <time>2014-07-27T16:21:30Z</time>
      </trkpt>
      <trkpt lat="48.72399" lon="1.80929">
        <ele>172.43382</ele>
        <time>2014-07-27T16:21:37Z</time>
      </trkpt>
      <trkpt lat="48.72407" lon="1.80926">
        <ele>172.43382</ele>
        <time>2014-07-27T16:21:42Z</time>
      </trkpt>
      <trkpt lat="48.72398" lon="1.80901">
        <ele>172.94203</ele>
        <time>2014-07-27T16:21:47Z</time>
      </trkpt>
      <trkpt lat="48.72398" lon="1.80892">
        <ele>172.94203</ele>
        <time>2014-07-27T16:21:51Z</time>
      </trkpt>
      <trkpt lat="48.72402" lon="1.8088">
        <ele>173.43991</ele>
        <time>2014-07-27T16:21:56Z</time>
      </trkpt>
      <trkpt lat="48.72407" lon="1.80863">
        <ele>173.9133</ele>
        <time>2014-07-27T16:22:01Z</time>
      </trkpt>
      <trkpt lat="48.72403" lon="1.80848">
        <ele>174.34921</ele>
        <time>2014-07-27T16:22:06Z</time>
      </trkpt>
      <trkpt lat="48.7241" lon="1.80844">
        <ele>174.34921</ele>
        <time>2014-07-27T16:22:11Z</time>
      </trkpt>
      <trkpt lat="48.72415" lon="1.80839">
        <ele>174.79335</ele>
        <time>2014-07-27T16:22:16Z</time>
      </trkpt>
      <trkpt lat="48.72419" lon="1.80837">
        <ele>174.79335</ele>
        <time>2014-07-27T16:22:20Z</time>
      </trkpt>
      <trkpt lat="48.72423" lon="1.80825">
        <ele>175.17278</ele>
        <time>2014-07-27T16:22:28Z</time>
      </trkpt>
      <trkpt lat="48.72425" lon="1.80816">
        <ele>175.17278</ele>
        <time>2014-07-27T16:22:31Z</time>
      </trkpt>
      <trkpt lat="48.72431" lon="1.80803">
        <ele>175.5066</ele>
        <time>2014-07-27T16:22:37Z</time>
      </trkpt>
      <trkpt lat="48.72435" lon="1.80795">
        <ele>175.5066</ele>
        <time>2014-07-27T16:22:42Z</time>
      </trkpt>
      <trkpt lat="48.72435" lon="1.80794">
        <ele>175.5066</ele>
        <time>2014-07-27T16:22:46Z</time>
      </trkpt>
      <trkpt lat="48.72429" lon="1.80783">
        <ele>175.85591</ele>
        <time>2014-07-27T16:22:51Z</time>
      </trkpt>
      <trkpt lat="48.7243" lon="1.80767">
        <ele>176.16196</ele>
        <time>2014-07-27T16:22:55Z</time>
      </trkpt>
      <trkpt lat="48.72433" lon="1.80753">
        <ele>176.44254</ele>
        <time>2014-07-27T16:23:01Z</time>
      </trkpt>
      <trkpt lat="48.72434" lon="1.80748">
        <ele>176.44254</ele>
        <time>2014-07-27T16:23:08Z</time>
      </trkpt>
      <trkpt lat="48.72436" lon="1.80751">
        <ele>176.44254</ele>
        <time>2014-07-27T16:23:11Z</time>
      </trkpt>
      <trkpt lat="48.72441" lon="1.80756">
        <ele>176.67099</ele>
        <time>2014-07-27T16:23:18Z</time>
      </trkpt>
      <trkpt lat="48.72447" lon="1.80744">
        <ele>176.83717</ele>
        <time>2014-07-27T16:23:20Z</time>
      </trkpt>
      <trkpt lat="48.72446" lon="1.8073">
        <ele>176.96071</ele>
        <time>2014-07-27T16:23:27Z</time>
      </trkpt>
      <trkpt lat="48.72449" lon="1.80734">
        <ele>176.96071</ele>
        <time>2014-07-27T16:23:31Z</time>
      </trkpt>
      <trkpt lat="48.72453" lon="1.80738">
        <ele>176.97342</ele>
        <time>2014-07-27T16:23:37Z</time>
      </trkpt>
      <trkpt lat="48.7246" lon="1.80737">
        <ele>176.97342</ele>
        <time>2014-07-27T16:23:41Z</time>
      </trkpt>
      <trkpt lat="48.72456" lon="1.80724">
        <ele>176.95657</ele>
        <time>2014-07-27T16:23:47Z</time>
      </trkpt>
      <trkpt lat="48.7246" lon="1.80725">
        <ele>176.95657</ele>
        <time>2014-07-27T16:23:51Z</time>
      </trkpt>
      <trkpt lat="48.72462" lon="1.80731">
        <ele>176.95657</ele>
        <time>2014-07-27T16:23:56Z</time>
      </trkpt>
      <trkpt lat="48.72461" lon="1.80732">
        <ele>176.88469</ele>
        <time>2014-07-27T16:24:02Z</time>
      </trkpt>
      <trkpt lat="48.72461" lon="1.80731">
        <ele>176.88469</ele>
        <time>2014-07-27T16:24:07Z</time>
      </trkpt>
      <trkpt lat="48.72459" lon="1.80734">
        <ele>176.88469</ele>
        <time>2014-07-27T16:24:12Z</time>
      </trkpt>
      <trkpt lat="48.72454" lon="1.8073">
        <ele>176.79195</ele>
        <time>2014-07-27T16:24:23Z</time>
      </trkpt>
      <trkpt lat="48.72456" lon="1.80728">
        <ele>176.79195</ele>
        <time>2014-07-27T16:24:26Z</time>
      </trkpt>
      <trkpt lat="48.72452" lon="1.8072">
        <ele>176.79195</ele>
        <time>2014-07-27T16:24:37Z</time>
      </trkpt>
      <trkpt lat="48.72448" lon="1.80722">
        <ele>176.69563</ele>
        <time>2014-07-27T16:24:41Z</time>
      </trkpt>
      <trkpt lat="48.72443" lon="1.80724">
        <ele>176.69563</ele>
        <time>2014-07-27T16:24:46Z</time>
      </trkpt>
      <trkpt lat="48.72441" lon="1.80728">
        <ele>176.69563</ele>
        <time>2014-07-27T16:24:51Z</time>
      </trkpt>
      <trkpt lat="48.72443" lon="1.80723">
        <ele>176.5974</ele>
        <time>2014-07-27T16:24:57Z</time>
      </trkpt>
      <trkpt lat="48.72445" lon="1.80714">
        <ele>176.5974</ele>
        <time>2014-07-27T16:25:01Z</time>
      </trkpt>
      <trkpt lat="48.72443" lon="1.80713">
        <ele>176.5974</ele>
        <time>2014-07-27T16:25:06Z</time>
      </trkpt>
      <trkpt lat="48.72462" lon="1.80732">
        <ele>174.95671</ele>
        <time>2014-07-27T16:25:27Z</time>
      </trkpt>
      <trkpt lat="48.72461" lon="1.80734">
        <ele>174.95671</ele>
        <time>2014-07-27T16:25:31Z</time>
      </trkpt>
      <trkpt lat="48.72462" lon="1.80735">
        <ele>174.95671</ele>
        <time>2014-07-27T16:25:38Z</time>
      </trkpt>
      <trkpt lat="48.72471" lon="1.8074">
        <ele>174.18394</ele>
        <time>2014-07-27T16:25:41Z</time>
      </trkpt>
      <trkpt lat="48.72476" lon="1.80748">
        <ele>174.18394</ele>
        <time>2014-07-27T16:25:48Z</time>
      </trkpt>
      <trkpt lat="48.72479" lon="1.80755">
        <ele>173.51239</ele>
        <time>2014-07-27T16:25:50Z</time>
      </trkpt>
      <trkpt lat="48.72481" lon="1.80761">
        <ele>173.51239</ele>
        <time>2014-07-27T16:25:56Z</time>
      </trkpt>
      <trkpt lat="48.72488" lon="1.80762">
        <ele>172.8654</ele>
        <time>2014-07-27T16:26:01Z</time>
      </trkpt>
      <trkpt lat="48.72488" lon="1.80776">
        <ele>172.25838</ele>
        <time>2014-07-27T16:26:08Z</time>
      </trkpt>
      <trkpt lat="48.72488" lon="1.80781">
        <ele>172.25838</ele>
        <time>2014-07-27T16:26:11Z</time>
      </trkpt>
      <trkpt lat="48.72495" lon="1.80791">
        <ele>171.67656</ele>
        <time>2014-07-27T16:26:17Z</time>
      </trkpt>
      <trkpt lat="48.72501" lon="1.80797">
        <ele>171.67656</ele>
        <time>2014-07-27T16:26:22Z</time>
      </trkpt>
      <trkpt lat="48.72505" lon="1.80804">
        <ele>171.12057</ele>
        <time>2014-07-27T16:26:27Z</time>
      </trkpt>
      <trkpt lat="48.72512" lon="1.80818">
        <ele>170.59088</ele>
        <time>2014-07-27T16:26:32Z</time>
      </trkpt>
      <trkpt lat="48.72511" lon="1.80827">
        <ele>170.59088</ele>
        <time>2014-07-27T16:26:37Z</time>
      </trkpt>
      <trkpt lat="48.72517" lon="1.80838">
        <ele>170.08775</ele>
        <time>2014-07-27T16:26:42Z</time>
      </trkpt>
      <trkpt lat="48.72523" lon="1.80846">
        <ele>170.08775</ele>
        <time>2014-07-27T16:26:47Z</time>
      </trkpt>
      <trkpt lat="48.72525" lon="1.80851">
        <ele>169.61133</ele>
        <time>2014-07-27T16:26:51Z</time>
      </trkpt>
      <trkpt lat="48.7254" lon="1.8086">
        <ele>169.16156</ele>
        <time>2014-07-27T16:26:55Z</time>
      </trkpt>
      <trkpt lat="48.72554" lon="1.80861">
        <ele>168.7239</ele>
        <time>2014-07-27T16:27:03Z</time>
      </trkpt>
      <trkpt lat="48.72555" lon="1.8086">
        <ele>168.7239</ele>
        <time>2014-07-27T16:27:06Z</time>
      </trkpt>
      <trkpt lat="48.7256" lon="1.80862">
        <ele>168.7239</ele>
        <time>2014-07-27T16:27:13Z</time>
      </trkpt>
      <trkpt lat="48.72559" lon="1.80866">
        <ele>168.29918</ele>
        <time>2014-07-27T16:27:16Z</time>
      </trkpt>
      <trkpt lat="48.72564" lon="1.80876">
        <ele>168.29918</ele>
        <time>2014-07-27T16:27:23Z</time>
      </trkpt>
      <trkpt lat="48.72571" lon="1.80888">
        <ele>167.88802</ele>
        <time>2014-07-27T16:27:26Z</time>
      </trkpt>
      <trkpt lat="48.72576" lon="1.80906">
        <ele>167.49092</ele>
        <time>2014-07-27T16:27:33Z</time>
      </trkpt>
      <trkpt lat="48.72581" lon="1.80911">
        <ele>167.49092</ele>
        <time>2014-07-27T16:27:36Z</time>
      </trkpt>
      <trkpt lat="48.7258" lon="1.80917">
        <ele>167.10826</ele>
        <time>2014-07-27T16:27:42Z</time>
      </trkpt>
      <trkpt lat="48.72583" lon="1.80923">
        <ele>167.10826</ele>
        <time>2014-07-27T16:27:47Z</time>
      </trkpt>
      <trkpt lat="48.72586" lon="1.80929">
        <ele>166.74025</ele>
        <time>2014-07-27T16:27:51Z</time>
      </trkpt>
      <trkpt lat="48.72588" lon="1.8094">
        <ele>166.74025</ele>
        <time>2014-07-27T16:27:57Z</time>
      </trkpt>
      <trkpt lat="48.72594" lon="1.80951">
        <ele>166.3582</ele>
        <time>2014-07-27T16:28:01Z</time>
      </trkpt>
      <trkpt lat="48.72592" lon="1.80954">
        <ele>166.3582</ele>
        <time>2014-07-27T16:28:07Z</time>
      </trkpt>
      <trkpt lat="48.72593" lon="1.8096">
        <ele>166.3582</ele>
        <time>2014-07-27T16:28:12Z</time>
      </trkpt>
      <trkpt lat="48.72593" lon="1.80973">
        <ele>165.90663</ele>
        <time>2014-07-27T16:28:17Z</time>
      </trkpt>
      <trkpt lat="48.72603" lon="1.80981">
        <ele>165.47844</ele>
        <time>2014-07-27T16:28:21Z</time>
      </trkpt>
      <trkpt lat="48.72612" lon="1.80984">
        <ele>165.04425</ele>
        <time>2014-07-27T16:28:27Z</time>
      </trkpt>
      <trkpt lat="48.72615" lon="1.80985">
        <ele>165.04425</ele>
        <time>2014-07-27T16:28:31Z</time>
      </trkpt>
      <trkpt lat="48.72622" lon="1.80984">
        <ele>164.62004</ele>
        <time>2014-07-27T16:28:38Z</time>
      </trkpt>
      <trkpt lat="48.72628" lon="1.80981">
        <ele>164.62004</ele>
        <time>2014-07-27T16:28:41Z</time>
      </trkpt>
      <trkpt lat="48.72648" lon="1.80971">
        <ele>164.22054</ele>
        <time>2014-07-27T16:28:48Z</time>
      </trkpt>
      <trkpt lat="48.72656" lon="1.80968">
        <ele>164.22054</ele>
        <time>2014-07-27T16:28:50Z</time>
      </trkpt>
      <trkpt lat="48.72659" lon="1.8096">
        <ele>163.87364</ele>
        <time>2014-07-27T16:28:55Z</time>
      </trkpt>
      <trkpt lat="48.72666" lon="1.8095">
        <ele>163.54742</ele>
        <time>2014-07-27T16:29:01Z</time>
      </trkpt>
      <trkpt lat="48.72671" lon="1.80938">
        <ele>163.22652</ele>
        <time>2014-07-27T16:29:07Z</time>
      </trkpt>
      <trkpt lat="48.72679" lon="1.80937">
        <ele>163.22652</ele>
        <time>2014-07-27T16:29:12Z</time>
      </trkpt>
      <trkpt lat="48.7269" lon="1.80929">
        <ele>162.9111</ele>
        <time>2014-07-27T16:29:17Z</time>
      </trkpt>
      <trkpt lat="48.72697" lon="1.8092">
        <ele>162.61565</ele>
        <time>2014-07-27T16:29:22Z</time>
      </trkpt>
      <trkpt lat="48.72704" lon="1.80916">
        <ele>162.61565</ele>
        <time>2014-07-27T16:29:27Z</time>
      </trkpt>
      <trkpt lat="48.72708" lon="1.80913">
        <ele>162.31024</ele>
        <time>2014-07-27T16:29:31Z</time>
      </trkpt>
      <trkpt lat="48.72709" lon="1.809">
        <ele>162.31024</ele>
        <time>2014-07-27T16:29:37Z</time>
      </trkpt>
      <trkpt lat="48.7271" lon="1.80885">
        <ele>161.99597</ele>
        <time>2014-07-27T16:29:41Z</time>
      </trkpt>
      <trkpt lat="48.72714" lon="1.80877">
        <ele>161.99597</ele>
        <time>2014-07-27T16:29:47Z</time>
      </trkpt>
      <trkpt lat="48.72718" lon="1.80876">
        <ele>161.70264</ele>
        <time>2014-07-27T16:29:51Z</time>
      </trkpt>
      <trkpt lat="48.72721" lon="1.80867">
        <ele>161.70264</ele>
        <time>2014-07-27T16:29:56Z</time>
      </trkpt>
      <trkpt lat="48.72731" lon="1.80859">
        <ele>161.40015</ele>
        <time>2014-07-27T16:30:03Z</time>
      </trkpt>
      <trkpt lat="48.72735" lon="1.80847">
        <ele>161.40015</ele>
        <time>2014-07-27T16:30:06Z</time>
      </trkpt>
      <trkpt lat="48.72738" lon="1.80836">
        <ele>161.11821</ele>
        <time>2014-07-27T16:30:12Z</time>
      </trkpt>
      <trkpt lat="48.72738" lon="1.80828">
        <ele>161.11821</ele>
        <time>2014-07-27T16:30:16Z</time>
      </trkpt>
      <trkpt lat="48.72743" lon="1.8081">
        <ele>160.81223</ele>
        <time>2014-07-27T16:30:22Z</time>
      </trkpt>
      <trkpt lat="48.72748" lon="1.80797">
        <ele>160.54178</ele>
        <time>2014-07-27T16:30:26Z</time>
      </trkpt>
      <trkpt lat="48.72755" lon="1.80786">
        <ele>160.28987</ele>
        <time>2014-07-27T16:30:32Z</time>
      </trkpt>
      <trkpt lat="48.72761" lon="1.80782">
        <ele>160.28987</ele>
        <time>2014-07-27T16:30:37Z</time>
      </trkpt>
      <trkpt lat="48.72765" lon="1.80777">
        <ele>160.05513</ele>
        <time>2014-07-27T16:30:41Z</time>
      </trkpt>
      <trkpt lat="48.72768" lon="1.80769">
        <ele>160.05513</ele>
        <time>2014-07-27T16:30:47Z</time>
      </trkpt>
      <trkpt lat="48.72771" lon="1.80763">
        <ele>159.85057</ele>
        <time>2014-07-27T16:30:51Z</time>
      </trkpt>
      <trkpt lat="48.72779" lon="1.80747">
        <ele>159.65936</ele>
        <time>2014-07-27T16:30:56Z</time>
      </trkpt>
      <trkpt lat="48.72789" lon="1.8074">
        <ele>159.49464</ele>
        <time>2014-07-27T16:31:01Z</time>
      </trkpt>
      <trkpt lat="48.72795" lon="1.80728">
        <ele>159.36852</ele>
        <time>2014-07-27T16:31:07Z</time>
      </trkpt>
      <trkpt lat="48.72799" lon="1.80727">
        <ele>159.36852</ele>
        <time>2014-07-27T16:31:11Z</time>
      </trkpt>
      <trkpt lat="48.72801" lon="1.80717">
        <ele>159.26321</ele>
        <time>2014-07-27T16:31:17Z</time>
      </trkpt>
      <trkpt lat="48.72807" lon="1.80711">
        <ele>159.26321</ele>
        <time>2014-07-27T16:31:22Z</time>
      </trkpt>
      <trkpt lat="48.72818" lon="1.80704">
        <ele>159.19109</ele>
        <time>2014-07-27T16:31:26Z</time>
      </trkpt>
      <trkpt lat="48.72825" lon="1.80687">
        <ele>159.14899</ele>
        <time>2014-07-27T16:31:32Z</time>
      </trkpt>
      <trkpt lat="48.72828" lon="1.8067">
        <ele>159.13396</ele>
        <time>2014-07-27T16:31:36Z</time>
      </trkpt>
      <trkpt lat="48.72834" lon="1.80654">
        <ele>159.14316</ele>
        <time>2014-07-27T16:31:42Z</time>
      </trkpt>
      <trkpt lat="48.72835" lon="1.80647">
        <ele>159.14316</ele>
        <time>2014-07-27T16:31:46Z</time>
      </trkpt>
      <trkpt lat="48.72838" lon="1.80637">
        <ele>159.1739</ele>
        <time>2014-07-27T16:31:51Z</time>
      </trkpt>
      <trkpt lat="48.72844" lon="1.80631">
        <ele>159.1739</ele>
        <time>2014-07-27T16:31:55Z</time>
      </trkpt>
      <trkpt lat="48.72851" lon="1.80622">
        <ele>159.22363</ele>
        <time>2014-07-27T16:32:02Z</time>
      </trkpt>
      <trkpt lat="48.72856" lon="1.80612">
        <ele>159.22363</ele>
        <time>2014-07-27T16:32:07Z</time>
      </trkpt>
      <trkpt lat="48.7286" lon="1.806">
        <ele>159.30434</ele>
        <time>2014-07-27T16:32:12Z</time>
      </trkpt>
      <trkpt lat="48.72862" lon="1.80587">
        <ele>159.30434</ele>
        <time>2014-07-27T16:32:16Z</time>
      </trkpt>
      <trkpt lat="48.72862" lon="1.80584">
        <ele>159.41261</ele>
        <time>2014-07-27T16:32:21Z</time>
      </trkpt>
      <trkpt lat="48.72861" lon="1.80577">
        <ele>159.41261</ele>
        <time>2014-07-27T16:32:27Z</time>
      </trkpt>
      <trkpt lat="48.72855" lon="1.80579">
        <ele>159.5453</ele>
        <time>2014-07-27T16:32:31Z</time>
      </trkpt>
      <trkpt lat="48.72848" lon="1.80575">
        <ele>159.5453</ele>
        <time>2014-07-27T16:32:37Z</time>
      </trkpt>
      <trkpt lat="48.72845" lon="1.8057">
        <ele>159.71376</ele>
        <time>2014-07-27T16:32:42Z</time>
      </trkpt>
      <trkpt lat="48.72842" lon="1.80566">
        <ele>159.71376</ele>
        <time>2014-07-27T16:32:47Z</time>
      </trkpt>
      <trkpt lat="48.72842" lon="1.80567">
        <ele>159.71376</ele>
        <time>2014-07-27T16:32:51Z</time>
      </trkpt>
      <trkpt lat="48.72845" lon="1.80565">
        <ele>159.71376</ele>
        <time>2014-07-27T16:33:02Z</time>
      </trkpt>
      <trkpt lat="48.72845" lon="1.80566">
        <ele>159.71376</ele>
        <time>2014-07-27T16:33:06Z</time>
      </trkpt>
      <trkpt lat="48.72844" lon="1.80561">
        <ele>159.88524</ele>
        <time>2014-07-27T16:33:12Z</time>
      </trkpt>
      <trkpt lat="48.72842" lon="1.80563">
        <ele>159.88524</ele>
        <time>2014-07-27T16:33:16Z</time>
      </trkpt>
      <trkpt lat="48.72844" lon="1.80563">
        <ele>159.88524</ele>
        <time>2014-07-27T16:33:22Z</time>
      </trkpt>
      <trkpt lat="48.72843" lon="1.80565">
        <ele>159.88524</ele>
        <time>2014-07-27T16:33:37Z</time>
      </trkpt>
      <trkpt lat="48.72843" lon="1.80564">
        <ele>159.88524</ele>
        <time>2014-07-27T16:33:41Z</time>
      </trkpt>
      <trkpt lat="48.72845" lon="1.80563">
        <ele>160.13025</ele>
        <time>2014-07-27T16:33:47Z</time>
      </trkpt>
      <trkpt lat="48.72844" lon="1.80561">
        <ele>160.13025</ele>
        <time>2014-07-27T16:33:51Z</time>
      </trkpt>
      <trkpt lat="48.72846" lon="1.80562">
        <ele>160.13025</ele>
        <time>2014-07-27T16:34:26Z</time>
      </trkpt>
      <trkpt lat="48.72846" lon="1.80561">
        <ele>160.13025</ele>
        <time>2014-07-27T16:34:31Z</time>
      </trkpt>
      <trkpt lat="48.72854" lon="1.80569">
        <ele>160.5572</ele>
        <time>2014-07-27T16:34:42Z</time>
      </trkpt>
      <trkpt lat="48.72855" lon="1.8057">
        <ele>160.5572</ele>
        <time>2014-07-27T16:34:46Z</time>
      </trkpt>
      <trkpt lat="48.72851" lon="1.80564">
        <ele>160.5572</ele>
        <time>2014-07-27T16:35:07Z</time>
      </trkpt>
      <trkpt lat="48.72852" lon="1.80563">
        <ele>160.5572</ele>
        <time>2014-07-27T16:35:12Z</time>
      </trkpt>
      <trkpt lat="48.7285" lon="1.80566">
        <ele>161.15076</ele>
        <time>2014-07-27T16:35:22Z</time>
      </trkpt>
      <trkpt lat="48.72848" lon="1.80569">
        <ele>161.15076</ele>
        <time>2014-07-27T16:35:26Z</time>
      </trkpt>
      <trkpt lat="48.72851" lon="1.80576">
        <ele>161.15076</ele>
        <time>2014-07-27T16:35:32Z</time>
      </trkpt>
      <trkpt lat="48.72857" lon="1.80582">
        <ele>161.75214</ele>
        <time>2014-07-27T16:35:37Z</time>
      </trkpt>
      <trkpt lat="48.72865" lon="1.80587">
        <ele>161.75214</ele>
        <time>2014-07-27T16:35:42Z</time>
      </trkpt>
      <trkpt lat="48.72875" lon="1.80583">
        <ele>162.35837</ele>
        <time>2014-07-27T16:35:47Z</time>
      </trkpt>
      <trkpt lat="48.7288" lon="1.80581">
        <ele>162.35837</ele>
        <time>2014-07-27T16:35:51Z</time>
      </trkpt>
      <trkpt lat="48.72886" lon="1.80577">
        <ele>162.93788</ele>
        <time>2014-07-27T16:35:55Z</time>
      </trkpt>
      <trkpt lat="48.72888" lon="1.80584">
        <ele>162.93788</ele>
        <time>2014-07-27T16:36:03Z</time>
      </trkpt>
      <trkpt lat="48.72885" lon="1.80579">
        <ele>163.4904</ele>
        <time>2014-07-27T16:36:05Z</time>
      </trkpt>
      <trkpt lat="48.72887" lon="1.80566">
        <ele>163.4904</ele>
        <time>2014-07-27T16:36:13Z</time>
      </trkpt>
      <trkpt lat="48.72888" lon="1.80557">
        <ele>164.00133</ele>
        <time>2014-07-27T16:36:16Z</time>
      </trkpt>
      <trkpt lat="48.7289" lon="1.80552">
        <ele>164.00133</ele>
        <time>2014-07-27T16:36:23Z</time>
      </trkpt>
      <trkpt lat="48.72889" lon="1.80532">
        <ele>164.48615</ele>
        <time>2014-07-27T16:36:26Z</time>
      </trkpt>
      <trkpt lat="48.7289" lon="1.80515">
        <ele>164.94495</ele>
        <time>2014-07-27T16:36:32Z</time>
      </trkpt>
      <trkpt lat="48.72895" lon="1.80507">
        <ele>164.94495</ele>
        <time>2014-07-27T16:36:37Z</time>
      </trkpt>
      <trkpt lat="48.72901" lon="1.80484">
        <ele>165.37788</ele>
        <time>2014-07-27T16:36:41Z</time>
      </trkpt>
      <trkpt lat="48.72908" lon="1.80443">
        <ele>165.77086</ele>
        <time>2014-07-27T16:36:47Z</time>
      </trkpt>
      <trkpt lat="48.72913" lon="1.80437">
        <ele>165.77086</ele>
        <time>2014-07-27T16:36:51Z</time>
      </trkpt>
      <trkpt lat="48.72914" lon="1.80436">
        <ele>165.77086</ele>
        <time>2014-07-27T16:36:56Z</time>
      </trkpt>
      <trkpt lat="48.72916" lon="1.80427">
        <ele>166.15417</ele>
        <time>2014-07-27T16:37:03Z</time>
      </trkpt>
      <trkpt lat="48.72916" lon="1.80421">
        <ele>166.15417</ele>
        <time>2014-07-27T16:37:06Z</time>
      </trkpt>
      <trkpt lat="48.72918" lon="1.80412">
        <ele>166.52719</ele>
        <time>2014-07-27T16:37:12Z</time>
      </trkpt>
      <trkpt lat="48.7292" lon="1.80406">
        <ele>166.52719</ele>
        <time>2014-07-27T16:37:16Z</time>
      </trkpt>
      <trkpt lat="48.72923" lon="1.80399">
        <ele>166.8894</ele>
        <time>2014-07-27T16:37:20Z</time>
      </trkpt>
      <trkpt lat="48.72932" lon="1.8037">
        <ele>167.226</ele>
        <time>2014-07-27T16:37:26Z</time>
      </trkpt>
      <trkpt lat="48.72939" lon="1.80342">
        <ele>167.5522</ele>
        <time>2014-07-27T16:37:32Z</time>
      </trkpt>
      <trkpt lat="48.72942" lon="1.80333">
        <ele>167.5522</ele>
        <time>2014-07-27T16:37:36Z</time>
      </trkpt>
      <trkpt lat="48.72951" lon="1.80325">
        <ele>167.8822</ele>
        <time>2014-07-27T16:37:42Z</time>
      </trkpt>
      <trkpt lat="48.72956" lon="1.80323">
        <ele>167.8822</ele>
        <time>2014-07-27T16:37:47Z</time>
      </trkpt>
      <trkpt lat="48.72958" lon="1.80322">
        <ele>167.8822</ele>
        <time>2014-07-27T16:37:51Z</time>
      </trkpt>
      <trkpt lat="48.72957" lon="1.80317">
        <ele>168.22922</ele>
        <time>2014-07-27T16:37:55Z</time>
      </trkpt>
      <trkpt lat="48.72954" lon="1.80306">
        <ele>168.22922</ele>
        <time>2014-07-27T16:38:02Z</time>
      </trkpt>
      <trkpt lat="48.72958" lon="1.8031">
        <ele>168.59103</ele>
        <time>2014-07-27T16:38:06Z</time>
      </trkpt>
      <trkpt lat="48.72964" lon="1.80306">
        <ele>168.59103</ele>
        <time>2014-07-27T16:38:11Z</time>
      </trkpt>
      <trkpt lat="48.72971" lon="1.80303">
        <ele>168.98006</ele>
        <time>2014-07-27T16:38:17Z</time>
      </trkpt>
      <trkpt lat="48.72975" lon="1.80301">
        <ele>168.98006</ele>
        <time>2014-07-27T16:38:21Z</time>
      </trkpt>
      <trkpt lat="48.72981" lon="1.80294">
        <ele>169.26363</ele>
        <time>2014-07-27T16:38:27Z</time>
      </trkpt>
      <trkpt lat="48.72987" lon="1.80287">
        <ele>169.26363</ele>
        <time>2014-07-27T16:38:32Z</time>
      </trkpt>
      <trkpt lat="48.7299" lon="1.80283">
        <ele>169.50653</ele>
        <time>2014-07-27T16:38:37Z</time>
      </trkpt>
      <trkpt lat="48.72996" lon="1.80281">
        <ele>169.50653</ele>
        <time>2014-07-27T16:38:42Z</time>
      </trkpt>
      <trkpt lat="48.73003" lon="1.80276">
        <ele>169.68248</ele>
        <time>2014-07-27T16:38:47Z</time>
      </trkpt>
      <trkpt lat="48.73005" lon="1.80274">
        <ele>169.68248</ele>
        <time>2014-07-27T16:38:51Z</time>
      </trkpt>
      <trkpt lat="48.73008" lon="1.80268">
        <ele>169.68248</ele>
        <time>2014-07-27T16:38:56Z</time>
      </trkpt>
      <trkpt lat="48.73019" lon="1.80249">
        <ele>169.79616</ele>
        <time>2014-07-27T16:39:02Z</time>
      </trkpt>
      <trkpt lat="48.73017" lon="1.80239">
        <ele>169.79616</ele>
        <time>2014-07-27T16:39:07Z</time>
      </trkpt>
      <trkpt lat="48.73019" lon="1.80226">
        <ele>169.86656</ele>
        <time>2014-07-27T16:39:12Z</time>
      </trkpt>
      <trkpt lat="48.73023" lon="1.80217">
        <ele>169.86656</ele>
        <time>2014-07-27T16:39:17Z</time>
      </trkpt>
      <trkpt lat="48.73025" lon="1.80205">
        <ele>169.89702</ele>
        <time>2014-07-27T16:39:22Z</time>
      </trkpt>
      <trkpt lat="48.73029" lon="1.80194">
        <ele>169.89702</ele>
        <time>2014-07-27T16:39:27Z</time>
      </trkpt>
      <trkpt lat="48.73031" lon="1.80175">
        <ele>169.90518</ele>
        <time>2014-07-27T16:39:32Z</time>
      </trkpt>
      <trkpt lat="48.73033" lon="1.80169">
        <ele>169.90518</ele>
        <time>2014-07-27T16:39:36Z</time>
      </trkpt>
      <trkpt lat="48.73036" lon="1.80166">
        <ele>169.90518</ele>
        <time>2014-07-27T16:39:42Z</time>
      </trkpt>
      <trkpt lat="48.73041" lon="1.80155">
        <ele>169.89305</ele>
        <time>2014-07-27T16:39:47Z</time>
      </trkpt>
      <trkpt lat="48.73047" lon="1.80149">
        <ele>169.89305</ele>
        <time>2014-07-27T16:39:51Z</time>
      </trkpt>
      <trkpt lat="48.73058" lon="1.80142">
        <ele>169.87704</ele>
        <time>2014-07-27T16:39:56Z</time>
      </trkpt>
      <trkpt lat="48.7306" lon="1.8011">
        <ele>169.82912</ele>
        <time>2014-07-27T16:40:02Z</time>
      </trkpt>
      <trkpt lat="48.73062" lon="1.80103">
        <ele>169.82912</ele>
        <time>2014-07-27T16:40:06Z</time>
      </trkpt>
      <trkpt lat="48.7307" lon="1.80091">
        <ele>169.78107</ele>
        <time>2014-07-27T16:40:12Z</time>
      </trkpt>
      <trkpt lat="48.73073" lon="1.80079">
        <ele>169.78107</ele>
        <time>2014-07-27T16:40:17Z</time>
      </trkpt>
      <trkpt lat="48.73078" lon="1.80069">
        <ele>169.71912</ele>
        <time>2014-07-27T16:40:22Z</time>
      </trkpt>
      <trkpt lat="48.73085" lon="1.80065">
        <ele>169.71912</ele>
        <time>2014-07-27T16:40:26Z</time>
      </trkpt>
      <trkpt lat="48.73089" lon="1.80058">
        <ele>169.65942</ele>
        <time>2014-07-27T16:40:32Z</time>
      </trkpt>
      <trkpt lat="48.73098" lon="1.80035">
        <ele>169.6025</ele>
        <time>2014-07-27T16:40:37Z</time>
      </trkpt>
      <trkpt lat="48.73113" lon="1.80032">
        <ele>169.54883</ele>
        <time>2014-07-27T16:40:42Z</time>
      </trkpt>
      <trkpt lat="48.73115" lon="1.80026">
        <ele>169.54883</ele>
        <time>2014-07-27T16:40:45Z</time>
      </trkpt>
      <trkpt lat="48.73122" lon="1.80005">
        <ele>169.4989</ele>
        <time>2014-07-27T16:40:52Z</time>
      </trkpt>
      <trkpt lat="48.73125" lon="1.79995">
        <ele>169.4989</ele>
        <time>2014-07-27T16:40:56Z</time>
      </trkpt>
      <trkpt lat="48.73125" lon="1.79991">
        <ele>169.4531</ele>
        <time>2014-07-27T16:41:03Z</time>
      </trkpt>
      <trkpt lat="48.73124" lon="1.79983">
        <ele>169.4531</ele>
        <time>2014-07-27T16:41:06Z</time>
      </trkpt>
      <trkpt lat="48.73118" lon="1.7996">
        <ele>169.39738</ele>
        <time>2014-07-27T16:41:12Z</time>
      </trkpt>
      <trkpt lat="48.73114" lon="1.7995">
        <ele>169.39738</ele>
        <time>2014-07-27T16:41:17Z</time>
      </trkpt>
      <trkpt lat="48.73118" lon="1.79933">
        <ele>169.3188</ele>
        <time>2014-07-27T16:41:22Z</time>
      </trkpt>
      <trkpt lat="48.73121" lon="1.79924">
        <ele>169.3188</ele>
        <time>2014-07-27T16:41:27Z</time>
      </trkpt>
      <trkpt lat="48.73124" lon="1.79901">
        <ele>169.21977</ele>
        <time>2014-07-27T16:41:32Z</time>
      </trkpt>
      <trkpt lat="48.73126" lon="1.79893">
        <ele>169.21977</ele>
        <time>2014-07-27T16:41:36Z</time>
      </trkpt>
      <trkpt lat="48.7313" lon="1.79885">
        <ele>169.11703</ele>
        <time>2014-07-27T16:41:42Z</time>
      </trkpt>
      <trkpt lat="48.73138" lon="1.79878">
        <ele>169.01167</ele>
        <time>2014-07-27T16:41:47Z</time>
      </trkpt>
      <trkpt lat="48.73149" lon="1.7988">
        <ele>168.91911</ele>
        <time>2014-07-27T16:41:51Z</time>
      </trkpt>
      <trkpt lat="48.73151" lon="1.7989">
        <ele>168.91911</ele>
        <time>2014-07-27T16:41:56Z</time>
      </trkpt>
      <trkpt lat="48.73137" lon="1.79895">
        <ele>168.82475</ele>
        <time>2014-07-27T16:42:02Z</time>
      </trkpt>
      <trkpt lat="48.73151" lon="1.79884">
        <ele>168.7295</ele>
        <time>2014-07-27T16:42:07Z</time>
      </trkpt>
      <trkpt lat="48.73153" lon="1.79866">
        <ele>168.63417</ele>
        <time>2014-07-27T16:42:11Z</time>
      </trkpt>
      <trkpt lat="48.73163" lon="1.79858">
        <ele>168.55391</ele>
        <time>2014-07-27T16:42:17Z</time>
      </trkpt>
      <trkpt lat="48.73168" lon="1.79853">
        <ele>168.55391</ele>
        <time>2014-07-27T16:42:22Z</time>
      </trkpt>
      <trkpt lat="48.73172" lon="1.79826">
        <ele>168.48828</ele>
        <time>2014-07-27T16:42:27Z</time>
      </trkpt>
      <trkpt lat="48.73175" lon="1.79822">
        <ele>168.48828</ele>
        <time>2014-07-27T16:42:32Z</time>
      </trkpt>
      <trkpt lat="48.73184" lon="1.79808">
        <ele>168.43683</ele>
        <time>2014-07-27T16:42:37Z</time>
      </trkpt>
      <trkpt lat="48.73185" lon="1.79795">
        <ele>168.43683</ele>
        <time>2014-07-27T16:42:41Z</time>
      </trkpt>
      <trkpt lat="48.73186" lon="1.79787">
        <ele>168.39906</ele>
        <time>2014-07-27T16:42:47Z</time>
      </trkpt>
      <trkpt lat="48.73184" lon="1.79773">
        <ele>168.36009</ele>
        <time>2014-07-27T16:42:51Z</time>
      </trkpt>
      <trkpt lat="48.73185" lon="1.79763">
        <ele>168.36009</ele>
        <time>2014-07-27T16:42:56Z</time>
      </trkpt>
      <trkpt lat="48.73183" lon="1.79749">
        <ele>168.34929</ele>
        <time>2014-07-27T16:43:02Z</time>
      </trkpt>
      <trkpt lat="48.73181" lon="1.79741">
        <ele>168.34929</ele>
        <time>2014-07-27T16:43:06Z</time>
      </trkpt>
      <trkpt lat="48.73183" lon="1.79736">
        <ele>168.35059</ele>
        <time>2014-07-27T16:43:11Z</time>
      </trkpt>
      <trkpt lat="48.73184" lon="1.79731">
        <ele>168.35059</ele>
        <time>2014-07-27T16:43:16Z</time>
      </trkpt>
      <trkpt lat="48.73191" lon="1.79725">
        <ele>168.37784</ele>
        <time>2014-07-27T16:43:23Z</time>
      </trkpt>
      <trkpt lat="48.73193" lon="1.7972">
        <ele>168.37784</ele>
        <time>2014-07-27T16:43:26Z</time>
      </trkpt>
      <trkpt lat="48.73195" lon="1.797">
        <ele>168.41498</ele>
        <time>2014-07-27T16:43:32Z</time>
      </trkpt>
      <trkpt lat="48.73197" lon="1.79693">
        <ele>168.41498</ele>
        <time>2014-07-27T16:43:36Z</time>
      </trkpt>
      <trkpt lat="48.73201" lon="1.79687">
        <ele>168.44705</ele>
        <time>2014-07-27T16:43:42Z</time>
      </trkpt>
      <trkpt lat="48.73198" lon="1.79687">
        <ele>168.44705</ele>
        <time>2014-07-27T16:43:47Z</time>
      </trkpt>
      <trkpt lat="48.73193" lon="1.79683">
        <ele>168.44705</ele>
        <time>2014-07-27T16:43:51Z</time>
      </trkpt>
      <trkpt lat="48.7319" lon="1.79681">
        <ele>168.46025</ele>
        <time>2014-07-27T16:43:55Z</time>
      </trkpt>
      <trkpt lat="48.73189" lon="1.7967">
        <ele>168.46025</ele>
        <time>2014-07-27T16:44:02Z</time>
      </trkpt>
      <trkpt lat="48.73193" lon="1.79659">
        <ele>168.4706</ele>
        <time>2014-07-27T16:44:07Z</time>
      </trkpt>
      <trkpt lat="48.73197" lon="1.79652">
        <ele>168.4706</ele>
        <time>2014-07-27T16:44:12Z</time>
      </trkpt>
      <trkpt lat="48.73197" lon="1.79644">
        <ele>168.47853</ele>
        <time>2014-07-27T16:44:17Z</time>
      </trkpt>
      <trkpt lat="48.732" lon="1.79639">
        <ele>168.47853</ele>
        <time>2014-07-27T16:44:22Z</time>
      </trkpt>
      <trkpt lat="48.73205" lon="1.79629">
        <ele>168.49887</ele>
        <time>2014-07-27T16:44:27Z</time>
      </trkpt>
      <trkpt lat="48.73212" lon="1.79626">
        <ele>168.49887</ele>
        <time>2014-07-27T16:44:32Z</time>
      </trkpt>
      <trkpt lat="48.73219" lon="1.79626">
        <ele>168.53088</ele>
        <time>2014-07-27T16:44:36Z</time>
      </trkpt>
      <trkpt lat="48.73223" lon="1.79617">
        <ele>168.53088</ele>
        <time>2014-07-27T16:44:41Z</time>
      </trkpt>
      <trkpt lat="48.7322" lon="1.7959">
        <ele>168.57382</ele>
        <time>2014-07-27T16:44:47Z</time>
      </trkpt>
      <trkpt lat="48.73222" lon="1.79573">
        <ele>168.61256</ele>
        <time>2014-07-27T16:44:51Z</time>
      </trkpt>
      <trkpt lat="48.73227" lon="1.79561">
        <ele>168.66191</ele>
        <time>2014-07-27T16:44:56Z</time>
      </trkpt>
      <trkpt lat="48.73234" lon="1.79556">
        <ele>168.66191</ele>
        <time>2014-07-27T16:45:02Z</time>
      </trkpt>
      <trkpt lat="48.73237" lon="1.79554">
        <ele>168.70673</ele>
        <time>2014-07-27T16:45:06Z</time>
      </trkpt>
      <trkpt lat="48.73238" lon="1.79553">
        <ele>168.70673</ele>
        <time>2014-07-27T16:45:13Z</time>
      </trkpt>
      <trkpt lat="48.7324" lon="1.79541">
        <ele>168.7618</ele>
        <time>2014-07-27T16:45:16Z</time>
      </trkpt>
      <trkpt lat="48.73255" lon="1.79531">
        <ele>168.81194</ele>
        <time>2014-07-27T16:45:22Z</time>
      </trkpt>
      <trkpt lat="48.73263" lon="1.79522">
        <ele>168.87195</ele>
        <time>2014-07-27T16:45:27Z</time>
      </trkpt>
      <trkpt lat="48.7327" lon="1.79515">
        <ele>168.87195</ele>
        <time>2014-07-27T16:45:32Z</time>
      </trkpt>
      <trkpt lat="48.73281" lon="1.79506">
        <ele>168.95549</ele>
        <time>2014-07-27T16:45:37Z</time>
      </trkpt>
      <trkpt lat="48.73285" lon="1.79502">
        <ele>168.95549</ele>
        <time>2014-07-27T16:45:41Z</time>
      </trkpt>
      <trkpt lat="48.73291" lon="1.79488">
        <ele>169.04633</ele>
        <time>2014-07-27T16:45:48Z</time>
      </trkpt>
      <trkpt lat="48.73294" lon="1.79485">
        <ele>169.04633</ele>
        <time>2014-07-27T16:45:51Z</time>
      </trkpt>
      <trkpt lat="48.73313" lon="1.79525">
        <ele>169.17259</ele>
        <time>2014-07-27T16:46:13Z</time>
      </trkpt>
      <trkpt lat="48.73322" lon="1.79534">
        <ele>169.30266</ele>
        <time>2014-07-27T16:46:16Z</time>
      </trkpt>
      <trkpt lat="48.73336" lon="1.7953">
        <ele>169.42155</ele>
        <time>2014-07-27T16:46:23Z</time>
      </trkpt>
      <trkpt lat="48.73342" lon="1.79533">
        <ele>169.42155</ele>
        <time>2014-07-27T16:46:26Z</time>
      </trkpt>
      <trkpt lat="48.73347" lon="1.79531">
        <ele>169.5299</ele>
        <time>2014-07-27T16:46:33Z</time>
      </trkpt>
      <trkpt lat="48.7346" lon="1.79351">
        <ele>169.42651</ele>
        <time>2014-07-27T16:49:02Z</time>
      </trkpt>
      <trkpt lat="48.73456" lon="1.79348">
        <ele>169.42651</ele>
        <time>2014-07-27T16:49:06Z</time>
      </trkpt>
      <trkpt lat="48.73444" lon="1.79341">
        <ele>169.3435</ele>
        <time>2014-07-27T16:49:12Z</time>
      </trkpt>
      <trkpt lat="48.73432" lon="1.79336">
        <ele>169.2653</ele>
        <time>2014-07-27T16:49:17Z</time>
      </trkpt>
      <trkpt lat="48.73426" lon="1.79327">
        <ele>169.2653</ele>
        <time>2014-07-27T16:49:21Z</time>
      </trkpt>
      <trkpt lat="48.73425" lon="1.79323">
        <ele>169.20628</ele>
        <time>2014-07-27T16:49:28Z</time>
      </trkpt>
      <trkpt lat="48.73202" lon="1.78841">
        <ele>169.33823</ele>
        <time>2014-07-27T16:52:56Z</time>
      </trkpt>
      <trkpt lat="48.73202" lon="1.78832">
        <ele>169.33823</ele>
        <time>2014-07-27T16:53:00Z</time>
      </trkpt>
      <trkpt lat="48.7319" lon="1.78821">
        <ele>169.3586</ele>
        <time>2014-07-27T16:53:08Z</time>
      </trkpt>
      <trkpt lat="48.73185" lon="1.78813">
        <ele>169.3586</ele>
        <time>2014-07-27T16:53:11Z</time>
      </trkpt>
      <trkpt lat="48.73177" lon="1.78795">
        <ele>169.33328</ele>
        <time>2014-07-27T16:53:18Z</time>
      </trkpt>
      <trkpt lat="48.73164" lon="1.78778">
        <ele>169.32341</ele>
        <time>2014-07-27T16:53:20Z</time>
      </trkpt>
      <trkpt lat="48.73157" lon="1.78769">
        <ele>169.32797</ele>
        <time>2014-07-27T16:53:27Z</time>
      </trkpt>
      <trkpt lat="48.73154" lon="1.78766">
        <ele>169.32797</ele>
        <time>2014-07-27T16:53:31Z</time>
      </trkpt>
      <trkpt lat="48.73153" lon="1.78679">
        <ele>169.2739</ele>
        <time>2014-07-27T16:54:06Z</time>
      </trkpt>
      <trkpt lat="48.73152" lon="1.78669">
        <ele>169.2739</ele>
        <time>2014-07-27T16:54:12Z</time>
      </trkpt>
      <trkpt lat="48.73148" lon="1.78666">
        <ele>169.2522</ele>
        <time>2014-07-27T16:54:17Z</time>
      </trkpt>
      <trkpt lat="48.7314" lon="1.78642">
        <ele>169.2606</ele>
        <time>2014-07-27T16:54:22Z</time>
      </trkpt>
      <trkpt lat="48.73136" lon="1.78623">
        <ele>169.28255</ele>
        <time>2014-07-27T16:54:27Z</time>
      </trkpt>
      <trkpt lat="48.73133" lon="1.78605">
        <ele>169.31702</ele>
        <time>2014-07-27T16:54:32Z</time>
      </trkpt>
      <trkpt lat="48.73138" lon="1.78587">
        <ele>169.37747</ele>
        <time>2014-07-27T16:54:37Z</time>
      </trkpt>
      <trkpt lat="48.73137" lon="1.78564">
        <ele>169.44746</ele>
        <time>2014-07-27T16:54:42Z</time>
      </trkpt>
      <trkpt lat="48.73126" lon="1.78534">
        <ele>169.54057</ele>
        <time>2014-07-27T16:54:47Z</time>
      </trkpt>
      <trkpt lat="48.73116" lon="1.78512">
        <ele>169.64047</ele>
        <time>2014-07-27T16:54:51Z</time>
      </trkpt>
      <trkpt lat="48.73113" lon="1.78484">
        <ele>169.76082</ele>
        <time>2014-07-27T16:54:56Z</time>
      </trkpt>
      <trkpt lat="48.73108" lon="1.78455">
        <ele>169.88542</ele>
        <time>2014-07-27T16:55:03Z</time>
      </trkpt>
      <trkpt lat="48.73107" lon="1.78442">
        <ele>169.88542</ele>
        <time>2014-07-27T16:55:06Z</time>
      </trkpt>
      <trkpt lat="48.73104" lon="1.78408">
        <ele>170.02809</ele>
        <time>2014-07-27T16:55:12Z</time>
      </trkpt>
      <trkpt lat="48.73093" lon="1.78382">
        <ele>170.18712</ele>
        <time>2014-07-27T16:55:17Z</time>
      </trkpt>
      <trkpt lat="48.73074" lon="1.78366">
        <ele>170.36093</ele>
        <time>2014-07-27T16:55:22Z</time>
      </trkpt>
      <trkpt lat="48.73053" lon="1.78349">
        <ele>170.53358</ele>
        <time>2014-07-27T16:55:27Z</time>
      </trkpt>
      <trkpt lat="48.73039" lon="1.78332">
        <ele>170.73357</ele>
        <time>2014-07-27T16:55:31Z</time>
      </trkpt>
      <trkpt lat="48.73013" lon="1.78313">
        <ele>170.94395</ele>
        <time>2014-07-27T16:55:37Z</time>
      </trkpt>
      <trkpt lat="48.72998" lon="1.78302">
        <ele>171.13466</ele>
        <time>2014-07-27T16:55:41Z</time>
      </trkpt>
      <trkpt lat="48.72978" lon="1.78282">
        <ele>171.30664</ele>
        <time>2014-07-27T16:55:47Z</time>
      </trkpt>
      <trkpt lat="48.72968" lon="1.78274">
        <ele>171.46089</ele>
        <time>2014-07-27T16:55:51Z</time>
      </trkpt>
      <trkpt lat="48.72952" lon="1.78264">
        <ele>171.59839</ele>
        <time>2014-07-27T16:55:56Z</time>
      </trkpt>
      <trkpt lat="48.72931" lon="1.78246">
        <ele>171.70564</ele>
        <time>2014-07-27T16:56:01Z</time>
      </trkpt>
      <trkpt lat="48.72909" lon="1.78224">
        <ele>171.81354</ele>
        <time>2014-07-27T16:56:07Z</time>
      </trkpt>
      <trkpt lat="48.72897" lon="1.78212">
        <ele>171.90742</ele>
        <time>2014-07-27T16:56:12Z</time>
      </trkpt>
      <trkpt lat="48.72888" lon="1.78202">
        <ele>172.01701</ele>
        <time>2014-07-27T16:56:16Z</time>
      </trkpt>
      <trkpt lat="48.72871" lon="1.78184">
        <ele>172.12657</ele>
        <time>2014-07-27T16:56:22Z</time>
      </trkpt>
      <trkpt lat="48.72859" lon="1.78172">
        <ele>172.22156</ele>
        <time>2014-07-27T16:56:27Z</time>
      </trkpt>
      <trkpt lat="48.72847" lon="1.78161">
        <ele>172.3029</ele>
        <time>2014-07-27T16:56:31Z</time>
      </trkpt>
      <trkpt lat="48.72832" lon="1.7814">
        <ele>172.37155</ele>
        <time>2014-07-27T16:56:37Z</time>
      </trkpt>
      <trkpt lat="48.72819" lon="1.78128">
        <ele>172.41402</ele>
        <time>2014-07-27T16:56:42Z</time>
      </trkpt>
      <trkpt lat="48.7281" lon="1.78118">
        <ele>172.44669</ele>
        <time>2014-07-27T16:56:47Z</time>
      </trkpt>
      <trkpt lat="48.72807" lon="1.78111">
        <ele>172.44669</ele>
        <time>2014-07-27T16:56:51Z</time>
      </trkpt>
      <trkpt lat="48.72803" lon="1.78105">
        <ele>172.47038</ele>
        <time>2014-07-27T16:56:55Z</time>
      </trkpt>
      <trkpt lat="48.72793" lon="1.78102">
        <ele>172.50029</ele>
        <time>2014-07-27T16:57:03Z</time>
      </trkpt>
      <trkpt lat="48.72788" lon="1.78096">
        <ele>172.50029</ele>
        <time>2014-07-27T16:57:06Z</time>
      </trkpt>
      <trkpt lat="48.72779" lon="1.78081">
        <ele>172.50725</ele>
        <time>2014-07-27T16:57:12Z</time>
      </trkpt>
      <trkpt lat="48.72771" lon="1.78078">
        <ele>172.50725</ele>
        <time>2014-07-27T16:57:16Z</time>
      </trkpt>
      <trkpt lat="48.72767" lon="1.78077">
        <ele>172.55077</ele>
        <time>2014-07-27T16:57:22Z</time>
      </trkpt>
      <trkpt lat="48.72764" lon="1.78077">
        <ele>172.55077</ele>
        <time>2014-07-27T16:57:26Z</time>
      </trkpt>
      <trkpt lat="48.72763" lon="1.78074">
        <ele>172.55077</ele>
        <time>2014-07-27T16:57:32Z</time>
      </trkpt>
      <trkpt lat="48.72764" lon="1.78072">
        <ele>172.55077</ele>
        <time>2014-07-27T16:57:37Z</time>
      </trkpt>
      <trkpt lat="48.7276" lon="1.7807">
        <ele>172.64265</ele>
        <time>2014-07-27T16:57:42Z</time>
      </trkpt>
      <trkpt lat="48.72761" lon="1.78069">
        <ele>172.64265</ele>
        <time>2014-07-27T16:57:47Z</time>
      </trkpt>
      <trkpt lat="48.7276" lon="1.78066">
        <ele>172.64265</ele>
        <time>2014-07-27T16:57:51Z</time>
      </trkpt>
      <trkpt lat="48.72757" lon="1.78073">
        <ele>172.64265</ele>
        <time>2014-07-27T16:57:56Z</time>
      </trkpt>
      <trkpt lat="48.72753" lon="1.78067">
        <ele>172.7649</ele>
        <time>2014-07-27T16:58:03Z</time>
      </trkpt>
      <trkpt lat="48.72749" lon="1.78066">
        <ele>172.7649</ele>
        <time>2014-07-27T16:58:06Z</time>
      </trkpt>
      <trkpt lat="48.7275" lon="1.78071">
        <ele>172.7649</ele>
        <time>2014-07-27T16:58:12Z</time>
      </trkpt>
      <trkpt lat="48.72759" lon="1.7807">
        <ele>172.85748</ele>
        <time>2014-07-27T16:58:18Z</time>
      </trkpt>
      <trkpt lat="48.7276" lon="1.78071">
        <ele>172.85748</ele>
        <time>2014-07-27T16:58:20Z</time>
      </trkpt>
      <trkpt lat="48.72759" lon="1.78081">
        <ele>172.85748</ele>
        <time>2014-07-27T16:58:28Z</time>
      </trkpt>
      <trkpt lat="48.72759" lon="1.78082">
        <ele>172.85748</ele>
        <time>2014-07-27T16:58:31Z</time>
      </trkpt>
      <trkpt lat="48.72765" lon="1.78084">
        <ele>172.90814</ele>
        <time>2014-07-27T16:58:37Z</time>
      </trkpt>
      <trkpt lat="48.72758" lon="1.78083">
        <ele>172.90814</ele>
        <time>2014-07-27T16:58:41Z</time>
      </trkpt>
      <trkpt lat="48.72753" lon="1.78078">
        <ele>172.93443</ele>
        <time>2014-07-27T16:58:47Z</time>
      </trkpt>
      <trkpt lat="48.72748" lon="1.7808">
        <ele>172.93443</ele>
        <time>2014-07-27T16:58:56Z</time>
      </trkpt>
      <trkpt lat="48.72732" lon="1.7806">
        <ele>172.98154</ele>
        <time>2014-07-27T16:59:03Z</time>
      </trkpt>
      <trkpt lat="48.72725" lon="1.78054">
        <ele>172.98154</ele>
        <time>2014-07-27T16:59:06Z</time>
      </trkpt>
      <trkpt lat="48.72723" lon="1.78056">
        <ele>173.07681</ele>
        <time>2014-07-27T16:59:12Z</time>
      </trkpt>
      <trkpt lat="48.72722" lon="1.78063">
        <ele>173.07681</ele>
        <time>2014-07-27T16:59:17Z</time>
      </trkpt>
      <trkpt lat="48.72719" lon="1.78062">
        <ele>173.07681</ele>
        <time>2014-07-27T16:59:22Z</time>
      </trkpt>
      <trkpt lat="48.72711" lon="1.78059">
        <ele>173.18787</ele>
        <time>2014-07-27T16:59:27Z</time>
      </trkpt>
      <trkpt lat="48.70975" lon="1.77502">
        <ele>173.51521</ele>
        <time>2014-07-27T17:16:41Z</time>
      </trkpt>
      <trkpt lat="48.70957" lon="1.77462">
        <ele>173.79726</ele>
        <time>2014-07-27T17:16:47Z</time>
      </trkpt>
      <trkpt lat="48.70939" lon="1.77423">
        <ele>174.0368</ele>
        <time>2014-07-27T17:16:51Z</time>
      </trkpt>
      <trkpt lat="48.70926" lon="1.77391">
        <ele>174.2365</ele>
        <time>2014-07-27T17:16:55Z</time>
      </trkpt>
      <trkpt lat="48.70898" lon="1.77341">
        <ele>174.38457</ele>
        <time>2014-07-27T17:17:02Z</time>
      </trkpt>
      <trkpt lat="48.70883" lon="1.7731">
        <ele>174.4846</ele>
        <time>2014-07-27T17:17:07Z</time>
      </trkpt>
      <trkpt lat="48.70875" lon="1.7729">
        <ele>174.54013</ele>
        <time>2014-07-27T17:17:12Z</time>
      </trkpt>
      <trkpt lat="48.70866" lon="1.77268">
        <ele>174.56894</ele>
        <time>2014-07-27T17:17:17Z</time>
      </trkpt>
      <trkpt lat="48.70858" lon="1.77255">
        <ele>174.55873</ele>
        <time>2014-07-27T17:17:21Z</time>
      </trkpt>
      <trkpt lat="48.70848" lon="1.77251">
        <ele>174.5271</ele>
        <time>2014-07-27T17:17:27Z</time>
      </trkpt>
      <trkpt lat="48.70836" lon="1.77246">
        <ele>174.46155</ele>
        <time>2014-07-27T17:17:31Z</time>
      </trkpt>
      <trkpt lat="48.70825" lon="1.77248">
        <ele>174.37946</ele>
        <time>2014-07-27T17:17:37Z</time>
      </trkpt>
      <trkpt lat="48.70813" lon="1.77245">
        <ele>174.28253</ele>
        <time>2014-07-27T17:17:42Z</time>
      </trkpt>
      <trkpt lat="48.70796" lon="1.77242">
        <ele>174.17241</ele>
        <time>2014-07-27T17:17:47Z</time>
      </trkpt>
      <trkpt lat="48.7077" lon="1.77232">
        <ele>174.05063</ele>
        <time>2014-07-27T17:17:51Z</time>
      </trkpt>
      <trkpt lat="48.70759" lon="1.7723">
        <ele>173.91866</ele>
        <time>2014-07-27T17:17:55Z</time>
      </trkpt>
      <trkpt lat="48.70737" lon="1.77235">
        <ele>173.77786</ele>
        <time>2014-07-27T17:18:03Z</time>
      </trkpt>
      <trkpt lat="48.70727" lon="1.77237">
        <ele>173.62955</ele>
        <time>2014-07-27T17:18:06Z</time>
      </trkpt>
      <trkpt lat="48.70705" lon="1.77242">
        <ele>173.47491</ele>
        <time>2014-07-27T17:18:12Z</time>
      </trkpt>
      <trkpt lat="48.70694" lon="1.77247">
        <ele>173.32951</ele>
        <time>2014-07-27T17:18:16Z</time>
      </trkpt>
      <trkpt lat="48.70677" lon="1.7725">
        <ele>173.17886</ele>
        <time>2014-07-27T17:18:22Z</time>
      </trkpt>
      <trkpt lat="48.70663" lon="1.77251">
        <ele>173.024</ele>
        <time>2014-07-27T17:18:27Z</time>
      </trkpt>
      <trkpt lat="48.70644" lon="1.7725">
        <ele>172.86584</ele>
        <time>2014-07-27T17:18:32Z</time>
      </trkpt>
      <trkpt lat="48.70633" lon="1.77248">
        <ele>172.70529</ele>
        <time>2014-07-27T17:18:37Z</time>
      </trkpt>
      <trkpt lat="48.70624" lon="1.77246">
        <ele>172.55751</ele>
        <time>2014-07-27T17:18:42Z</time>
      </trkpt>
      <trkpt lat="48.70611" lon="1.77243">
        <ele>172.42215</ele>
        <time>2014-07-27T17:18:46Z</time>
      </trkpt>
      <trkpt lat="48.70594" lon="1.77241">
        <ele>172.2988</ele>
        <time>2014-07-27T17:18:52Z</time>
      </trkpt>
      <trkpt lat="48.70579" lon="1.77237">
        <ele>172.18704</ele>
        <time>2014-07-27T17:18:55Z</time>
      </trkpt>
      <trkpt lat="48.70555" lon="1.77227">
        <ele>172.07204</ele>
        <time>2014-07-27T17:19:02Z</time>
      </trkpt>
      <trkpt lat="48.7054" lon="1.77221">
        <ele>171.96884</ele>
        <time>2014-07-27T17:19:07Z</time>
      </trkpt>
      <trkpt lat="48.7052" lon="1.77217">
        <ele>171.86252</ele>
        <time>2014-07-27T17:19:12Z</time>
      </trkpt>
      <trkpt lat="48.70511" lon="1.7722">
        <ele>171.86252</ele>
        <time>2014-07-27T17:19:17Z</time>
      </trkpt>
      <trkpt lat="48.70503" lon="1.77222">
        <ele>171.78249</ele>
        <time>2014-07-27T17:19:22Z</time>
      </trkpt>
      <trkpt lat="48.70487" lon="1.77222">
        <ele>171.69824</ele>
        <time>2014-07-27T17:19:26Z</time>
      </trkpt>
      <trkpt lat="48.70472" lon="1.77218">
        <ele>171.61035</ele>
        <time>2014-07-27T17:19:32Z</time>
      </trkpt>
      <trkpt lat="48.70466" lon="1.77218">
        <ele>171.61035</ele>
        <time>2014-07-27T17:19:36Z</time>
      </trkpt>
      <trkpt lat="48.70463" lon="1.7722">
        <ele>171.53375</ele>
        <time>2014-07-27T17:19:42Z</time>
      </trkpt>
      <trkpt lat="48.70461" lon="1.77231">
        <ele>171.53375</ele>
        <time>2014-07-27T17:19:47Z</time>
      </trkpt>
      <trkpt lat="48.70454" lon="1.77231">
        <ele>171.439</ele>
        <time>2014-07-27T17:19:52Z</time>
      </trkpt>
      <trkpt lat="48.70447" lon="1.77231">
        <ele>171.439</ele>
        <time>2014-07-27T17:19:55Z</time>
      </trkpt>
      <trkpt lat="48.70431" lon="1.77238">
        <ele>171.34206</ele>
        <time>2014-07-27T17:20:03Z</time>
      </trkpt>
      <trkpt lat="48.70424" lon="1.77242">
        <ele>171.34206</ele>
        <time>2014-07-27T17:20:06Z</time>
      </trkpt>
      <trkpt lat="48.7042" lon="1.77246">
        <ele>171.24333</ele>
        <time>2014-07-27T17:20:12Z</time>
      </trkpt>
      <trkpt lat="48.70416" lon="1.7725">
        <ele>171.24333</ele>
        <time>2014-07-27T17:20:16Z</time>
      </trkpt>
      <trkpt lat="48.70414" lon="1.77255">
        <ele>171.24333</ele>
        <time>2014-07-27T17:20:22Z</time>
      </trkpt>
      <trkpt lat="48.70406" lon="1.77257">
        <ele>171.172</ele>
        <time>2014-07-27T17:20:26Z</time>
      </trkpt>
      <trkpt lat="48.70398" lon="1.77257">
        <ele>171.172</ele>
        <time>2014-07-27T17:20:32Z</time>
      </trkpt>
      <trkpt lat="48.70394" lon="1.77268">
        <ele>171.12617</ele>
        <time>2014-07-27T17:20:37Z</time>
      </trkpt>
      <trkpt lat="48.70386" lon="1.77268">
        <ele>171.12617</ele>
        <time>2014-07-27T17:20:42Z</time>
      </trkpt>
      <trkpt lat="48.70378" lon="1.77261">
        <ele>171.08965</ele>
        <time>2014-07-27T17:20:47Z</time>
      </trkpt>
      <trkpt lat="48.70374" lon="1.77252">
        <ele>171.08965</ele>
        <time>2014-07-27T17:20:52Z</time>
      </trkpt>
      <trkpt lat="48.70374" lon="1.77246">
        <ele>171.09055</ele>
        <time>2014-07-27T17:20:55Z</time>
      </trkpt>
      <trkpt lat="48.70371" lon="1.77231">
        <ele>171.0972</ele>
        <time>2014-07-27T17:21:03Z</time>
      </trkpt>
      <trkpt lat="48.7037" lon="1.77227">
        <ele>171.0972</ele>
        <time>2014-07-27T17:21:05Z</time>
      </trkpt>
      <trkpt lat="48.70364" lon="1.77215">
        <ele>171.12347</ele>
        <time>2014-07-27T17:21:12Z</time>
      </trkpt>
      <trkpt lat="48.70381" lon="1.77119">
        <ele>171.22537</ele>
        <time>2014-07-27T17:22:07Z</time>
      </trkpt>
      <trkpt lat="48.70383" lon="1.77116">
        <ele>171.22537</ele>
        <time>2014-07-27T17:22:12Z</time>
      </trkpt>
      <trkpt lat="48.70383" lon="1.77109">
        <ele>171.22537</ele>
        <time>2014-07-27T17:22:16Z</time>
      </trkpt>
      <trkpt lat="48.70378" lon="1.77097">
        <ele>171.33928</ele>
        <time>2014-07-27T17:22:20Z</time>
      </trkpt>
      <trkpt lat="48.7037" lon="1.77075">
        <ele>171.47827</ele>
        <time>2014-07-27T17:22:26Z</time>
      </trkpt>
      <trkpt lat="48.70368" lon="1.77063">
        <ele>171.47827</ele>
        <time>2014-07-27T17:22:32Z</time>
      </trkpt>
      <trkpt lat="48.70364" lon="1.77052">
        <ele>171.62558</ele>
        <time>2014-07-27T17:22:37Z</time>
      </trkpt>
      <trkpt lat="48.70368" lon="1.77043">
        <ele>171.62558</ele>
        <time>2014-07-27T17:22:42Z</time>
      </trkpt>
      <trkpt lat="48.70362" lon="1.77031">
        <ele>171.78003</ele>
        <time>2014-07-27T17:22:46Z</time>
      </trkpt>
      <trkpt lat="48.70364" lon="1.77026">
        <ele>171.78003</ele>
        <time>2014-07-27T17:22:52Z</time>
      </trkpt>
      <trkpt lat="48.70364" lon="1.77022">
        <ele>171.78003</ele>
        <time>2014-07-27T17:22:55Z</time>
      </trkpt>
      <trkpt lat="48.70363" lon="1.77018">
        <ele>171.94054</ele>
        <time>2014-07-27T17:23:01Z</time>
      </trkpt>
      <trkpt lat="48.70351" lon="1.7701">
        <ele>172.07726</ele>
        <time>2014-07-27T17:23:07Z</time>
      </trkpt>
      <trkpt lat="48.70351" lon="1.77001">
        <ele>172.07726</ele>
        <time>2014-07-27T17:23:11Z</time>
      </trkpt>
      <trkpt lat="48.70345" lon="1.76987">
        <ele>172.2202</ele>
        <time>2014-07-27T17:23:17Z</time>
      </trkpt>
      <trkpt lat="48.70339" lon="1.76973">
        <ele>172.35402</ele>
        <time>2014-07-27T17:23:21Z</time>
      </trkpt>
      <trkpt lat="48.70338" lon="1.7696">
        <ele>172.46443</ele>
        <time>2014-07-27T17:23:26Z</time>
      </trkpt>
      <trkpt lat="48.70334" lon="1.76946">
        <ele>172.56717</ele>
        <time>2014-07-27T17:23:31Z</time>
      </trkpt>
      <trkpt lat="48.70325" lon="1.76924">
        <ele>172.6624</ele>
        <time>2014-07-27T17:23:38Z</time>
      </trkpt>
      <trkpt lat="48.70326" lon="1.76914">
        <ele>172.6624</ele>
        <time>2014-07-27T17:23:41Z</time>
      </trkpt>
      <trkpt lat="48.70326" lon="1.76901">
        <ele>172.75029</ele>
        <time>2014-07-27T17:23:46Z</time>
      </trkpt>
      <trkpt lat="48.70326" lon="1.7688">
        <ele>172.80222</ele>
        <time>2014-07-27T17:23:52Z</time>
      </trkpt>
      <trkpt lat="48.70322" lon="1.7687">
        <ele>172.80222</ele>
        <time>2014-07-27T17:23:55Z</time>
      </trkpt>
      <trkpt lat="48.70317" lon="1.76847">
        <ele>172.83502</ele>
        <time>2014-07-27T17:24:02Z</time>
      </trkpt>
      <trkpt lat="48.70314" lon="1.76835">
        <ele>172.83502</ele>
        <time>2014-07-27T17:24:06Z</time>
      </trkpt>
      <trkpt lat="48.7031" lon="1.76817">
        <ele>172.84993</ele>
        <time>2014-07-27T17:24:12Z</time>
      </trkpt>
      <trkpt lat="48.70308" lon="1.76809">
        <ele>172.84993</ele>
        <time>2014-07-27T17:24:16Z</time>
      </trkpt>
      <trkpt lat="48.7031" lon="1.76791">
        <ele>172.84814</ele>
        <time>2014-07-27T17:24:22Z</time>
      </trkpt>
      <trkpt lat="48.70309" lon="1.7678">
        <ele>172.84814</ele>
        <time>2014-07-27T17:24:27Z</time>
      </trkpt>
      <trkpt lat="48.70309" lon="1.76767">
        <ele>172.81645</ele>
        <time>2014-07-27T17:24:31Z</time>
      </trkpt>
      <trkpt lat="48.7031" lon="1.76754">
        <ele>172.81645</ele>
        <time>2014-07-27T17:24:36Z</time>
      </trkpt>
      <trkpt lat="48.7031" lon="1.76743">
        <ele>172.77147</ele>
        <time>2014-07-27T17:24:41Z</time>
      </trkpt>
      <trkpt lat="48.7031" lon="1.76733">
        <ele>172.77147</ele>
        <time>2014-07-27T17:24:46Z</time>
      </trkpt>
      <trkpt lat="48.7031" lon="1.7672">
        <ele>172.71428</ele>
        <time>2014-07-27T17:24:52Z</time>
      </trkpt>
      <trkpt lat="48.70309" lon="1.76714">
        <ele>172.71428</ele>
        <time>2014-07-27T17:24:55Z</time>
      </trkpt>
      <trkpt lat="48.70309" lon="1.76697">
        <ele>172.64589</ele>
        <time>2014-07-27T17:25:03Z</time>
      </trkpt>
      <trkpt lat="48.70307" lon="1.76687">
        <ele>172.64589</ele>
        <time>2014-07-27T17:25:06Z</time>
      </trkpt>
      <trkpt lat="48.70304" lon="1.76667">
        <ele>172.58171</ele>
        <time>2014-07-27T17:25:12Z</time>
      </trkpt>
      <trkpt lat="48.70309" lon="1.76661">
        <ele>172.58171</ele>
        <time>2014-07-27T17:25:16Z</time>
      </trkpt>
      <trkpt lat="48.70313" lon="1.7665">
        <ele>172.52158</ele>
        <time>2014-07-27T17:25:22Z</time>
      </trkpt>
      <trkpt lat="48.70317" lon="1.76644">
        <ele>172.52158</ele>
        <time>2014-07-27T17:25:27Z</time>
      </trkpt>
      <trkpt lat="48.70328" lon="1.76642">
        <ele>172.4221</ele>
        <time>2014-07-27T17:25:37Z</time>
      </trkpt>
      <trkpt lat="48.70322" lon="1.76639">
        <ele>172.4221</ele>
        <time>2014-07-27T17:25:41Z</time>
      </trkpt>
      <trkpt lat="48.7032" lon="1.76641">
        <ele>172.4221</ele>
        <time>2014-07-27T17:25:47Z</time>
      </trkpt>
      <trkpt lat="48.70315" lon="1.76643">
        <ele>172.28644</ele>
        <time>2014-07-27T17:25:51Z</time>
      </trkpt>
      <trkpt lat="48.70325" lon="1.76643">
        <ele>172.14644</ele>
        <time>2014-07-27T17:25:55Z</time>
      </trkpt>
      <trkpt lat="48.70332" lon="1.76641">
        <ele>172.14644</ele>
        <time>2014-07-27T17:26:01Z</time>
      </trkpt>
      <trkpt lat="48.70331" lon="1.76635">
        <ele>172.01721</ele>
        <time>2014-07-27T17:26:07Z</time>
      </trkpt>
      <trkpt lat="48.70324" lon="1.76631">
        <ele>172.01721</ele>
        <time>2014-07-27T17:26:12Z</time>
      </trkpt>
      <trkpt lat="48.70315" lon="1.76626">
        <ele>171.8983</ele>
        <time>2014-07-27T17:26:17Z</time>
      </trkpt>
      <trkpt lat="48.70305" lon="1.76617">
        <ele>171.80368</ele>
        <time>2014-07-27T17:26:22Z</time>
      </trkpt>
      <trkpt lat="48.70311" lon="1.76615">
        <ele>171.80368</ele>
        <time>2014-07-27T17:26:26Z</time>
      </trkpt>
      <trkpt lat="48.7032" lon="1.76618">
        <ele>171.70299</ele>
        <time>2014-07-27T17:26:32Z</time>
      </trkpt>
      <trkpt lat="48.70339" lon="1.76621">
        <ele>171.61136</ele>
        <time>2014-07-27T17:26:36Z</time>
      </trkpt>
      <trkpt lat="48.70358" lon="1.76624">
        <ele>171.49951</ele>
        <time>2014-07-27T17:26:41Z</time>
      </trkpt>
      <trkpt lat="48.70365" lon="1.76623">
        <ele>171.49951</ele>
        <time>2014-07-27T17:26:47Z</time>
      </trkpt>
      <trkpt lat="48.70366" lon="1.76622">
        <ele>171.49951</ele>
        <time>2014-07-27T17:26:51Z</time>
      </trkpt>
      <trkpt lat="48.70393" lon="1.766">
        <ele>171.3404</ele>
        <time>2014-07-27T17:27:03Z</time>
      </trkpt>
      <trkpt lat="48.70401" lon="1.76594">
        <ele>171.20998</ele>
        <time>2014-07-27T17:27:06Z</time>
      </trkpt>
      <trkpt lat="48.70414" lon="1.76587">
        <ele>171.10645</ele>
        <time>2014-07-27T17:27:11Z</time>
      </trkpt>
      <trkpt lat="48.70424" lon="1.76575">
        <ele>171.01369</ele>
        <time>2014-07-27T17:27:17Z</time>
      </trkpt>
      <trkpt lat="48.70433" lon="1.7656">
        <ele>170.93109</ele>
        <time>2014-07-27T17:27:21Z</time>
      </trkpt>
      <trkpt lat="48.70443" lon="1.76555">
        <ele>170.85811</ele>
        <time>2014-07-27T17:27:26Z</time>
      </trkpt>
      <trkpt lat="48.70449" lon="1.76532">
        <ele>170.80858</ele>
        <time>2014-07-27T17:27:32Z</time>
      </trkpt>
      <trkpt lat="48.70449" lon="1.76526">
        <ele>170.80858</ele>
        <time>2014-07-27T17:27:36Z</time>
      </trkpt>
      <trkpt lat="48.70455" lon="1.76509">
        <ele>170.76645</ele>
        <time>2014-07-27T17:27:42Z</time>
      </trkpt>
      <trkpt lat="48.70462" lon="1.76499">
        <ele>170.7456</ele>
        <time>2014-07-27T17:27:46Z</time>
      </trkpt>
      <trkpt lat="48.70466" lon="1.76486">
        <ele>170.74448</ele>
        <time>2014-07-27T17:27:51Z</time>
      </trkpt>
      <trkpt lat="48.70469" lon="1.76479">
        <ele>170.74448</ele>
        <time>2014-07-27T17:27:56Z</time>
      </trkpt>
      <trkpt lat="48.70477" lon="1.7646">
        <ele>170.76152</ele>
        <time>2014-07-27T17:28:06Z</time>
      </trkpt>
      <trkpt lat="48.70476" lon="1.7645">
        <ele>170.76152</ele>
        <time>2014-07-27T17:28:12Z</time>
      </trkpt>
      <trkpt lat="48.70468" lon="1.76417">
        <ele>170.82411</ele>
        <time>2014-07-27T17:28:23Z</time>
      </trkpt>
      <trkpt lat="48.70466" lon="1.76405">
        <ele>170.82411</ele>
        <time>2014-07-27T17:28:26Z</time>
      </trkpt>
      <trkpt lat="48.70466" lon="1.76398">
        <ele>170.88538</ele>
        <time>2014-07-27T17:28:31Z</time>
      </trkpt>
      <trkpt lat="48.70447" lon="1.76234">
        <ele>171.01721</ele>
        <time>2014-07-27T17:29:37Z</time>
      </trkpt>
      <trkpt lat="48.70441" lon="1.7622">
        <ele>171.15631</ele>
        <time>2014-07-27T17:29:42Z</time>
      </trkpt>
      <trkpt lat="48.70438" lon="1.76208">
        <ele>171.15631</ele>
        <time>2014-07-27T17:29:47Z</time>
      </trkpt>
      <trkpt lat="48.70435" lon="1.76201">
        <ele>171.28726</ele>
        <time>2014-07-27T17:29:52Z</time>
      </trkpt>
      <trkpt lat="48.70435" lon="1.762">
        <ele>171.28726</ele>
        <time>2014-07-27T17:29:55Z</time>
      </trkpt>
      <trkpt lat="48.70442" lon="1.76151">
        <ele>171.439</ele>
        <time>2014-07-27T17:30:16Z</time>
      </trkpt>
      <trkpt lat="48.70444" lon="1.76141">
        <ele>171.439</ele>
        <time>2014-07-27T17:30:22Z</time>
      </trkpt>
      <trkpt lat="48.70445" lon="1.76094">
        <ele>171.59506</ele>
        <time>2014-07-27T17:30:37Z</time>
      </trkpt>
      <trkpt lat="48.70447" lon="1.76086">
        <ele>171.59506</ele>
        <time>2014-07-27T17:30:42Z</time>
      </trkpt>
      <trkpt lat="48.70448" lon="1.76075">
        <ele>171.76904</ele>
        <time>2014-07-27T17:30:47Z</time>
      </trkpt>
      <trkpt lat="48.70456" lon="1.7607">
        <ele>171.76904</ele>
        <time>2014-07-27T17:30:52Z</time>
      </trkpt>
      <trkpt lat="48.70456" lon="1.76067">
        <ele>171.94461</ele>
        <time>2014-07-27T17:30:55Z</time>
      </trkpt>
      <trkpt lat="48.70458" lon="1.75996">
        <ele>172.13551</ele>
        <time>2014-07-27T17:31:22Z</time>
      </trkpt>
      <trkpt lat="48.7046" lon="1.75983">
        <ele>172.13551</ele>
        <time>2014-07-27T17:31:27Z</time>
      </trkpt>
      <trkpt lat="48.70467" lon="1.75973">
        <ele>172.32559</ele>
        <time>2014-07-27T17:31:32Z</time>
      </trkpt>
      <trkpt lat="48.70475" lon="1.75969">
        <ele>172.32559</ele>
        <time>2014-07-27T17:31:37Z</time>
      </trkpt>
      <trkpt lat="48.7049" lon="1.75967">
        <ele>172.52875</ele>
        <time>2014-07-27T17:31:42Z</time>
      </trkpt>
      <trkpt lat="48.70499" lon="1.75962">
        <ele>172.71454</ele>
        <time>2014-07-27T17:31:46Z</time>
      </trkpt>
      <trkpt lat="48.70496" lon="1.75945">
        <ele>172.89812</ele>
        <time>2014-07-27T17:31:51Z</time>
      </trkpt>
      <trkpt lat="48.70492" lon="1.75924">
        <ele>173.06468</ele>
        <time>2014-07-27T17:31:56Z</time>
      </trkpt>
      <trkpt lat="48.70493" lon="1.75906">
        <ele>173.22943</ele>
        <time>2014-07-27T17:32:01Z</time>
      </trkpt>
      <trkpt lat="48.70494" lon="1.75903">
        <ele>173.22943</ele>
        <time>2014-07-27T17:32:07Z</time>
      </trkpt>
      <trkpt lat="48.70578" lon="1.75812">
        <ele>173.29112</ele>
        <time>2014-07-27T17:33:06Z</time>
      </trkpt>
      <trkpt lat="48.70575" lon="1.75799">
        <ele>173.32925</ele>
        <time>2014-07-27T17:33:12Z</time>
      </trkpt>
      <trkpt lat="48.70576" lon="1.75791">
        <ele>173.32925</ele>
        <time>2014-07-27T17:33:17Z</time>
      </trkpt>
      <trkpt lat="48.70578" lon="1.75784">
        <ele>173.34544</ele>
        <time>2014-07-27T17:33:21Z</time>
      </trkpt>
      <trkpt lat="48.70584" lon="1.75774">
        <ele>173.34544</ele>
        <time>2014-07-27T17:33:28Z</time>
      </trkpt>
      <trkpt lat="48.70591" lon="1.75772">
        <ele>173.34131</ele>
        <time>2014-07-27T17:33:31Z</time>
      </trkpt>
      <trkpt lat="48.70592" lon="1.75763">
        <ele>173.34131</ele>
        <time>2014-07-27T17:33:38Z</time>
      </trkpt>
      <trkpt lat="48.70599" lon="1.75756">
        <ele>173.304</ele>
        <time>2014-07-27T17:33:40Z</time>
      </trkpt>
      <trkpt lat="48.70606" lon="1.75746">
        <ele>173.2361</ele>
        <time>2014-07-27T17:33:48Z</time>
      </trkpt>
      <trkpt lat="48.7061" lon="1.75743">
        <ele>173.2361</ele>
        <time>2014-07-27T17:33:51Z</time>
      </trkpt>
      <trkpt lat="48.70616" lon="1.75733">
        <ele>173.15453</ele>
        <time>2014-07-27T17:33:56Z</time>
      </trkpt>
      <trkpt lat="48.70616" lon="1.75723">
        <ele>173.15453</ele>
        <time>2014-07-27T17:34:02Z</time>
      </trkpt>
      <trkpt lat="48.70613" lon="1.75729">
        <ele>173.0606</ele>
        <time>2014-07-27T17:34:07Z</time>
      </trkpt>
      <trkpt lat="48.70609" lon="1.75726">
        <ele>173.0606</ele>
        <time>2014-07-27T17:34:11Z</time>
      </trkpt>
      <trkpt lat="48.70607" lon="1.75724">
        <ele>173.0606</ele>
        <time>2014-07-27T17:34:18Z</time>
      </trkpt>
      <trkpt lat="48.70602" lon="1.7572">
        <ele>172.95557</ele>
        <time>2014-07-27T17:34:20Z</time>
      </trkpt>
      <trkpt lat="48.70597" lon="1.75707">
        <ele>172.85501</ele>
        <time>2014-07-27T17:34:27Z</time>
      </trkpt>
      <trkpt lat="48.70599" lon="1.75703">
        <ele>172.85501</ele>
        <time>2014-07-27T17:34:31Z</time>
      </trkpt>
      <trkpt lat="48.7061" lon="1.75694">
        <ele>172.75902</ele>
        <time>2014-07-27T17:34:37Z</time>
      </trkpt>
      <trkpt lat="48.70611" lon="1.75693">
        <ele>172.75902</ele>
        <time>2014-07-27T17:34:41Z</time>
      </trkpt>
      <trkpt lat="48.70611" lon="1.75693">
        <ele>172.75902</ele>
        <time>2014-07-27T17:34:47Z</time>
      </trkpt>
      <trkpt lat="48.70614" lon="1.7569">
        <ele>172.75902</ele>
        <time>2014-07-27T17:34:51Z</time>
      </trkpt>
      <trkpt lat="48.70612" lon="1.7569">
        <ele>172.75902</ele>
        <time>2014-07-27T17:34:55Z</time>
      </trkpt>
      <trkpt lat="48.70616" lon="1.75694">
        <ele>172.65317</ele>
        <time>2014-07-27T17:35:00Z</time>
      </trkpt>
      <trkpt lat="48.70644" lon="1.75678">
        <ele>172.52417</ele>
        <time>2014-07-27T17:35:07Z</time>
      </trkpt>
      <trkpt lat="48.70645" lon="1.75677">
        <ele>172.52417</ele>
        <time>2014-07-27T17:35:10Z</time>
      </trkpt>
    </trkseg>
  </trk>
</gpx>